[[{"header":{"parameterUnit":"m.s-1","parameterCategory":1,"la1":31.0,"la2":29.5877,"lo1":-88.7671,"lo2":-86.6584,"dy":0.0162,"dx":0.0185,"nx":115,"ny":88,"refTime":"2024-08-21T18:00:00:Z","depth":0,"parameterNumber":2,"parameterNumberName":"U-component_of_WINDS"},"data":[0.0,0.0,0.0,0.0,0.0,0.0,0.0,0.0,0.0,0.0,0.0,0.0,0.0,0.0,0.0,0.0,0.0,0.0,0.0,0.0,0.0,0.0,0.0,0.0,0.0,0.0,0.0,0.0,0.0,0.0,0.0,0.0,0.0,0.0,0.0,0.0,0.0,0.0,0.0,0.0,0.0,0.0,0.0,0.0,0.0,0.0,0.0,0.0,0.0,0.0,0.0,0.0,0.0,0.0,0.0,0.0,0.0,0.0,0.0,0.0,0.0,0.0,0.0,0.0,0.0,0.0,0.0,0.0,0.0,0.0,0.0,0.0,0.0,0.0,0.0,0.0,0.0,0.0,0.0,0.0,0.0,0.0,0.0,0.0,0.0,0.0,0.0,0.0,0.0,0.0,0.0,0.0,0.0,0.0,0.0,0.0,0.0,0.0,0.0,0.0,0.0,0.0,0.0,0.0,0.0,0.0,0.0,0.0,0.0,0.0,0.0,0.0,0.0,0.0,0.0,0.0,0.0,0.0,0.0,0.0,0.0,0.0,0.0,0.0,0.0,0.0,0.0,0.0,0.0,0.0,0.0,0.0,0.0,0.0,0.0,0.0,0.0,0.0,0.0,0.0,0.0,0.0,0.0,0.0,0.0,0.0,0.0,0.0,0.0,0.0,0.0,0.0,0.0,0.0,0.0,0.0,0.0,0.0,0.0,0.0,0.0,0.0,0.0,0.0,0.0,0.0,0.0,0.0,0.0,0.0,0.0,0.0,0.0,0.0,0.0,0.0,0.0,0.0,0.0,0.0,0.0,0.0,0.0,0.0,0.0,0.0,0.0,0.0,0.0,0.0,0.0,0.0,0.0,0.0,0.0,0.0,0.0,0.0,0.0,0.0,0.0,0.0,0.0,0.0,0.0,0.0,0.0,0.0,0.0,0.0,0.0,0.0,0.0,0.0,0.0,0.0,0.0,0.0,0.0,0.0,0.0,0.0,0.0,0.0,0.0,0.0,0.0,0.0,0.0,0.0,0.0,0.0,0.0,0.0,0.0,0.0,0.0,0.0,0.0,0.0,0.0,0.0,0.0,0.0,0.0,0.0,0.0,0.0,0.0,0.0,0.0,0.0,0.0,0.0,0.0,0.0,0.0,0.0,0.0,0.0,0.0,0.0,0.0,0.0,0.0,0.0,0.0,0.0,0.0,0.0,0.0,0.0,0.0,0.0,0.0,0.0,0.0,0.0,0.0,0.0,0.0,0.0,0.0,0.0,0.0,0.0,0.0,0.0,0.0,0.0,0.0,0.0,0.0,0.0,0.0,0.0,0.0,0.0,0.0,0.0,0.0,0.0,0.0,0.0,0.0,0.0,0.0,0.0,0.0,0.0,0.0,0.0,0.0,0.0,0.0,0.0,0.0,0.0,0.0,0.0,0.0,0.0,0.0,0.0,0.0,0.0,0.0,0.0,0.0,0.0,0.0,0.0,0.0,0.0,0.0,0.0,0.0,0.0,0.0,0.0,0.0,0.0,0.0,0.0,0.0,0.0,0.0,0.0,0.0,0.0,0.0,0.0,0.0,0.0,0.0,0.0,0.0,0.0,0.0,0.0,0.0,0.0,0.0,0.0,0.0,0.0,0.0,0.0,0.0,0.0,0.0,0.0,0.0,0.0,0.0,0.0,0.0,0.0,0.0,0.0,0.0,0.0,0.0,0.0,0.0,0.0,0.0,0.0,0.0,0.0,0.0,0.0,0.0,0.0,0.0,0.0,0.0,0.0,0.0,0.0,0.0,0.0,0.0,0.0,0.0,0.0,0.0,0.0,0.0,0.0,0.0,0.0,0.0,0.0,0.0,0.0,0.0,0.0,0.0,0.0,0.0,0.0,0.0,0.0,0.0,0.0,0.0,0.0,0.0,0.0,0.0,0.0,0.0,0.0,0.0,0.0,0.0,0.0,0.0,0.0,0.0,0.0,0.0,0.0,0.0,0.0,0.0,0.0,0.0,0.0,0.0,0.0,0.0,0.0,0.0,0.0,0.0,0.0,0.0,0.0,0.0,0.0,0.0,0.0,0.0,0.0,0.0,0.0,0.0,0.0,0.0,0.0,0.0,0.0,0.0,0.0,0.0,0.0,0.0,0.0,0.0,0.0,0.0,0.0,0.0,0.0,0.0,0.0,0.0,0.0,0.0,0.0,0.0,0.0,0.0,0.0,0.0,0.0,0.0,0.0,0.0,0.0,0.0,0.0,0.0,0.0,0.0,0.0,0.0,0.0,0.0,0.0,0.0,0.0,0.0,0.0,0.0,0.0,0.0,0.0,0.0,0.0,0.0,0.0,0.0,0.0,0.0,0.0,0.0,0.0,0.0,0.0,0.0,0.0,0.0,0.0,0.0,0.0,0.0,0.0,0.0,0.0,0.0,0.0,0.0,0.0,0.0,0.0,0.0,0.0,0.0,0.0,0.0,0.0,0.0,0.0,0.0,0.0,0.0,0.0,0.0,0.0,0.0,0.0,0.0,0.0,0.0,0.0,0.0,0.0,0.0,0.0,0.0,0.0,0.0,0.0,0.0,0.0,0.0,0.0,0.0,0.0,0.0,0.0,0.0,0.0,0.0,0.0,0.0,0.0,0.0,0.0,0.0,0.0,0.0,0.0,0.0,0.0,0.0,0.0,0.0,0.0,0.0,0.0,0.0,0.0,0.0,0.0,0.0,0.0,0.0,0.0,0.0,0.0,0.0,0.0,0.0,0.0,0.0,0.0,0.0,0.0,0.0,0.0,0.0,0.0,0.0,0.0,0.0,0.0,0.0,0.0,0.0,0.0,0.0,0.0,0.0,0.0,0.0,0.0,0.0,0.0,0.0,0.0,0.0,0.0,0.0,0.0,0.0,0.0,0.0,0.0,0.0,0.0,0.0,0.0,0.0,0.0,0.0,0.0,0.0,0.0,0.0,0.0,0.0,0.0,0.0,0.0,0.0,0.0,0.0,0.0,0.0,0.0,0.0,0.0,0.0,0.0,0.0,0.0,0.0,0.0,0.0,0.0,0.0,0.0,0.0,0.0,0.0,0.0,0.0,0.0,0.0,0.0,0.0,0.0,0.0,0.0,0.0,0.0,0.0,0.0,0.0,0.0,0.0,0.0,0.0,0.0,0.0,0.0,0.0,0.0,0.0,0.0,0.0,0.0,0.0,0.0,0.0,0.0,0.0,0.0,0.0,0.0,0.0,0.0,0.0,0.0,0.0,0.0,0.0,0.0,0.0,0.0,0.0,0.0,0.0,0.0,0.0,0.0,0.0,0.0,0.0,0.0,0.0,0.0,0.0,0.0,0.0,0.0,0.0,0.0,0.0,0.0,0.0,0.0,0.0,0.0,0.0,0.0,0.0,0.0,0.0,0.0,0.0,0.0,0.0,0.0,0.0,0.0,0.0,0.0,0.0,0.0,0.0,0.0,0.0,0.0,0.0,0.0,0.0,0.0,0.0,0.0,0.0,0.0,0.0,0.0,0.0,0.0,0.0,0.0,0.0,0.0,0.0,0.0,0.0,0.0,0.0,0.0,0.0,0.0,0.0,0.0,0.0,0.0,0.0,0.0,0.0,0.0,0.0,0.0,0.0,0.0,0.0,0.0,0.0,0.0,0.0,0.0,0.0,0.0,0.0,0.0,0.0,0.0,0.0,0.0,0.0,0.0,0.0,0.0,0.0,0.0,0.0,0.0,0.0,0.0,0.0,0.0,0.0,0.0,0.0,0.0,0.0,0.0,0.0,0.0,0.0,0.0,0.0,0.0,0.0,0.0,0.0,0.0,0.0,0.0,0.0,0.0,0.0,0.0,0.0,0.0,0.0,0.0,0.0,0.0,0.0,0.0,0.0,0.0,0.0,0.0,0.0,0.0,0.0,0.0,0.0,0.0,0.0,0.0,0.0,0.0,0.0,0.0,0.0,0.0,0.0,0.0,0.0,0.0,0.0,0.0,0.0,0.0,0.0,0.0,0.0,0.0,0.0,0.0,0.0,0.0,0.0,0.0,0.0,0.0,0.0,0.0,0.0,0.0,0.0,0.0,0.0,0.0,0.0,0.0,0.0,0.0,0.0,0.0,0.0,0.0,0.0,0.0,0.0,0.0,0.0,0.0,0.0,0.0,0.0,0.0,0.0,0.0,0.0,0.0,0.0,0.0,0.0,0.0,0.0,0.0,0.0,0.0,0.0,0.0,0.0,0.0,0.0,0.0,0.0,0.0,0.0,0.0,0.0,0.0,0.0,0.0,0.0,0.0,0.0,0.0,0.0,0.0,0.4071,0.0,0.0,0.0,0.0,0.0,0.0,0.0,0.0,0.0,0.0,0.0,0.0,0.0,0.0,0.0,0.0,0.0,0.0,0.0,0.0,0.0,0.0,0.0,0.0,0.0,0.0,0.0,0.0,0.0,0.0,0.0,0.0,0.0,0.0,0.0,0.0,0.0,0.0,0.0,0.0,0.0,0.0,0.0,0.0,0.0,0.0,0.0,0.0,0.0,0.0,0.0,0.0,0.0,0.0,0.0,0.0,0.0,0.0,0.0,0.0,0.0,0.0,0.0,0.0,0.0,0.0,0.0,0.0,0.0,0.0,0.0,0.0,0.0,0.0,0.0,0.0,0.0,0.0,0.0,0.0,0.0,0.0,0.0,0.0,0.0,0.0,0.0,0.0,0.0,0.0,0.0,0.0,0.0,0.0,0.0,0.0,0.0,0.0,0.0,0.0,0.0,0.0,0.0,0.0,0.0,0.0,0.0,0.0,0.0,0.0,0.4284,0.4048,0.3924,0.3653,0.3147,0.0,0.0,0.0,0.0,0.0,0.0,0.0,0.0,0.0,0.0,0.0,0.0,0.0,0.0,0.0,0.0,0.0,0.0,0.0,0.0,0.0,0.0,0.0,0.0,0.0,0.0,0.0,0.0,0.0,0.0,0.0,0.0,0.0,0.0,0.0,0.0,0.0,0.0,0.0,0.0,0.0,0.0,0.0,0.0,0.0,0.0,0.0,0.0,0.0,0.0,0.0,0.0,0.0,0.0,0.0,0.0,0.0,0.0,0.0,0.0,0.0,0.0,0.0,0.0,0.0,0.0,0.0,0.0,0.0,0.0,0.0,0.0,0.0,0.0,0.0,0.0,0.0,0.0,0.0,0.0,0.0,0.0,0.0,0.0,0.0,0.0,0.0,0.0,0.0,0.0,0.0,0.0,0.0,0.0,0.0,0.0,0.0,0.0,0.0,0.0,0.0,0.0,0.0,0.0,0.0,0.0,0.0,0.0,0.0,0.0,0.0,0.0,0.2931,0.225,0.1445,0.0,0.0,0.0,0.0,0.0,0.0,0.0,0.0,0.0,0.0,0.0,0.0,0.0,0.0,0.0,0.0,0.0,0.0,0.0,0.0,0.0,0.0,0.0,0.0,0.0,0.0,0.0,0.0,0.0,0.0,0.0,0.0,0.0,0.0,0.0,0.0,0.0,0.0,0.0,0.0,0.0,0.0,0.0,0.0,0.0,0.0,0.0,0.0,0.0,0.0,0.0,0.0,0.0,0.0,0.0,0.0,0.0,0.0,0.0,0.0,0.0,0.0,0.0,0.0,0.0,0.0,0.0,0.0,0.0,0.0,0.0,0.0,0.0,0.0,0.0,0.0,0.0,0.0,0.0,0.0,0.0,0.0,0.0,0.0,0.0,0.0,0.0,0.0,0.0,0.0,0.0,0.0,0.0,0.0,0.0,0.0,0.0,0.0,0.0,0.0,0.0,0.0,0.0,0.0,0.0,0.0,0.0,0.0,0.0,0.0,0.3525,0.3482,0.1236,0.0,-0.1514,0.0,0.0,0.0,0.0,0.0,0.0,0.0,0.0,0.0,0.0,0.0,0.0,0.0,0.0,0.0,0.0,0.0,0.0,0.0,0.0,0.0,0.0,0.0,0.0,0.0,0.0,0.0,0.0,0.0,0.0,0.0,0.0,0.0,0.0,0.0,0.0,0.0,0.0,0.0,0.0,0.0,0.0,0.0,0.0,0.0,0.0,0.0,0.0,0.0,0.0,0.0,0.0,0.0,0.0,0.0,0.0,0.0,0.0,0.0,0.0,0.0,0.0,0.0,0.0,0.0,0.0,0.0,0.0,0.0,0.0,0.0,0.0,0.0,0.0,0.0,0.0,0.0,0.0,0.0,0.0,0.0,0.0,0.0,0.0,0.0,0.0,0.0,0.0,0.0,0.0,0.0,0.0,0.0,0.0,0.0,0.0,0.0,0.0,0.0,0.0,0.0,0.0,0.0,0.0,0.0,0.0,0.0,0.0,0.0,0.0,0.0,0.0667,-0.0426,-0.0977,0.0,0.0,0.0,0.0,0.0,0.0,0.0,0.0,0.0,0.0,0.0,0.0,0.0,0.0,0.0,0.0,0.0,0.0,0.0,0.0,0.0,0.0,0.0,0.0,0.0,0.0,0.0,0.0,0.0,0.0,0.0,0.0,0.0,0.0,0.0,0.0,0.0,0.0,0.0,0.0,0.0,0.0,0.0,0.0,0.0,0.0,0.0,0.0,0.0,0.0,0.0,0.0,0.0,0.0,0.0,0.0,0.0,0.0,0.0,0.0,0.0,0.0,0.0,0.0,0.0,0.0,0.0,0.0,0.0,0.0,0.0,0.0,0.0,0.0,0.0,0.0,0.0,0.0,0.0,0.0,0.0,0.0,0.0,0.0,0.0,0.0,0.0,0.0,0.0,0.0,0.0,0.0,0.0,0.0,0.0,0.0,0.0,0.0,0.0,0.0,0.0,0.0,0.0,0.0,0.0,0.0,0.0,0.0,0.0,0.0,0.1594,0.0,-0.1679,-0.2379,-0.2157,-0.1096,0.0,0.0,0.0,0.0,0.0,0.0,0.0,0.0,0.0,0.0,0.0,0.0,0.0,0.0,0.0,0.0,0.0,0.0,0.0,0.0,0.0,0.0,0.0,0.0,0.0,0.0,0.0,0.0,0.0,0.0,0.0,0.0,0.0,0.0,0.0,0.0,0.0,0.0,0.0,0.0,0.0,0.0,0.0,0.0,0.0,0.0,0.0,0.0,0.0,0.0,0.0,0.0,0.0,0.0,0.0,0.0,0.0,0.0,0.0,0.0,0.0,0.0,0.0,0.0,0.0,0.0,0.0,0.0,0.0,0.0,0.0,0.0,0.0,0.0,0.0,0.0,0.0,0.0,0.0,0.0,0.0,0.0,0.0,0.0,0.0,0.0,0.0,0.0,0.0,0.0,0.0,0.0,0.0,0.0,0.0,0.0,0.0,0.0,0.0,0.0,0.0,0.0,0.0,0.0,0.0,0.0,0.0,0.0,0.0,0.174,0.0233,-0.2905,-0.4692,-0.4991,0.0,0.0,0.0,0.0,0.0,0.0,0.0,0.0,0.0,0.0,0.0,0.0,0.0,0.0,0.0,0.0,0.0,0.0,0.0,0.0,0.0,0.0,0.0,0.0,0.0,0.0,0.0,0.0,0.0,0.0,0.0,0.0,0.0,0.0,0.0,0.0,0.0,0.0,0.0,0.0,0.0,0.0,0.0,0.0,0.0,0.0,0.0,0.0,0.0,0.0,0.0,0.0,0.0,0.0,0.0,0.0,0.0,0.0,0.0,0.0,0.0,0.0,0.0,0.0,0.0,0.0,0.0,0.0,0.0,0.0,0.0,0.0,0.0,0.0,0.0,0.0,0.0,0.0,0.0,0.0,0.0,0.0,0.0,0.0,0.0,0.0,0.0,0.0,0.0,0.0,0.0,0.0,0.0,0.0,0.0,0.0,0.0,0.0,0.0,0.0,0.0,0.0,0.0,0.0,0.0,0.0,0.0,0.0,0.0,0.051,0.0269,-0.1205,-0.3795,-0.393,-0.4143,0.0,0.0,0.0,0.0,0.0,0.0,0.0,0.0,0.0,0.0,0.0,0.0,0.0,0.0,0.0,0.0,0.0,0.0,0.0,0.0,0.0,0.0,0.0,0.0,0.0,0.0,0.0,0.0,0.0,0.0,0.0,0.0,0.0,0.0,0.0,0.0,0.0,0.0,0.0,0.0,0.0,0.0,0.0,0.0,0.0,0.0,0.0,0.0,0.0,0.0,0.0,0.0,0.0,0.0,0.0,0.0,0.0,0.0,0.0,0.0,0.0,0.0,0.0,0.0,0.0,0.0,0.0,0.0,0.0,0.0,0.0,0.0,0.0,0.0,0.0,0.0,0.0,0.0,0.0,0.0,0.0,0.0,0.0,0.0,0.0,0.0,0.0,0.0,0.0,0.0,0.0,0.0,0.0,0.0,0.0,0.0,0.0,0.0,0.0,0.0,0.0,0.0,0.0,0.0,0.0,0.0,0.0,0.0,0.0,-0.2274,0.0,-0.296,0.0,-0.4141,-0.4317,0.0,0.0,0.0,0.0,0.0,0.0,0.0,0.0,0.0,0.0,0.0,0.0,0.0,0.0,0.0,0.0,0.0,0.0,0.0,0.0,0.0,0.0,0.0,0.0,0.0,0.0,0.0,0.0,0.0,0.0,0.0,0.0,0.0,0.0,0.0,0.0,0.0,0.0,0.0,0.0,0.0,0.0,0.0,0.0,0.0,0.0,0.0,0.0,0.0,0.0,0.0,0.0,0.0,0.0,0.0,0.0,0.0,0.0,0.0,0.0,0.0,0.0,0.0,0.0,0.0,0.0,0.0,0.0,0.0,0.0,0.0,0.0,0.0,0.0,0.0,0.0,0.0,0.0,0.0,0.0,0.0,0.0,0.0,0.0,0.0,0.0,0.0,0.0,0.0,0.0,0.0,0.0,0.0,0.0,0.0,0.0,0.0,0.0,0.0,0.0,0.0,0.0,0.0,0.0,0.0,0.0,0.0,0.0,-0.2907,-0.6663,-0.5701,-0.4796,-0.4248,-0.555,-0.5786,0.0,0.0,0.0,0.0,0.0,0.0,0.0,0.0,0.0,0.0,0.0,0.0,0.0,0.0,0.0,0.0,0.0,0.0,0.0,0.0,0.0,0.0,0.0,0.0,0.0,0.0,0.0,0.0,0.0,0.0,0.0,0.0,0.0,0.0,0.0,0.0,0.0,0.0,0.0,0.0,0.0,0.0,0.0,0.0,0.0,0.0,0.0,0.0,0.0,0.0,0.0,0.0,0.0,0.0,0.0,0.0,0.0,0.0,0.0,0.0,0.0,0.0,0.0,0.0,0.0,0.0,0.0,0.0,0.0,0.0,0.0,0.0,0.0,0.0,0.0,0.0,0.0,0.0,0.0,0.0,0.0,0.0,0.0,0.0,0.0,0.0,0.0,0.0,0.0,0.0,0.0,0.0,0.0,0.0,0.0,0.0,0.0,0.0,0.0,0.0,0.0,0.0,0.0,0.0,0.0,0.0,0.0,0.0,0.0,-0.5752,-0.5485,-0.5965,-0.7325,-0.589,-0.5742,0.0,0.0,0.0,0.0,0.0,0.0,0.0,0.0,0.0,0.0,0.0,0.0,0.0,0.0,0.0,0.0,0.0,0.0,0.0,0.0,0.0,0.0,0.0,0.0,0.0,0.0,0.0,0.0,0.0,0.0,0.0,0.0,0.0,0.0,0.0,0.0,0.0,0.0,0.0,0.0,0.0,0.0,0.0,0.0,0.0,0.0,0.0,0.0,0.0,0.0,0.0,0.0,0.0,0.0,0.0,0.0,0.0,0.0,0.0,0.0,0.0,0.0,0.0,0.0,0.0,0.0,0.0,0.0,0.0,0.0,0.0,0.0,0.0,0.0,0.0,0.0,0.0,0.0,0.0,0.0,0.0,0.0,0.0,0.0,0.0,0.0,0.0,0.0,0.0,0.0,0.0,0.0,0.0,0.0,0.0,0.0,0.0,0.0,0.0,0.0,0.0,0.0,0.0,0.0,0.0,0.0,0.0,0.0,0.0,-0.549,-0.5888,-0.6811,-0.8249,-0.6577,-0.6398,-0.7925,0.0,0.0,0.0,0.0,0.0,0.0,0.0,0.0,0.0,0.0,0.0,0.0,0.0,0.0,0.0,0.0,0.0,0.0,0.0,0.0,0.0,0.0,0.0,0.0,0.0,0.0,0.0,0.0,0.0,0.0,0.0,0.0,0.0,0.0,0.0,0.0,0.0,0.0,0.0,0.0,0.0,0.0,0.0,0.0,0.0,0.0,0.0,0.0,0.0,0.0,0.0,0.0,0.0,0.0,0.0,0.0,0.0,0.0,0.0,0.0,0.0,0.0,0.0,0.0,0.0,0.0,0.0,0.0,0.0,0.0,0.0,0.0,0.0,0.0,0.0,0.0,0.0,0.0,0.0,0.0,0.0,0.0,0.0,0.0,0.0,0.0,0.0,0.0,0.0,0.0,0.0,0.0,0.0,0.0,0.0,0.0,0.0,0.0,0.0,0.0,0.0,0.0,0.0,0.0,0.0,0.0,0.0,0.0,-0.5886,-0.7015,-0.7458,-0.7282,-0.7548,-0.755,0.0,0.0,0.0,0.0,0.0,0.0,0.0,0.0,0.0,0.0,0.0,0.0,0.0,0.0,0.0,0.0,0.0,0.0,0.0,0.0,0.0,0.0,0.0,0.0,0.0,0.0,0.0,0.0,0.0,0.0,0.0,0.0,0.0,0.0,0.0,0.0,0.0,0.0,0.0,0.0,0.0,0.0,0.0,0.0,0.0,0.0,0.0,0.0,0.0,0.0,0.0,0.0,0.0,0.0,0.0,0.0,0.0,0.0,0.0,0.0,0.0,0.0,0.0,0.0,0.0,0.0,0.0,0.0,0.0,0.0,0.0,0.0,0.0,0.0,0.0,0.0,0.0,0.0,0.0,0.0,0.0,0.0,0.0,0.0,0.0,0.0,0.0,0.0,0.0,0.0,0.0,0.0,0.0,0.0,0.0,0.0,0.0,0.0,0.0,0.0,0.0,0.0,0.0,0.0,0.0,0.0,0.0,0.0,0.0,-0.7134,-0.7932,-0.8541,-0.8885,-0.7632,-0.7378,0.0,0.0,0.0,0.0,0.0,0.0,0.0,0.0,0.0,0.0,0.0,0.0,0.0,0.0,0.0,0.0,0.0,0.0,0.0,0.0,0.0,0.0,0.0,0.0,0.0,0.0,0.0,0.0,0.0,0.0,0.0,0.0,0.0,0.0,0.0,0.0,0.0,0.0,0.0,0.0,0.0,0.0,0.0,0.0,0.0,0.0,0.0,0.0,0.0,0.0,0.0,0.0,0.0,0.0,0.0,0.0,0.0,0.0,0.0,0.0,0.0,0.0,0.0,0.0,0.0,0.0,0.0,0.0,0.0,0.0,0.0,0.0,0.0,0.0,0.0,0.0,0.0,0.0,0.0,0.0,0.0,0.0,0.0,0.0,0.0,0.0,0.0,0.0,0.0,0.0,0.0,0.0,0.0,0.0,0.0,0.0,0.0,0.0,0.0,0.0,0.0,0.0,0.0,0.0,0.0,0.0,0.0,0.0,-0.6947,-0.7999,-0.8651,-0.9187,-0.9632,-0.8372,-0.7912,0.0,0.0,0.0,0.0,0.0,0.0,0.0,0.0,0.0,0.0,0.0,0.0,0.0,0.0,0.0,0.0,0.0,0.0,0.0,0.0,0.0,0.0,0.0,0.0,0.0,0.0,0.0,0.0,0.0,0.0,0.0,0.0,0.0,0.0,0.0,0.0,0.0,0.0,0.0,0.0,0.0,0.0,0.0,0.0,0.0,0.0,0.0,0.0,0.0,0.0,0.0,0.0,0.0,0.0,0.0,0.0,0.0,0.0,0.0,0.0,0.0,0.0,0.0,0.0,0.0,0.0,0.0,0.0,0.0,0.0,0.0,0.0,0.0,0.0,0.0,0.0,0.0,0.0,0.0,0.0,0.0,0.0,0.0,0.0,0.0,0.0,0.0,0.0,0.0,0.0,0.0,0.0,0.0,0.0,0.0,0.0,0.0,0.0,0.0,0.0,0.0,0.0,0.0,0.0,0.0,0.0,0.0,0.0,-0.7212,-0.8637,-0.912,-0.9457,-0.9704,-0.936,-0.8734,0.0,0.0,0.0,0.0,0.0,0.0,0.0,0.0,0.0,0.0,0.0,0.0,0.0,0.0,0.0,0.0,0.0,0.0,0.0,0.0,0.0,0.0,0.0,0.0,0.0,0.0,0.0,0.0,0.0,0.0,0.0,0.0,0.0,0.0,0.0,0.0,0.0,0.0,0.0,0.0,0.0,0.0,0.0,0.0,0.0,0.0,0.0,0.0,0.0,0.0,0.0,0.0,0.0,0.0,0.0,0.0,0.0,0.0,0.0,0.0,0.0,0.0,0.0,0.0,0.0,0.0,0.0,0.0,0.0,0.0,0.0,0.0,0.0,0.0,0.0,0.0,0.0,0.0,0.0,0.0,0.0,0.0,0.0,0.0,0.0,0.0,0.0,0.0,0.0,0.0,0.0,0.0,0.0,0.0,0.0,0.0,0.0,0.0,0.0,0.0,0.0,0.0,0.0,0.0,0.0,0.0,0.0,0.0,-0.8308,-0.911,-0.9483,-0.9774,-1.0005,-0.9228,-0.8456,0.0,0.0,0.0,0.0,0.0,0.0,0.0,0.0,0.0,0.0,0.0,0.0,0.0,0.0,0.0,0.0,0.0,0.0,0.0,0.0,0.0,0.0,0.0,0.0,0.0,0.0,0.0,0.0,0.0,0.0,0.0,0.0,0.0,0.0,0.0,0.0,0.0,0.0,0.0,0.0,0.0,0.0,0.0,0.0,0.0,0.0,0.0,0.0,-0.1774,0.0,0.0,0.0,0.0,0.0,0.0,0.0,0.0,0.0,0.0,0.0,0.0,0.0,0.0,0.0,0.0,0.0,0.0,0.0,0.0,0.0,0.0,0.0,0.0,0.0,0.0,0.0,0.0,0.0,0.0,0.0,0.0,0.0,0.0,0.0,0.0,0.0,0.0,0.0,0.0,0.0,0.0,0.0,0.0,0.0,0.0,0.0,0.0,0.0,0.0,0.0,0.0,0.0,0.0,0.0,0.0,0.0,0.0,0.0,-0.8926,-0.9668,-0.9901,-1.0088,-1.0186,-0.9596,-0.8793,0.0,0.0,0.0,0.0,0.0,0.0,0.0,0.0,0.0,0.0,0.0,0.0,0.0,0.0,0.0,0.0,0.0,0.0,0.0,0.0,0.0,0.0,0.0,0.0,0.0,0.0,0.0,0.0,0.0,0.0,0.0,0.0,0.0,0.0,0.0,0.0,0.0,0.0,0.0,0.0,0.0,0.0,0.0,0.0,0.0,0.0,0.0,0.0,0.0,0.0,0.0,0.0,0.0,0.0,0.0,0.0,0.0,0.0,0.0,0.0,0.0,0.0,0.0,0.0,0.0,0.0,0.0,0.0,0.0,0.0,0.0,0.0,0.0,0.0,0.0,0.0,0.0,0.0,0.0,0.0,0.0,0.0,0.0,0.0,0.0,0.0,0.0,0.0,0.0,0.0,0.0,0.0,0.0,0.0,0.0,0.0,0.0,0.0,0.0,0.0,0.0,0.0,0.0,0.0,0.0,0.0,0.0,-0.8256,-0.9263,-1.0007,-1.0205,-1.0288,-1.0262,-1.0093,-0.928,-0.7772,0.0,0.0,0.0,0.0,0.0,0.0,0.0,0.0,0.0,0.0,0.0,0.0,0.0,0.0,0.0,0.0,0.0,0.0,0.0,0.0,0.0,0.0,0.0,0.0,0.0,0.0,0.0,0.0,0.0,0.0,0.0,0.0,0.0,0.0,0.0,0.0,0.0,0.0,-0.2981,-0.3474,0.0,0.0,0.0,0.0,0.0,0.0,0.0,0.0,-0.2289,0.0,0.0,0.0,0.0,0.0,0.0,0.0,0.0,0.0,0.0,0.0,0.0,0.0,0.0,0.0,0.0,0.0,0.0,0.0,0.0,0.0,0.0,0.0,0.0,0.0,0.0,0.0,0.0,0.0,0.0,0.0,0.0,0.0,0.0,0.0,0.0,0.0,0.0,0.0,0.0,0.0,0.0,0.0,0.0,0.0,0.0,0.0,0.0,0.0,0.0,0.0,0.0,0.0,0.0,0.0,0.0,-0.7316,-0.8431,-0.9206,-0.9695,-1.0164,-1.0298,-1.0116,-1.0005,-0.9208,-0.7818,0.0,0.0,0.0,0.0,0.0,0.0,0.0,0.0,0.0,0.0,0.0,0.0,0.0,0.0,0.0,0.0,0.0,0.0,0.0,0.0,0.0,0.0,0.0,0.0,0.0,0.0,0.0,0.0,0.0,0.0,0.0,0.0,0.0,0.0,0.0,0.0,0.0,0.0,0.0,-0.4492,-0.4741,0.0,0.0,0.0,0.0,0.0,0.0,0.0,0.0,-0.2221,0.0,0.0,0.0,0.0,0.0,0.0,0.0,0.0,0.0,0.0,0.0,0.0,0.0,0.0,0.0,0.0,0.0,0.0,0.0,0.0,0.0,0.0,0.0,0.0,0.0,0.0,0.0,0.0,0.0,0.0,0.0,0.0,0.0,0.0,0.0,0.0,0.0,0.0,0.0,0.0,0.0,0.0,0.0,0.0,0.0,0.0,0.0,0.0,0.0,0.0,0.0,0.0,0.0,0.0,0.0,-0.7289,-0.8675,-0.9505,-0.9711,-1.0323,-1.0424,-1.0113,-0.9765,-0.8978,0.0,0.0,0.0,0.0,0.0,0.0,0.0,0.0,0.0,0.0,0.0,0.0,0.0,0.0,0.0,0.0,0.0,0.0,0.0,0.0,0.0,0.0,0.0,0.0,0.0,0.0,0.0,0.0,0.0,0.0,0.0,0.0,0.0,0.0,0.0,0.0,0.0,0.0,0.0,0.0,-0.4779,-0.4943,-0.4531,0.0,0.0,0.0,0.0,0.0,0.0,-0.2574,-0.2582,0.0,0.0,0.0,0.0,0.0,0.0,0.0,0.0,0.0,0.0,0.0,0.0,0.0,0.0,0.0,0.0,0.0,0.0,0.0,0.0,0.0,0.0,0.0,0.0,0.0,0.0,0.0,0.0,0.0,0.0,0.0,0.0,0.0,0.0,0.0,0.0,0.0,0.0,0.0,0.0,0.0,0.0,0.0,0.0,0.0,0.0,0.0,0.0,0.0,0.0,0.0,0.0,0.0,0.0,0.0,-0.7012,-0.8568,-0.9517,-0.9696,-1.0305,-1.0451,-0.997,-0.9635,-0.8832,0.0,0.0,0.0,0.0,0.0,0.0,0.0,0.0,0.0,0.0,0.0,0.0,0.0,0.0,0.0,0.0,0.0,0.0,0.0,0.0,0.0,0.0,0.0,0.0,0.0,0.0,0.0,0.0,0.0,0.0,0.0,0.0,0.0,0.0,0.0,0.0,0.0,0.0,0.0,0.0,0.0,-0.5171,-0.4927,-0.4422,0.0,0.0,0.0,0.0,-0.3355,-0.3171,0.0,0.0,0.0,0.0,0.0,0.0,0.0,0.0,0.0,0.0,0.0,0.0,0.0,0.0,0.0,0.0,0.0,0.0,0.0,0.0,0.0,0.0,0.0,0.0,0.0,0.0,0.0,0.0,0.0,0.0,0.0,0.0,0.0,0.0,0.0,0.0,0.0,0.0,0.0,0.0,0.0,0.0,0.0,0.0,0.0,0.0,0.0,0.0,0.0,0.0,0.0,0.0,0.0,0.0,0.0,0.0,-0.6504,-0.7493,-0.8452,-0.932,-0.9904,-1.0001,-0.9584,-0.9806,-0.9019,0.0,0.0,0.0,0.0,0.0,0.0,0.0,0.0,0.0,0.0,0.0,0.0,0.0,0.0,0.0,0.0,0.0,0.0,0.0,0.0,0.0,0.0,0.0,0.0,0.0,0.0,0.0,0.0,0.0,0.0,0.0,0.0,0.0,0.0,0.0,0.0,0.0,0.0,0.0,0.0,0.0,-0.6106,-0.4992,-0.469,-0.4661,0.0,0.0,-0.3677,-0.4306,-0.3752,0.0,0.0,0.0,0.0,0.0,0.0,0.0,0.0,0.0,0.0,0.0,0.0,0.0,0.0,0.0,0.0,0.0,0.0,0.0,0.0,0.0,0.0,0.0,0.0,0.0,0.0,0.0,0.0,0.0,0.0,0.0,0.0,0.0,0.0,0.0,0.0,0.0,0.0,0.0,0.0,0.0,0.0,0.0,0.0,0.0,0.0,0.0,0.0,0.0,0.0,0.0,0.0,0.0,0.0,0.0,-0.6249,-0.6436,-0.7623,-0.8584,-0.9278,-0.9603,-0.9676,-0.9471,-0.9227,-0.8342,0.0,0.0,0.0,0.0,0.0,0.0,0.0,0.0,0.0,0.0,0.0,0.0,0.0,0.0,0.0,0.0,0.0,0.0,0.0,0.0,0.0,0.0,0.0,0.0,0.0,0.0,0.0,0.0,0.0,0.0,0.0,0.0,0.0,0.0,0.0,0.0,0.0,0.0,0.0,0.0,0.0,0.0,-0.5116,-0.5188,0.0,0.0,0.0,-0.4785,-0.4912,0.0,0.0,0.0,0.0,0.0,0.0,0.0,0.0,0.0,0.0,0.0,0.0,0.0,0.0,0.0,0.0,0.0,0.0,0.0,0.0,0.0,0.0,0.0,0.0,0.0,0.0,0.0,0.0,0.0,0.0,0.0,0.0,0.0,0.0,0.0,0.0,0.0,0.0,0.0,0.0,0.0,0.0,0.0,0.0,0.0,0.0,0.0,0.0,0.0,0.0,0.0,0.0,0.0,0.0,0.0,0.0,0.0,-0.6431,-0.7744,-0.8646,-0.9111,-0.9279,-0.9296,-0.9227,-0.8684,0.0,0.0,0.0,0.0,0.0,0.0,0.0,0.0,0.0,0.0,0.0,0.0,0.0,0.0,0.0,0.0,0.0,0.0,0.0,0.0,0.0,0.0,0.0,0.0,0.0,0.0,0.0,-0.1245,0.0,0.0,0.0,0.0,0.0,0.0,0.0,0.0,0.0,0.0,0.0,0.0,0.0,0.0,-0.5068,-0.5592,-0.5829,-0.6006,0.0,0.0,-0.5737,-0.5546,-0.5001,-0.4407,0.0,0.0,0.0,0.0,0.0,0.0,0.0,0.0,0.0,0.0,0.0,0.0,0.0,0.0,0.0,0.0,0.0,0.0,0.0,0.0,0.0,0.0,0.0,0.0,0.0,0.0,0.0,0.0,0.0,0.0,0.0,0.0,0.0,0.0,0.0,0.0,0.0,0.0,0.0,0.0,0.0,0.0,0.0,0.0,0.0,0.0,0.0,0.0,0.0,0.0,0.0,0.0,0.0,0.0,0.0,-0.644,-0.7422,-0.8198,-0.8621,-0.8849,-0.888,-0.8751,-0.8581,-0.7739,0.0,0.0,0.0,0.0,0.0,0.0,0.0,0.0,0.0,0.0,0.0,0.0,0.0,0.0,0.0,0.0,0.0,0.0,0.0,0.0,0.0,0.0,0.0,0.0,0.0,0.0,0.0,0.0,0.0,0.0,0.0,0.0,0.0,0.0,0.0,0.0,0.0,0.0,0.0,0.0,0.0,-0.5459,-0.6523,-0.6664,-0.6764,0.0,0.0,-0.6154,-0.6401,-0.5515,-0.4537,-0.3801,0.0,0.0,0.0,0.0,0.0,0.0,0.0,0.0,0.0,0.0,0.0,0.0,0.0,0.0,0.0,0.0,0.0,0.0,0.0,0.0,0.0,0.0,0.0,0.0,0.0,0.0,0.0,0.0,0.0,0.0,0.0,0.0,0.0,0.0,0.0,0.0,0.0,0.0,0.0,0.0,0.0,0.0,0.0,0.0,0.0,0.0,0.0,0.0,0.0,0.0,0.0,0.0,0.0,-0.6416,-0.6489,-0.743,-0.8133,-0.8648,-0.8525,-0.8545,-0.8643,-0.8279,-0.7527,0.0,0.0,0.0,0.0,0.0,0.0,0.0,0.0,0.0,0.0,0.0,0.0,0.0,0.0,0.0,0.0,0.0,0.0,0.0,0.0,0.0,0.0,0.0,0.0,0.0,0.0,0.0,0.0,-0.146,-0.1541,-0.1626,0.0,0.0,0.0,0.0,0.0,0.0,0.0,0.0,0.0,0.0,-0.525,-0.5931,-0.6778,0.0,0.0,-0.7445,-0.7169,-0.6558,-0.5869,-0.5136,-0.4499,-0.4058,0.0,0.0,0.0,0.0,0.0,0.0,0.0,0.0,0.0,0.0,0.0,0.0,0.0,0.0,0.0,0.0,0.0,0.0,0.0,0.0,0.0,0.0,0.0,0.0,0.0,0.0,0.0,0.0,0.0,0.0,0.0,0.0,0.0,0.0,0.0,0.0,0.0,0.0,0.0,0.0,0.0,0.0,0.0,0.0,0.0,0.0,0.0,0.0,0.0,0.0,0.0,0.0,-0.6445,-0.6513,-0.7425,-0.8107,-0.8516,-0.8313,-0.8268,-0.8369,-0.8009,-0.73,0.0,0.0,0.0,0.0,0.0,0.0,0.0,0.0,0.0,0.0,0.0,0.0,0.0,0.0,0.0,0.0,0.0,0.0,0.0,0.0,0.0,0.0,0.0,0.0,0.0,0.0,0.0,0.0,-0.1685,-0.1772,-0.1854,0.0,0.0,0.0,0.0,0.0,0.0,0.0,0.0,0.0,0.0,-0.536,-0.6176,-0.7274,-0.7976,-0.7868,-0.8087,-0.7881,-0.6867,-0.6217,-0.5651,-0.5038,0.0,0.0,0.0,0.0,0.0,0.0,0.0,0.0,0.0,0.0,0.0,0.0,0.0,0.0,0.0,0.0,0.0,0.0,0.0,0.0,0.0,0.0,0.0,0.0,0.0,0.0,0.0,0.0,0.0,0.0,-0.6617,0.0,0.0,0.0,0.0,0.0,0.0,0.0,0.0,0.0,0.0,0.0,0.0,0.0,0.0,0.0,0.0,0.0,0.0,0.0,0.0,0.0,0.0,-0.644,-0.6508,-0.743,-0.7971,-0.8103,-0.8169,-0.813,-0.7918,-0.7831,-0.7189,-0.5948,0.0,0.0,0.0,0.0,0.0,0.0,0.0,0.0,0.0,0.0,0.0,0.0,0.0,0.0,0.0,0.0,0.0,0.0,0.0,0.0,0.0,0.0,0.0,0.0,0.0,0.0,-0.1591,-0.201,-0.2276,0.0,0.0,0.0,0.0,0.0,0.0,0.0,0.0,0.0,0.0,-0.5245,-0.5933,-0.779,-0.8318,-0.8431,-0.8362,-0.8418,-0.8132,-0.7312,-0.6618,-0.6005,0.0,0.0,0.0,0.0,0.0,0.0,0.0,0.0,0.0,0.0,0.0,0.0,0.0,0.0,0.0,0.0,0.0,0.0,0.0,0.0,0.0,0.0,0.0,0.0,0.0,0.0,0.0,-0.8859,-0.7893,0.0,0.0,0.0,0.0,0.0,0.0,0.0,0.0,0.0,0.0,0.0,-0.8376,-0.9298,0.0,0.0,0.0,0.0,0.0,0.0,0.0,0.0,0.0,0.0,0.0,0.0,-0.6523,-0.6669,-0.7559,-0.8077,-0.8163,-0.8192,-0.8119,-0.7903,-0.785,-0.7189,-0.5884,0.0,0.0,0.0,0.0,0.0,0.0,0.0,0.0,0.0,0.0,0.0,0.0,0.0,0.0,0.0,0.0,0.0,0.0,0.0,0.0,0.0,0.0,0.0,0.0,0.0,-0.1716,0.0,0.0,0.0,0.0,0.0,0.0,0.0,0.0,0.0,0.0,0.0,-0.4082,-0.4651,-0.5804,-0.6733,-0.7056,-0.7933,-0.8537,0.0,0.0,0.0,0.0,0.0,0.0,0.0,0.0,0.0,0.0,0.0,0.0,0.0,0.0,-0.7985,-0.6908,-0.6757,-0.6763,-0.67,0.0,0.0,0.0,0.0,0.0,0.0,0.0,0.0,0.0,0.0,0.0,0.0,0.0,0.0,-1.0159,0.0,-0.9023,0.0,0.0,0.0,0.0,0.0,0.0,0.0,0.0,-0.9014,-0.9399,-0.9507,-1.043,-1.0638,0.0,-1.0433,-0.9498,0.0,0.0,0.0,0.0,0.0,0.0,0.0,0.0,-0.6631,-0.6936,-0.7727,-0.814,-0.8215,-0.821,-0.8143,-0.7966,-0.7682,-0.704,-0.5988,-0.5254,-0.4535,0.0,0.0,0.0,0.0,0.0,0.0,0.0,0.0,0.0,0.0,0.0,0.0,0.0,0.0,0.0,0.0,0.0,0.0,0.0,0.0,0.0,0.0,0.0,-0.205,0.0,0.0,0.0,0.0,0.0,0.0,0.0,0.0,0.0,-0.4044,-0.4413,-0.4759,-0.4862,-0.6276,-0.7199,-0.6832,0.0,0.0,0.0,0.0,0.0,0.0,0.0,-0.7196,-0.739,-0.7172,-0.733,-0.8383,-0.8707,-0.903,-0.9498,0.0,0.0,-0.7928,-0.77,-0.7726,-0.799,-0.7787,-0.7588,-0.7857,-0.8358,-0.8832,0.0,0.0,0.0,0.0,0.0,0.0,0.0,0.0,-1.1219,-1.1319,0.0,-1.0771,0.0,0.0,0.0,0.0,0.0,-0.885,0.0,0.0,-0.974,-1.031,-1.1315,-1.1882,-1.2137,-1.2222,-1.307,-1.2331,-1.0142,-0.8311,0.0,0.0,0.0,0.0,0.0,0.0,-0.6776,-0.7294,-0.7888,-0.8215,-0.8215,-0.8262,-0.8244,-0.8077,-0.7407,-0.6773,-0.6239,-0.5676,-0.4882,-0.3772,-0.3698,0.0,0.0,0.0,0.0,0.0,0.0,0.0,0.0,0.0,0.0,0.0,0.0,0.0,0.0,0.0,0.0,0.0,0.0,0.0,0.0,-0.164,0.0,0.0,0.0,0.0,0.0,0.0,0.0,0.0,0.0,0.0,-0.576,-0.5617,-0.5616,-0.5788,0.0,0.0,0.0,0.0,-0.853,-0.8748,-0.8808,-0.8707,-0.844,-0.8028,-0.774,-0.775,0.0,0.0,-0.9197,-0.9158,-0.911,-0.9505,-0.9464,-0.9361,-0.9221,-0.9156,-0.9314,-0.9779,-0.9432,-0.94,-0.9992,-1.0118,-1.0392,-1.4162,0.0,0.0,0.0,0.0,-1.3649,-1.3862,-1.43,-1.4188,-1.3801,-1.32,-1.2408,0.0,0.0,0.0,0.0,0.0,0.0,-1.0221,-1.0608,-1.0913,-1.1479,-1.2327,-1.279,-1.3001,-1.2951,-1.3198,-1.29,-1.204,-1.0491,-0.8657,-0.6634,0.0,0.0,0.0,0.0,-0.7271,-0.753,-0.8071,-0.8336,-0.8365,-0.8313,-0.8205,-0.7961,-0.7655,-0.7106,-0.6308,-0.5938,-0.5248,-0.4198,-0.3816,0.0,0.0,0.0,0.0,0.0,0.0,0.0,0.0,0.0,0.0,0.0,0.0,0.0,0.0,0.0,0.0,0.0,0.0,0.0,-0.1729,-0.2183,-0.2885,0.0,0.0,0.0,0.0,0.0,0.0,0.0,0.0,0.0,-0.7019,-0.6959,-0.6782,0.0,0.0,-0.8187,-0.7649,-0.8203,-0.8702,-0.8808,-0.8808,0.0,0.0,-0.842,-0.8245,-0.8438,-0.858,-0.8758,-0.9044,-0.9107,-0.918,-0.9438,-0.9456,-0.9413,-0.9488,-0.9539,-0.9682,-0.9959,-0.9922,-0.9919,-1.0189,-1.0535,-1.0852,-1.6991,-1.5639,-1.487,-1.4821,-1.5228,-1.513,-1.5304,-1.5665,-1.5516,-1.5197,-1.4779,-1.399,-1.3107,-1.2093,-1.1033,0.0,0.0,0.0,-1.159,-1.1964,-1.2221,-1.2674,-1.3206,-1.3503,-1.3682,-1.3775,-1.3726,-1.3425,-1.2955,-1.2216,-1.0606,-0.8293,0.0,0.0,-0.7049,-0.7587,-0.8121,-0.8567,-0.8915,-0.9004,-0.8767,-0.8465,-0.82,-0.7976,-0.7807,-0.7282,-0.6342,-0.6054,-0.5466,-0.4424,-0.4019,-0.378,0.0,0.0,0.0,0.0,0.0,0.0,0.0,0.0,0.0,0.0,0.0,-0.1237,-0.1353,0.0,0.0,0.0,-0.2409,-0.2851,-0.2611,-0.365,0.0,0.0,0.0,0.0,0.0,0.0,0.0,-0.6639,-0.6904,-0.7289,-0.7883,-0.7958,-0.7774,-0.7208,-0.8019,-0.8413,-0.7806,0.0,-0.8692,-0.8808,-0.8808,-0.8808,-0.8804,-0.8661,-0.8607,-0.8778,-0.8857,-0.8962,-0.8973,-0.9068,-0.9155,-0.9364,-0.9409,-0.9465,-0.9625,-0.9773,-0.9892,-1.0186,-1.0408,-1.0595,-1.087,-1.1245,-1.1621,-1.9685,-1.8675,-1.7097,-1.6332,-1.6092,-1.6038,-1.6001,-1.5989,-1.5795,-1.5904,-1.6188,-1.5509,-1.4611,-1.3553,-1.212,0.0,-1.2237,-1.275,-1.3204,-1.3513,-1.3572,-1.3789,-1.4113,-1.4105,-1.4241,-1.454,-1.4465,-1.4008,-1.3262,-1.3448,-1.2583,-1.0665,-0.9189,-0.8512,-0.8616,-0.8721,-0.9193,-1.0053,-1.0193,-0.9914,-0.9324,-0.8709,-0.828,-0.8121,-0.7889,-0.7355,-0.6352,-0.6121,-0.5546,-0.4567,-0.4321,-0.41,-0.3913,0.0,0.0,0.0,0.0,0.0,0.0,0.0,0.0,0.0,0.0,0.0,0.0,0.0,0.0,0.0,-0.4071,0.0,-0.3312,-0.5659,0.0,0.0,0.0,-0.651,-0.6643,-0.7251,-0.7605,-0.7514,0.0,0.0,-0.8483,-0.8642,-0.8511,-0.7691,-0.8153,-0.8336,-0.7861,-0.8218,-0.857,-0.8752,-0.8808,-0.8808,-0.8808,-0.8788,-0.8788,-0.8804,-0.8808,-0.8867,-0.893,-0.8973,-0.911,-0.9309,-0.9357,-0.9469,-0.974,-0.9932,-1.015,-1.0438,-1.0842,-1.125,-1.172,-1.215,-1.258,-2.1015,-2.0635,-2.0212,-1.9192,-1.7883,-1.7759,-1.7702,-1.7691,-1.7483,-1.7406,-1.7429,-1.6561,-1.5599,-1.4621,-1.4141,-1.3925,-1.392,-1.3946,-1.4217,-1.4611,-1.4475,-1.4652,-1.5118,-1.5,-1.4877,-1.4883,-1.4749,-1.448,-1.407,-1.3493,-1.2848,-1.2095,-1.1116,-1.0324,-0.9747,-0.9981,-1.0284,-1.0593,-1.0637,-1.0264,-0.95,-0.9199,-0.8771,-0.8202,-0.7966,-0.7437,-0.6499,-0.6245,-0.5676,-0.4715,-0.4403,-0.4195,-0.3997,-0.3464,0.0,0.0,0.0,0.0,0.0,0.0,0.0,0.0,0.0,-0.2193,-0.206,0.0,-0.2716,0.0,-0.3912,-0.4305,-0.4725,-0.6595,0.0,0.0,-0.7634,-0.7265,-0.79,-0.7995,-0.8186,-0.858,-0.8644,-0.8724,-0.8858,-0.88,-0.8748,-0.8511,-0.8629,-0.8685,-0.857,-0.8629,-0.8748,-0.8808,-0.8808,-0.8808,-0.8808,-0.8808,-0.8808,-0.8808,-0.8808,-0.8808,-0.8864,-0.8867,-0.8906,-0.9211,-0.926,-0.942,-0.9725,-1.0047,-1.0352,-1.0728,-1.1044,-1.1427,-1.1927,-1.2421,-1.2856,-2.1899,-2.1441,-2.1432,-2.0804,-1.9796,-1.9217,-1.8775,-1.8428,-1.8225,-1.8078,-1.7963,-1.7024,-1.6255,-1.5684,-1.5196,-1.503,-1.5176,-1.5027,-1.521,-1.5629,-1.5468,-1.5536,-1.5711,-1.5566,-1.5366,-1.5165,-1.5048,-1.4832,-1.4504,-1.3947,-1.3463,-1.3188,-1.2609,-1.2102,-1.1634,-1.133,-1.1349,-1.1652,-1.134,-1.0804,-1.0001,-0.9569,-0.8996,-0.826,-0.8023,-0.7437,-0.6499,-0.6318,-0.5787,-0.4838,-0.4479,-0.4256,-0.4134,-0.3716,-0.3363,0.0,0.0,0.0,0.0,0.0,0.0,0.0,0.0,0.0,0.0,0.0,-0.4119,-0.4775,-0.4961,-0.5318,-0.6031,-0.7506,-0.8704,-0.9333,-0.8699,-0.8349,-0.8727,-0.876,-0.8868,-0.9136,-0.898,-0.8926,-0.8988,-0.886,-0.8808,-0.8808,-0.8808,-0.8808,-0.8808,-0.8808,-0.8808,-0.8808,-0.8808,-0.8808,-0.8808,-0.8808,-0.8808,-0.8808,-0.8808,-0.8808,-0.8808,-0.8857,-0.8962,-0.9162,-0.926,-0.9417,-0.9777,-1.0095,-1.0454,-1.0897,-1.1301,-1.1719,-1.218,-1.2652,-1.3089,-2.2701,-2.1944,-2.1953,-2.1844,-2.1633,-2.0616,-1.9665,-1.8774,-1.8588,-1.8377,-1.8182,-1.727,-1.6847,-1.6731,-1.5874,-1.5767,-1.6167,-1.6032,-1.6131,-1.6429,-1.6382,-1.6219,-1.6032,-1.5906,-1.5712,-1.5455,-1.5291,-1.5048,-1.4763,-1.4479,-1.4196,-1.3941,-1.3701,-1.3547,-1.3467,-1.257,-1.2347,-1.2726,-1.2167,-1.147,-1.0694,-0.9917,-0.9139,-0.8373,-0.8001,-0.7355,-0.647,-0.6338,-0.5907,-0.5048,-0.4718,-0.4507,-0.4416,-0.4072,-0.3843,0.0,-0.4003,0.0,0.0,0.0,0.0,0.0,0.0,0.0,0.0,-0.5294,-0.6012,-0.6065,-0.6569,-0.6967,-0.7229,-0.8343,-0.9041,-0.9031,-0.9351,-0.9493,-0.9341,-0.942,-0.9464,-0.9414,-0.9256,-0.9162,-0.9064,-0.8906,-0.8808,-0.8808,-0.8808,-0.8808,-0.8808,-0.8808,-0.8808,-0.8808,-0.8808,-0.8808,-0.8808,-0.8808,-0.8808,-0.8808,-0.8808,-0.8808,-0.8808,-0.8906,-0.9057,-0.9155,-0.9316,-0.9573,-0.9951,-1.0213,-1.0569,-1.1078,-1.1628,-1.2076,-1.2471,-1.2934,-1.3409,-2.405,-2.3778,-2.3787,-2.3355,-2.2703,-2.2363,-2.1304,-1.9802,-1.9619,-1.9038,-1.827,-1.804,-1.7868,-1.7709,-1.7373,-1.7209,-1.7139,-1.6995,-1.6872,-1.6712,-1.6623,-1.6436,-1.6246,-1.6052,-1.5877,-1.5704,-1.5492,-1.5284,-1.5079,-1.4777,-1.4493,-1.4229,-1.4006,-1.3802,-1.3568,0.0,0.0,0.0,-1.2747,-1.2076,-1.1037,-1.0458,-0.9613,-0.8566,-0.7765,0.0,-0.6523,-0.6416,-0.6107,-0.5525,-0.5644,0.0,0.0,0.0,0.0,0.0,0.0,0.0,0.0,0.0,0.0,0.0,-0.5565,-0.5287,-0.5166,-0.6203,-0.6791,-0.6622,-0.7571,-0.8211,-0.8231,-0.8835,-0.9265,-0.9258,-0.9542,-0.974,-0.981,-0.9754,-0.9741,-0.9823,-0.9488,-0.9211,-0.9155,-0.8959,-0.8808,-0.8808,-0.8808,-0.8808,-0.8808,-0.8808,-0.8808,-0.8808,-0.8808,-0.8808,-0.8808,-0.8808,-0.8808,-0.8808,-0.8808,-0.8808,-0.8808,-0.891,-0.9061,-0.9211,-0.9413,-0.9729,-1.0181,-1.053,-1.0926,-1.1499,-1.199,-1.2466,-1.2681,-1.3266,-1.3805,-2.4538,0.0,-2.4454,-2.4152,0.0,-2.3585,-2.2575,-2.0933,-2.0262,-1.9388,-1.8459,-1.8402,-1.829,-1.8138,-1.7975,-1.7791,-1.7581,-1.7432,-1.7207,-1.6952,-1.6807,-1.6625,-1.6444,-1.6246,-1.608,-1.5926,-1.5733,-1.5492,-1.5291,-1.5048,-1.4808,-1.4493,-1.4312,-1.4118,-1.3888,-1.3722,-1.3452,-1.3163,-1.2943,-1.2274,-1.1105,-1.0625,-0.9811,-0.8588,0.0,0.0,0.0,0.0,0.0,0.0,0.0,0.0,0.0,0.0,0.0,-0.5267,-0.5653,-0.5922,-0.6006,-0.6435,-0.6671,-0.6661,-0.6943,-0.7074,-0.6942,-0.7138,-0.7368,-0.768,-0.8291,-0.8859,-0.9319,-0.953,-0.9701,-1.0013,-1.018,-1.0206,-1.0148,-1.0043,-1.0012,-0.9953,-0.9532,-0.9204,-0.9204,-0.8956,-0.8808,-0.8808,-0.8808,-0.8808,-0.8808,-0.8808,-0.8808,-0.8808,-0.8808,-0.8808,-0.8808,-0.8808,-0.8808,-0.8808,-0.8808,-0.8804,-0.891,-0.9008,-0.9159,-0.9364,-0.9621,-0.9947,-1.0423,-1.0824,-1.128,-1.1791,-1.2368,-1.2837,-1.3218,-1.3615,-1.4062,-2.4707,-2.4638,-2.4629,-2.4571,-2.445,-2.4393,-2.3424,-2.1812,0.0,0.0,0.0,-1.8642,-1.8536,-1.8351,-1.822,-1.8052,-1.7839,-1.7641,-1.7439,-1.7175,-1.7019,-1.6858,-1.6667,-1.6429,-1.6266,-1.6123,-1.5962,-1.5733,-1.5485,-1.5328,-1.5086,-1.4794,-1.4588,-1.4383,-1.4196,-1.3828,-1.3527,-1.326,-1.3053,-1.2341,-1.1142,-1.0731,-0.9914,-0.8589,-0.8245,-0.7832,-0.7346,-0.7261,-0.7044,-0.6666,-0.6447,-0.6291,-0.6225,-0.6216,-0.6221,-0.6239,-0.678,-0.6984,-0.6695,-0.7267,-0.754,-0.7274,-0.7773,-0.8192,-0.844,-0.8015,-0.8026,-0.8736,-0.8849,-0.925,-1.0219,-1.0213,-1.029,-1.0768,-1.084,-1.0721,-1.045,-1.0338,-1.0249,-1.0003,-0.9524,-0.9204,-0.9211,-0.8956,-0.8808,-0.8808,-0.8808,-0.8808,-0.8808,-0.8808,-0.8808,-0.8808,-0.8808,-0.8808,-0.8808,-0.8808,-0.8808,-0.8808,-0.8804,-0.8857,-0.8956,-0.911,-0.9316,-0.9514,-0.9836,-1.0201,-1.0663,-1.107,-1.1569,-1.2107,-1.2686,-1.3208,-1.3763,-1.4051,-1.4291,-2.4818,-2.4774,-2.4774,-2.4738,-2.466,-2.4589,-2.3533,-2.1782,-2.0071,-1.9142,-1.886,-1.887,-1.8752,-1.8547,-1.8417,-1.8258,-1.8048,-1.791,-1.7687,-1.7447,-1.7264,-1.7052,-1.6858,-1.6659,-1.6455,-1.6274,-1.6123,-1.5955,-1.5741,-1.5485,-1.5277,-1.5124,-1.4871,-1.455,-1.4203,-1.3914,-1.3674,-1.3452,-1.3232,-1.2545,-1.1474,-1.0937,-1.0091,-0.8894,-0.8037,-0.7539,-0.7378,-0.7331,-0.7248,-0.7197,-0.749,-0.7464,-0.706,-0.7019,-0.7035,-0.7045,-0.7135,-0.7343,-0.7654,-0.7757,-0.7955,-0.8327,-0.8211,-0.8169,-0.8308,-0.8729,-0.9031,-0.9226,-0.9429,-0.9788,-1.0316,-1.0606,-1.0824,-1.097,-1.1239,-1.121,-1.0697,-1.0513,-1.0312,-1.0051,-0.9521,-0.9204,-0.9155,-0.8959,-0.8808,-0.8808,-0.8808,-0.8808,-0.8808,-0.8808,-0.8808,-0.8808,-0.8808,-0.8808,-0.8808,-0.8808,-0.8808,-0.8808,-0.8906,-0.8962,-0.9008,-0.9211,-0.9413,-0.9566,-0.9991,-1.0407,-1.0799,-1.1309,-1.1841,-1.2444,-1.2986,-1.351,-1.4041,-1.4455,-1.4817,-2.4968,-2.4902,-2.4911,-2.4865,-2.4732,-2.3769,-2.2839,-2.186,-2.0166,-1.9289,-1.9076,-1.9036,-1.8914,-1.8752,-1.8593,-1.841,-1.824,-1.8078,-1.7892,-1.765,-1.7447,-1.7248,-1.7002,-1.6817,-1.6651,-1.6455,-1.6274,-1.6123,-1.597,-1.5733,-1.5529,-1.5314,-1.4949,-1.4606,-1.4254,-1.4026,-1.3782,-1.3547,-1.3295,-1.2709,-1.18,-1.1143,-1.034,-0.9351,-0.8508,-0.8079,-0.7992,-0.7861,-0.7789,-0.7789,-0.7849,-0.7803,-0.7589,-0.7575,-0.758,-0.758,-0.7584,-0.7692,-0.7883,-0.8128,-0.8333,-0.8595,-0.8865,-0.9058,-0.9126,-0.9214,-0.9413,-0.9682,-0.997,-1.0311,-1.0707,-1.1095,-1.1336,-1.1381,-1.1513,-1.1405,-1.0905,-1.0608,-1.0368,-0.9995,-0.9521,-0.9208,-0.9204,-0.8959,-0.8808,-0.8808,-0.8808,-0.8808,-0.8808,-0.8808,-0.8808,-0.8808,-0.8808,-0.8808,-0.8808,-0.8808,-0.8808,-0.8808,-0.891,-0.9012,-0.911,-0.9312,-0.9618,-0.994,-1.0364,-1.0765,-1.1255,-1.1769,-1.23,-1.2808,-1.3341,-1.3858,-1.4373,-1.492,-1.5334,-2.5094,-2.5043,-2.5043,-2.5,-2.4755,-2.3082,-2.2266,-2.1985,-2.0355,-1.9493,-1.9289,-1.9195,-1.9079,-1.8932,-1.8752,-1.8584,-1.8428,-1.8243,-1.8023,-1.7833,-1.765,-1.7407,-1.7175,-1.701,-1.6858,-1.6651,-1.6455,-1.6274,-1.6123,-1.5955,-1.5697,-1.5389,-1.5034,-1.47,-1.4351,-1.4163,-1.3941,-1.3655,-1.3397,-1.2895,-1.2058,-1.1326,-1.0548,-0.9803,-0.9079,-0.8656,-0.8544,-0.8363,-0.8272,-0.8249,-0.8109,-0.8013,-0.8003,-0.8008,-0.8008,-0.8003,-0.8013,-0.8008,-0.801,-0.841,-0.8709,-0.8793,-0.9441,-0.9855,-0.9913,-0.9763,-0.9743,-1.0049,-1.0471,-1.0789,-1.1039,-1.1528,-1.1794,-1.1733,-1.1669,-1.1477,-1.0972,-1.0667,-1.0364,-0.9999,-0.9573,-0.9256,-0.9159,-0.9008,-0.8857,-0.8808,-0.8808,-0.8808,-0.8808,-0.8808,-0.8808,-0.8857,-0.8804,-0.8808,-0.8808,-0.8857,-0.8857,-0.886,-0.9012,-0.9162,-0.9316,-0.9517,-0.9829,-1.0205,-1.062,-1.107,-1.1569,-1.2116,-1.2652,-1.3165,-1.371,-1.4249,-1.4789,-1.5249,-1.562,-2.5241,-2.518,-2.5177,-2.5108,-2.481,-2.319,-2.2413,-2.2058,-2.0429,-1.9651,-1.955,-1.9363,-1.9212,-1.907,-1.8941,-1.8752,-1.8584,-1.8371,-1.8163,-1.7974,-1.7772,-1.7564,-1.7361,-1.7183,-1.7027,-1.6876,-1.6659,-1.6448,-1.6301,-1.6151,-1.5826,-1.5411,-1.5111,-1.4821,-1.4501,-1.4337,-1.4098,-1.3775,-1.3655,-1.3117,-1.2207,-1.147,-1.0707,-0.9986,-0.9328,-0.8867,-0.8706,-0.8544,-0.8471,-0.8471,-0.8393,-0.8354,-0.8354,-0.8354,-0.8354,-0.8354,-0.8359,-0.8331,-0.8293,-0.8671,-0.904,-0.9309,-0.9737,-1.011,-1.0299,-1.0316,-1.0297,-1.0356,-1.0751,-1.1082,-1.1238,-1.1794,-1.2043,-1.1746,-1.1723,-1.1473,-1.1023,-1.0667,-1.0368,-1.0047,-0.9629,-0.9309,-0.9211,-0.9061,-0.891,-0.8808,-0.8808,-0.8804,-0.8808,-0.8808,-0.8857,-0.8906,-0.886,-0.8811,-0.8808,-0.8906,-0.8956,-0.9012,-0.9211,-0.9361,-0.9517,-0.9681,-0.9951,-1.0411,-1.0773,-1.1179,-1.1673,-1.217,-1.2793,-1.3467,-1.3999,-1.461,-1.5193,-1.5468,-1.557,-2.5351,-2.5303,-2.5273,-2.5209,-2.4886,-2.3272,-2.2507,-2.2234,-2.0524,-1.9713,-1.9651,-1.9531,-1.9369,-1.9144,-1.9028,-1.8878,-1.8715,-1.8561,-1.8374,-1.8163,-1.7971,-1.778,-1.7581,-1.7384,-1.7175,-1.7027,-1.6842,-1.6678,-1.6448,-1.6234,-1.5883,-1.5536,-1.5329,-1.5058,-1.4749,-1.4529,-1.4273,-1.4046,-1.3835,-1.3484,-1.2929,-1.2089,-1.1335,-1.0665,-0.9962,-0.9379,-0.8972,-0.8778,-0.8673,-0.8617,-0.8561,-0.8505,-0.8533,-0.8533,-0.8505,-0.85,-0.8483,-0.8572,-0.8821,-0.9218,-0.9602,-0.9965,-1.0329,-1.0552,-1.0639,-1.05,-1.0385,-1.0449,-1.0956,-1.1474,-1.1681,-1.2134,-1.2278,-1.1977,-1.1778,-1.1519,-1.107,-1.0777,-1.0466,-1.0051,-0.9729,-0.9409,-0.9211,-0.9008,-0.8857,-0.8808,-0.8808,-0.8804,-0.891,-0.8966,-0.9015,-0.9113,-0.9068,-0.9022,-0.9064,-0.9054,-0.911,-0.9162,-0.926,-0.9462,-0.9618,-0.9903,-1.0232,-1.0671,-1.1036,-1.149,-1.213,-1.2603,-1.3122,-1.3758,-1.4471,-1.5074,-1.5351,-1.5525,-1.557,-2.5418,-2.543,-2.535,-2.5283,-2.5064,-2.3363,-2.2591,-2.2303,-2.0618,-1.9818,-1.9717,-1.966,-1.9517,-1.928,-1.9119,-1.8975,-1.8815,-1.8667,-1.8502,-1.8328,-1.8134,-1.7944,-1.7741,-1.7581,-1.7376,-1.7199,-1.7019,-1.6825,-1.6588,-1.6301,-1.6004,-1.5718,-1.5544,-1.5314,-1.4987,-1.4742,-1.449,-1.4268,-1.4,-1.3815,-1.3502,-1.2824,-1.2101,-1.1404,-1.0558,-0.9885,-0.9404,-0.9105,-0.891,-0.8833,-0.8767,-0.8745,-0.8739,-0.8739,-0.8717,-0.8712,-0.8672,-0.8841,-0.9264,-0.9653,-1.0038,-1.0453,-1.0788,-1.0893,-1.0812,-1.0611,-1.056,-1.0661,-1.1217,-1.1714,-1.1834,-1.2268,-1.2358,-1.2126,-1.1868,-1.1573,-1.1171,-1.0926,-1.0569,-1.0158,-0.984,-0.9573,-0.9312,-0.9061,-0.8917,-0.8913,-0.8864,-0.8917,-0.9015,-0.912,-0.9169,-0.9211,-0.9285,-0.9292,-0.9215,-0.9211,-0.9263,-0.9368,-0.9469,-0.9625,-0.9773,-1.0169,-1.0498,-1.0926,-1.1398,-1.1855,-1.2332,-1.2847,-1.351,-1.415,-1.4765,-1.5261,-1.5306,-1.5486,-1.5441,-2.5492,-2.5488,-2.5411,-2.536,-2.5149,-2.3467,-2.2679,-2.2492,-2.0777,-1.9947,-1.9806,-1.9707,-1.9624,-1.9466,-1.928,-1.9102,-1.8904,-1.8698,-1.8517,-1.8385,-1.8256,-1.807,-1.7892,-1.7763,-1.7572,-1.7376,-1.7199,-1.6926,-1.6607,-1.6394,-1.6191,-1.5975,-1.5718,-1.5463,-1.5201,-1.4994,-1.47,-1.4415,-1.4268,-1.404,-1.3808,-1.3555,-1.2981,-1.2181,-1.0991,-1.0328,-1.0081,-0.9576,-0.9259,-0.919,-0.9108,-0.9059,-0.9087,-0.9087,-0.9032,-0.8988,-0.8961,-0.9153,-0.956,-0.986,-1.0239,-1.071,-1.0973,-1.1033,-1.0926,-1.0812,-1.0811,-1.1024,-1.1382,-1.166,-1.1556,-1.2134,-1.2412,-1.218,-1.1868,-1.1573,-1.1322,-1.0922,-1.0616,-1.0312,-0.9951,-0.9629,-0.9417,-0.9159,-0.9068,-0.9131,-0.9088,-0.9039,-0.9131,-0.9222,-0.9263,-0.9424,-0.9494,-0.9508,-0.9271,-0.9372,-0.9476,-0.958,-0.9736,-0.9899,-1.0209,-1.0573,-1.0824,-1.1175,-1.1569,-1.2017,-1.2471,-1.305,-1.381,-1.4389,-1.4903,-1.5261,-1.5255,-1.53,-1.5255,-2.5547,-2.5502,-2.5472,-2.5423,-2.5235,-2.4091,-2.3247,-2.2555,-2.1366,-2.0493,-1.9979,-1.9818,-1.9719,-1.9624,-1.9404,-1.9212,-1.9024,-1.8878,-1.8698,-1.8535,-1.8336,-1.8201,-1.8078,-1.7869,-1.7726,-1.7572,-1.7384,-1.7134,-1.6807,-1.6617,-1.6421,-1.6211,-1.6004,-1.5762,-1.547,-1.5238,-1.4987,-1.4732,-1.4497,-1.4298,-1.4138,-1.3941,-1.3631,-1.3252,-1.1926,-1.0936,-1.0487,-0.9879,-0.9499,-0.9384,-0.9345,-0.9357,-0.9357,-0.9319,-0.9286,-0.9259,-0.919,-0.9442,-1.006,-1.0217,-1.0554,-1.1162,-1.1308,-1.126,-1.1077,-1.0947,-1.0846,-1.0904,-1.1355,-1.1591,-1.1684,-1.2176,-1.249,-1.2328,-1.1981,-1.1682,-1.1423,-1.1074,-1.0722,-1.0411,-0.9995,-0.9569,-0.9413,-0.9204,-0.9166,-0.9187,-0.9131,-0.918,-0.9337,-0.9413,-0.9499,-0.9625,-0.9747,-0.9855,-0.9955,-0.9795,-0.9847,-0.9892,-0.9995,-1.0205,-1.0466,-1.0769,-1.1074,-1.1523,-1.1859,-1.2297,-1.2836,-1.3465,-1.4141,-1.4426,-1.4942,-1.4991,-1.521,-1.4996,-1.4998,-2.5595,-2.5544,-2.5543,-2.5488,-2.5313,-2.4509,-2.359,-2.2671,-2.1761,-2.0871,-2.0132,-1.9892,-1.9788,-1.9707,-1.9541,-1.9356,-1.9187,-1.9007,-1.8825,-1.8696,-1.8487,-1.8336,-1.8227,-1.8027,-1.7847,-1.7726,-1.7494,-1.7256,-1.6994,-1.6842,-1.6651,-1.6402,-1.6238,-1.6032,-1.5755,-1.5514,-1.5314,-1.5058,-1.4797,-1.461,-1.444,-1.4259,-1.4123,-1.3893,-1.2821,-1.1801,-1.1074,-1.0443,-0.995,-0.9715,-0.9638,-0.9611,-0.9591,-0.9573,-0.952,-0.9473,-0.9532,-0.9851,-1.0504,-1.0658,-1.0991,-1.1592,-1.156,-1.141,-1.1201,-1.1066,-1.086,-1.0787,-1.1145,-1.152,-1.1734,-1.228,-1.2628,-1.2452,-1.2085,-1.1791,-1.1573,-1.1221,-1.0875,-1.0514,-0.9995,-0.9681,-0.9524,-0.9361,-0.9319,-0.9382,-0.9316,-0.9361,-0.9573,-0.9718,-0.9803,-0.9943,-1.0114,-1.0272,-1.0364,-1.0352,-1.0304,-1.0352,-1.0403,-1.0561,-1.0769,-1.107,-1.1423,-1.1819,-1.2272,-1.2696,-1.3256,-1.3863,-1.4169,-1.4367,-1.438,-1.4376,-1.4508,-1.4589,-1.4484,-2.5657,-2.5596,-2.5603,-2.5554,-2.5385,-2.4658,-2.3713,-2.2846,-2.1969,-2.1101,-2.0327,-1.9988,-1.9862,-1.9797,-1.9681,-1.9537,-1.9365,-1.915,-1.8984,-1.8861,-1.8666,-1.8502,-1.8307,-1.8218,-1.8027,-1.7811,-1.7542,-1.7361,-1.7199,-1.7027,-1.6817,-1.6623,-1.649,-1.6274,-1.6004,-1.5811,-1.5609,-1.5389,-1.5127,-1.4966,-1.4794,-1.4617,-1.4483,-1.436,-1.3745,-1.2887,-1.1929,-1.1275,-1.0648,-1.0078,-0.9963,-0.988,-0.9834,-0.9808,-0.9756,-0.9711,-1.0008,-1.0451,-1.0847,-1.113,-1.1463,-1.1871,-1.1728,-1.1485,-1.1346,-1.1195,-1.0952,-1.073,-1.097,-1.1303,-1.1688,-1.2297,-1.272,-1.2521,-1.213,-1.1877,-1.1673,-1.1473,-1.107,-1.0565,-1.0102,-0.9855,-0.9744,-0.9629,-0.9521,-0.9666,-0.9599,-0.954,-0.9862,-1.0064,-1.023,-1.0312,-1.0478,-1.0683,-1.0769,-1.0854,-1.0858,-1.0858,-1.0913,-1.1019,-1.1226,-1.1477,-1.1823,-1.2255,-1.2575,-1.2966,-1.3009,-1.3575,-1.3673,-1.3831,-1.3802,-1.3875,-1.399,-1.4034,-1.3788,-2.5697,-2.5671,-2.5605,-2.559,-2.5531,-2.5234,-2.4576,-2.3712,-2.2805,-2.1881,-2.1052,-2.0336,-1.9978,-1.9881,-1.9782,-1.9664,-1.9518,-1.9357,-1.9161,-1.8984,-1.877,-1.861,-1.8502,-1.8345,-1.8159,-1.7961,-1.7749,-1.7612,-1.7455,-1.728,-1.7076,-1.6892,-1.6746,-1.6543,-1.6289,-1.6163,-1.5996,-1.5755,-1.5529,-1.5337,-1.5149,-1.5041,-1.4887,-1.4749,-1.4536,-1.3873,-1.2649,-1.1804,-1.1018,-1.03,-1.0236,-1.0199,-1.0097,-1.0034,-0.9951,-0.9884,-1.0242,-1.0626,-1.0971,-1.134,-1.1728,-1.1957,-1.1839,-1.1639,-1.1427,-1.1276,-1.099,-1.0695,-1.0975,-1.1339,-1.162,-1.1997,-1.2333,-1.2482,-1.2224,-1.1977,-1.1823,-1.1519,-1.107,-1.062,-1.0364,-1.0209,-0.9999,-0.984,-0.9836,-0.9928,-0.985,-0.9883,-1.0163,-1.0407,-1.0505,-1.0659,-1.0871,-1.1082,-1.1221,-1.1364,-1.1464,-1.1414,-1.1469,-1.1473,-1.1678,-1.1972,-1.2318,-1.2556,-1.2874,-1.3045,-1.3065,-1.3191,-1.3342,-1.3422,-1.3529,-1.357,-1.3593,-1.3466,-1.3277,-2.5695,-2.5703,-2.5642,-2.5642,-2.5624,-2.555,-2.5053,-2.4167,-2.3234,-2.2341,-2.1466,-2.0535,-2.0079,-1.9969,-1.9889,-1.9779,-1.9668,-1.9513,-1.9332,-1.9135,-1.8905,-1.8752,-1.8619,-1.8417,-1.8234,-1.807,-1.7931,-1.7811,-1.7704,-1.7526,-1.7328,-1.7183,-1.7035,-1.6849,-1.6623,-1.6501,-1.6348,-1.6136,-1.5924,-1.5739,-1.558,-1.5448,-1.5314,-1.5186,-1.514,-1.4572,-1.352,-1.2673,-1.1727,-1.0807,-1.0516,-1.0418,-1.0331,-1.0211,-1.0129,-1.0154,-1.0581,-1.1,-1.1185,-1.1721,-1.2105,-1.2164,-1.1985,-1.1745,-1.1533,-1.1341,-1.1061,-1.083,-1.0858,-1.1085,-1.1359,-1.167,-1.1969,-1.2292,-1.2239,-1.2116,-1.1927,-1.1573,-1.1221,-1.0867,-1.0675,-1.0466,-1.0308,-1.0213,-1.0213,-1.0201,-1.0049,-1.0136,-1.0474,-1.0834,-1.1002,-1.1162,-1.1322,-1.1528,-1.1673,-1.1873,-1.2026,-1.2022,-1.2017,-1.2022,-1.2076,-1.2456,-1.2837,-1.2831,-1.3054,-1.2861,-1.2894,-1.2988,-1.3134,-1.3208,-1.3173,-1.3021,-1.2933,-1.2941,-1.2777,-2.5701,-2.5699,-2.5693,-2.5697,-2.5694,-2.5628,-2.5167,-2.4327,-2.3331,-2.2465,-2.1654,-2.0658,-2.017,-2.0079,-1.997,-1.9879,-1.9779,-1.9609,-1.9471,-1.9332,-1.9143,-1.8913,-1.8724,-1.8478,-1.8316,-1.8206,-1.8091,-1.7996,-1.7905,-1.7718,-1.7604,-1.7494,-1.7328,-1.7134,-1.6985,-1.6817,-1.667,-1.6493,-1.634,-1.6156,-1.6017,-1.5839,-1.5689,-1.5624,-1.5551,-1.5175,-1.442,-1.3578,-1.2503,-1.1155,-1.0729,-1.0583,-1.0492,-1.0399,-1.0299,-1.0231,-1.1026,-1.134,-1.1585,-1.2152,-1.2531,-1.2389,-1.2071,-1.1847,-1.1671,-1.1384,-1.1104,-1.0893,-1.0743,-1.0769,-1.1129,-1.1374,-1.1689,-1.1961,-1.2195,-1.2157,-1.1932,-1.1569,-1.1368,-1.1221,-1.0972,-1.0773,-1.0722,-1.0632,-1.0636,-1.0616,-1.0407,-1.061,-1.1002,-1.1372,-1.1637,-1.1791,-1.1837,-1.1986,-1.2189,-1.2372,-1.252,-1.2603,-1.2598,-1.2652,-1.2536,-1.2883,-1.3094,-1.3123,-1.299,-1.2811,-1.2698,-1.2792,-1.2779,-1.2721,-1.2598,-1.234,-1.2381,-1.2526,-1.2516,-2.5693,-2.5693,-2.57,-2.5693,-2.5695,-2.5678,-2.5533,-2.506,-2.3611,-2.2804,-2.2259,-2.0933,-2.0236,-2.0169,-2.0089,-1.9978,-1.9879,-1.977,-1.9609,-1.9485,-1.9359,-1.9126,-1.8852,-1.8622,-1.8496,-1.8394,-1.8284,-1.8175,-1.8103,-1.7957,-1.7856,-1.7794,-1.7595,-1.744,-1.7297,-1.715,-1.7002,-1.685,-1.6686,-1.6546,-1.6429,-1.6266,-1.6128,-1.6037,-1.596,-1.5558,-1.4776,-1.356,-1.2434,-1.1338,-1.0998,-1.0849,-1.0729,-1.0639,-1.0505,-1.0521,-1.121,-1.1689,-1.1684,-1.2301,-1.2643,-1.2473,-1.2138,-1.1853,-1.1714,-1.1378,-1.1136,-1.0926,-1.0741,-1.0719,-1.1024,-1.1109,-1.1397,-1.1894,-1.2186,-1.225,-1.2076,-1.1877,-1.1673,-1.1469,-1.1322,-1.1272,-1.1175,-1.1133,-1.1137,-1.112,-1.1137,-1.1166,-1.1569,-1.19,-1.2203,-1.2252,-1.2346,-1.2499,-1.2646,-1.2876,-1.3055,-1.3084,-1.3223,-1.3409,-1.3214,-1.3176,-1.3231,-1.3223,-1.2903,-1.2675,-1.2531,-1.2479,-1.2401,-1.249,-1.2478,-1.2467,-1.2401,-1.2477,-1.2411,-2.5701,-2.5693,-2.5693,-2.5693,-2.5699,-2.5701,-2.5683,-2.5307,-2.3823,-2.3004,-2.2567,-2.1111,-2.0296,-2.0223,-2.017,-2.0089,-1.9971,-1.9891,-1.9751,-1.9619,-1.9467,-1.9236,-1.8992,-1.8798,-1.8678,-1.8573,-1.8478,-1.8408,-1.8348,-1.8222,-1.8108,-1.8057,-1.7875,-1.7749,-1.7675,-1.7511,-1.7361,-1.7224,-1.7052,-1.6934,-1.6763,-1.6659,-1.652,-1.644,-1.6351,-1.5968,-1.5093,-1.4215,-1.3058,-1.1802,-1.1254,-1.1085,-1.0968,-1.0825,-1.0747,-1.0799,-1.1559,-1.1921,-1.2046,-1.2543,-1.2766,-1.2562,-1.2216,-1.1932,-1.1697,-1.1442,-1.1185,-1.1056,-1.0817,-1.0796,-1.0924,-1.0999,-1.131,-1.1836,-1.2204,-1.232,-1.2246,-1.213,-1.2022,-1.1868,-1.1769,-1.1728,-1.1632,-1.1641,-1.1641,-1.1673,-1.1769,-1.1832,-1.2067,-1.2396,-1.2661,-1.2695,-1.2798,-1.2949,-1.308,-1.3301,-1.3541,-1.3621,-1.3884,-1.4071,-1.3702,-1.3429,-1.3272,-1.3157,-1.2856,-1.2623,-1.2566,-1.2538,-1.2615,-1.2656,-1.2644,-1.2644,-1.2585,-1.2556,-1.2508,-2.5694,-2.5697,-2.5693,-2.5701,-2.5693,-2.5692,-2.5694,-2.5374,-2.3848,-2.3061,-2.263,-2.1171,-2.0392,-2.0291,-2.0233,-2.0168,-2.0098,-1.9981,-1.9879,-1.9748,-1.9578,-1.9368,-1.9193,-1.8999,-1.8878,-1.877,-1.866,-1.8622,-1.8582,-1.8419,-1.8339,-1.8299,-1.8184,-1.8095,-1.7979,-1.7892,-1.7741,-1.7572,-1.7455,-1.7297,-1.7117,-1.7035,-1.6926,-1.6791,-1.6696,-1.6261,-1.562,-1.5054,-1.4137,-1.2,-1.1605,-1.1438,-1.1303,-1.1002,-1.1146,-1.1502,-1.1909,-1.2312,-1.2513,-1.2841,-1.2974,-1.2692,-1.2371,-1.2071,-1.1785,-1.1511,-1.1346,-1.1185,-1.0942,-1.081,-1.0804,-1.1015,-1.1341,-1.1774,-1.2133,-1.2339,-1.2513,-1.2452,-1.2323,-1.2323,-1.2224,-1.218,-1.2194,-1.2217,-1.2185,-1.2229,-1.2281,-1.2428,-1.2598,-1.2866,-1.3022,-1.3109,-1.3225,-1.3352,-1.3561,-1.3721,-1.3968,-1.4156,-1.4507,-1.4614,-1.3993,-1.3687,-1.3402,-1.3157,-1.2961,-1.2842,-1.2829,-1.2844,-1.2902,-1.2902,-1.2937,-1.2908,-1.2879,-1.2844,-1.2803,-2.5634,-2.5618,-2.5668,-2.5695,-2.5694,-2.5701,-2.5693,-2.5549,-2.3864,-2.3086,-2.2662,-2.1191,-2.0453,-2.0363,-2.0301,-2.025,-2.0168,-2.0079,-1.999,-1.9882,-1.9776,-1.9628,-1.9475,-1.9252,-1.9102,-1.9001,-1.8896,-1.8852,-1.8797,-1.8678,-1.8585,-1.8528,-1.8448,-1.8348,-1.8237,-1.8116,-1.7997,-1.7892,-1.7772,-1.7635,-1.7496,-1.7369,-1.728,-1.7142,-1.7027,-1.6522,-1.587,-1.5515,-1.4856,-1.382,-1.2929,-1.2247,-1.1726,-1.1705,-1.1836,-1.2,-1.2477,-1.2797,-1.2813,-1.2952,-1.3002,-1.2786,-1.2437,-1.2102,-1.1878,-1.1617,-1.1416,-1.1223,-1.1012,-1.0855,-1.0777,-1.1009,-1.1262,-1.1546,-1.1858,-1.2332,-1.2929,-1.2816,-1.2618,-1.2622,-1.2578,-1.2627,-1.2671,-1.27,-1.2705,-1.2779,-1.2847,-1.2977,-1.318,-1.3344,-1.3483,-1.3573,-1.3726,-1.3847,-1.3973,-1.4233,-1.4477,-1.4601,-1.4926,-1.4954,-1.4358,-1.393,-1.3658,-1.3356,-1.3113,-1.308,-1.3066,-1.3192,-1.3248,-1.3226,-1.3232,-1.3192,-1.3192,-1.3157,-1.3157,-2.5549,-2.5545,-2.5628,-2.5655,-2.5661,-2.5695,-2.5698,-2.5352,-2.3856,-2.3106,-2.2715,-2.1211,-2.0472,-2.0448,-2.0385,-2.0314,-2.0248,-2.0142,-2.006,-1.9986,-1.99,-1.979,-1.9745,-1.9564,-1.9411,-1.9257,-1.9141,-1.9075,-1.9018,-1.8922,-1.8843,-1.8753,-1.8705,-1.8593,-1.8469,-1.8362,-1.8261,-1.8163,-1.807,-1.794,-1.7803,-1.7712,-1.7581,-1.7455,-1.728,-1.6914,-1.6508,-1.628,-1.5741,-1.5017,-1.4283,-1.3381,-1.2461,-1.2481,-1.2587,-1.2705,-1.2889,-1.3207,-1.322,-1.32,-1.3129,-1.2891,-1.2514,-1.2246,-1.1999,-1.1728,-1.1528,-1.1341,-1.1179,-1.0985,-1.0914,-1.102,-1.1211,-1.1349,-1.1639,-1.2131,-1.2505,-1.2635,-1.2767,-1.288,-1.2997,-1.3045,-1.3109,-1.3172,-1.3215,-1.3238,-1.3275,-1.3407,-1.3615,-1.3821,-1.3957,-1.4093,-1.4239,-1.4378,-1.4466,-1.4697,-1.5034,-1.5089,-1.5192,-1.5022,-1.4571,-1.4223,-1.3913,-1.3599,-1.3262,-1.3333,-1.335,-1.3493,-1.3567,-1.358,-1.3546,-1.3539,-1.3499,-1.3506,-1.3539,-2.5478,-2.5485,-2.5554,-2.5591,-2.5623,-2.5675,-2.5581,-2.5228,-2.3797,-2.2998,-2.2609,-2.1165,-2.05,-2.049,-2.0454,-2.0392,-2.0311,-2.0198,-2.0124,-2.0088,-2.002,-1.9959,-1.9913,-1.9821,-1.9684,-1.9466,-1.935,-1.9289,-1.9223,-1.9161,-1.9069,-1.8966,-1.8949,-1.8834,-1.8688,-1.8623,-1.8538,-1.8371,-1.833,-1.8229,-1.8074,-1.804,-1.7914,-1.7689,-1.7557,-1.7392,-1.7149,-1.6946,-1.6588,-1.5959,-1.5655,-1.4798,-1.3895,-1.3381,-1.3465,-1.3596,-1.3605,-1.3576,-1.3585,-1.3482,-1.326,-1.2974,-1.2668,-1.2401,-1.2155,-1.1912,-1.1714,-1.1533,-1.1335,-1.1179,-1.1185,-1.1238,-1.1232,-1.1318,-1.1634,-1.1792,-1.1931,-1.2289,-1.2644,-1.3096,-1.3353,-1.3478,-1.3568,-1.3668,-1.371,-1.3737,-1.3767,-1.3823,-1.4086,-1.4296,-1.4419,-1.4558,-1.4656,-1.4886,-1.4971,-1.5238,-1.5537,-1.5522,-1.5513,-1.5174,-1.4841,-1.4582,-1.4241,-1.3677,-1.3423,-1.3554,-1.3682,-1.3795,-1.3874,-1.3854,-1.3888,-1.3874,-1.3874,-1.3888,-1.3914,-2.5422,-2.543,-2.5495,-2.556,-2.5599,-2.562,-2.5245,-2.4503,-2.3568,-2.2681,-2.1943,-2.0978,-2.0511,-2.0497,-2.0488,-2.0444,-2.0361,-2.0282,-2.024,-2.0211,-2.0151,-2.0116,-2.006,-2.0001,-1.9907,-1.9774,-1.9615,-1.9499,-1.9437,-1.9362,-1.9289,-1.9184,-1.9135,-1.9034,-1.8895,-1.8834,-1.8753,-1.8576,-1.8547,-1.845,-1.8307,-1.8225,-1.815,-1.7914,-1.7825,-1.7695,-1.7526,-1.7352,-1.7085,-1.679,-1.6511,-1.6105,-1.5438,-1.4721,-1.4414,-1.4382,-1.4277,-1.4097,-1.3907,-1.3648,-1.3391,-1.3129,-1.285,-1.2597,-1.2371,-1.215,-1.1918,-1.1671,-1.1491,-1.1298,-1.1126,-1.1325,-1.1394,-1.1464,-1.1583,-1.1855,-1.2223,-1.2424,-1.2552,-1.3041,-1.3457,-1.3904,-1.3918,-1.4,-1.4136,-1.4198,-1.4326,-1.4391,-1.4571,-1.4794,-1.4926,-1.5017,-1.5119,-1.53,-1.5525,-1.5792,-1.6057,-1.591,-1.5773,-1.5427,-1.5143,-1.4941,-1.4549,-1.3972,-1.3782,-1.3875,-1.4013,-1.4124,-1.4164,-1.4196,-1.4203,-1.421,-1.4242,-1.4242,-1.4261,-2.5293,-2.5293,-2.5393,-2.5466,-2.5502,-2.5541,-2.508,-2.4273,-2.3472,-2.2615,-2.1763,-2.0957,-2.052,-2.0508,-2.0509,-2.0472,-2.043,-2.0374,-2.0343,-2.0314,-2.027,-2.0235,-2.0177,-2.0123,-2.0078,-2.0012,-1.9888,-1.9744,-1.9655,-1.9592,-1.9484,-1.9377,-1.9323,-1.9205,-1.9075,-1.9051,-1.8939,-1.8798,-1.8744,-1.866,-1.8478,-1.8391,-1.8275,-1.8171,-1.8053,-1.7914,-1.7741,-1.7517,-1.7304,-1.7076,-1.6825,-1.6596,-1.62,-1.5748,-1.5132,-1.4925,-1.4665,-1.4381,-1.4111,-1.3828,-1.3567,-1.3295,-1.3053,-1.2809,-1.2562,-1.2347,-1.2125,-1.1864,-1.1765,-1.1612,-1.1452,-1.1569,-1.1697,-1.1793,-1.1802,-1.1994,-1.2268,-1.2417,-1.2662,-1.2909,-1.3215,-1.3614,-1.4048,-1.4182,-1.4457,-1.4631,-1.4824,-1.4966,-1.5091,-1.5249,-1.5424,-1.5513,-1.5608,-1.5792,-1.5976,-1.617,-1.6336,-1.6224,-1.5928,-1.5585,-1.5263,-1.4978,-1.4693,-1.4276,-1.4227,-1.4292,-1.4298,-1.4408,-1.4472,-1.4543,-1.455,-1.4556,-1.4588,-1.4588,-1.4637,-2.5155,-2.518,-2.5313,-2.5368,-2.5401,-2.5449,-2.4891,-2.402,-2.3343,-2.2458,-2.1515,-2.0895,-2.0547,-2.0534,-2.0511,-2.0509,-2.0509,-2.0441,-2.043,-2.0414,-2.0352,-2.0321,-2.0298,-2.0255,-2.0215,-2.0174,-2.0125,-2.0039,-1.9852,-1.9776,-1.9658,-1.9564,-1.9499,-1.9398,-1.9277,-1.9239,-1.9134,-1.9017,-1.8957,-1.8869,-1.8679,-1.8526,-1.8437,-1.8351,-1.8243,-1.8087,-1.794,-1.7732,-1.7502,-1.7297,-1.7051,-1.6805,-1.6551,-1.6226,-1.579,-1.521,-1.4807,-1.4515,-1.4241,-1.4033,-1.3768,-1.3527,-1.3295,-1.3053,-1.2821,-1.2573,-1.2353,-1.2096,-1.197,-1.1886,-1.1724,-1.1892,-1.2077,-1.2226,-1.2257,-1.2257,-1.2367,-1.2493,-1.2666,-1.2865,-1.3026,-1.3366,-1.3831,-1.4167,-1.435,-1.4792,-1.4955,-1.5271,-1.5452,-1.5736,-1.5881,-1.6007,-1.6138,-1.6318,-1.6453,-1.6481,-1.6519,-1.6351,-1.5932,-1.5479,-1.5192,-1.4886,-1.4676,-1.4571,-1.4679,-1.4742,-1.4718,-1.4718,-1.4794,-1.4871,-1.4902,-1.4932,-1.4956,-1.498,-1.5004,-2.4968,-2.5041,-2.5176,-2.5262,-2.5312,-2.5378,-2.45,-2.3173,-2.304,-2.2099,-2.0759,-2.0607,-2.0541,-2.0566,-2.0525,-2.0513,-2.0497,-2.049,-2.0487,-2.0469,-2.0409,-2.0381,-2.0381,-2.032,-2.0296,-2.0276,-2.0229,-2.0106,-1.999,-1.9924,-1.9842,-1.9745,-1.9677,-1.9597,-1.9456,-1.9422,-1.9317,-1.9193,-1.917,-1.906,-1.8878,-1.8725,-1.8632,-1.8536,-1.8428,-1.8313,-1.8154,-1.7932,-1.7732,-1.7534,-1.7288,-1.7034,-1.6777,-1.6444,-1.6072,-1.5623,-1.5203,-1.4783,-1.4508,-1.4241,-1.4033,-1.3755,-1.3547,-1.3304,-1.3041,-1.2815,-1.2633,-1.2478,-1.2366,-1.217,-1.2004,-1.2123,-1.2395,-1.2591,-1.2674,-1.2639,-1.2674,-1.2687,-1.2812,-1.286,-1.3024,-1.3306,-1.3707,-1.3958,-1.4263,-1.4738,-1.5133,-1.5422,-1.5672,-1.5837,-1.5984,-1.5981,-1.6105,-1.6284,-1.6398,-1.6512,-1.6427,-1.634,-1.5962,-1.5481,-1.5184,-1.4987,-1.5004,-1.4975,-1.5088,-1.5179,-1.5134,-1.5118,-1.5178,-1.5215,-1.5245,-1.5291,-1.5344,-1.5366,-1.5418,-2.4676,-2.4907,-2.5022,-2.5127,-2.5176,-2.5262,-2.4359,-2.3087,-2.2885,-2.2006,-2.0683,-2.048,-2.0523,-2.0548,-2.0546,-2.0536,-2.0512,-2.0534,-2.0535,-2.0509,-2.0464,-2.0451,-2.0443,-2.0423,-2.0405,-2.0351,-2.0326,-2.0269,-2.0156,-2.006,-1.9977,-1.9909,-1.9837,-1.9754,-1.9645,-1.9601,-1.948,-1.9347,-1.9239,-1.917,-1.9052,-1.8904,-1.8798,-1.8779,-1.8612,-1.8456,-1.8299,-1.8116,-1.791,-1.7704,-1.7472,-1.7199,-1.6933,-1.6615,-1.632,-1.5996,-1.5631,-1.5187,-1.478,-1.4529,-1.428,-1.4026,-1.3808,-1.3582,-1.3319,-1.3098,-1.2949,-1.2844,-1.2839,-1.2644,-1.246,-1.2702,-1.2969,-1.3124,-1.3074,-1.305,-1.2984,-1.2984,-1.2998,-1.2996,-1.3015,-1.3338,-1.363,-1.3836,-1.4179,-1.46,-1.4928,-1.5119,-1.5302,-1.5438,-1.5589,-1.5747,-1.5886,-1.6042,-1.6125,-1.6217,-1.6079,-1.5999,-1.6041,-1.559,-1.5298,-1.512,-1.5247,-1.5381,-1.5485,-1.5544,-1.55,-1.5477,-1.5477,-1.5544,-1.561,-1.5661,-1.5675,-1.5805,-1.5833,-2.4409,-2.4689,-2.4837,-2.4944,-2.5041,-2.5101,-2.4233,-2.2842,-2.2805,-2.1913,-2.0735,-2.0451,-2.048,-2.0516,-2.0544,-2.0532,-2.0507,-2.0557,-2.0555,-2.0532,-2.0508,-2.0502,-2.0501,-2.0511,-2.0474,-2.0426,-2.0419,-2.0381,-2.0328,-2.024,-2.0153,-2.0049,-1.9986,-1.9898,-1.9809,-1.9745,-1.9664,-1.9494,-1.9338,-1.9261,-1.9205,-1.9067,-1.8992,-1.8914,-1.8779,-1.8603,-1.8439,-1.8261,-1.8061,-1.7856,-1.7597,-1.7345,-1.7084,-1.6823,-1.6562,-1.6266,-1.5953,-1.5617,-1.5232,-1.4897,-1.4554,-1.4305,-1.4118,-1.3868,-1.3683,-1.3474,-1.3385,-1.335,-1.3326,-1.3198,-1.3145,-1.3333,-1.3446,-1.3486,-1.3454,-1.3395,-1.3369,-1.3369,-1.3363,-1.3363,-1.3397,-1.3397,-1.3645,-1.3781,-1.4085,-1.4525,-1.4733,-1.4835,-1.5037,-1.5252,-1.5444,-1.5681,-1.5889,-1.6039,-1.6083,-1.6039,-1.5868,-1.5756,-1.5783,-1.5725,-1.5476,-1.5492,-1.5617,-1.5747,-1.5877,-1.5978,-1.5998,-1.5885,-1.5762,-1.5848,-1.5913,-1.5985,-1.6042,-1.6166,-1.6234,-2.4134,-2.4348,-2.4552,-2.471,-2.4837,-2.4957,-2.4095,-2.2648,-2.269,-2.179,-2.0424,-2.0371,-2.0436,-2.0474,-2.0486,-2.0499,-2.0507,-2.0508,-2.0542,-2.0556,-2.0537,-2.0527,-2.0544,-2.0529,-2.0511,-2.0492,-2.0486,-2.048,-2.0463,-2.0394,-2.0294,-2.0187,-2.0107,-2.0049,-1.9966,-1.9877,-1.9801,-1.9645,-1.9485,-1.9394,-1.9344,-1.9252,-1.9159,-1.9058,-1.894,-1.8788,-1.8603,-1.841,-1.8217,-1.8027,-1.7766,-1.7527,-1.7289,-1.7051,-1.6781,-1.6528,-1.6293,-1.6024,-1.5718,-1.5255,-1.4845,-1.454,-1.4331,-1.4235,-1.4177,-1.4032,-1.3927,-1.3894,-1.3828,-1.3755,-1.3715,-1.3788,-1.3861,-1.39,-1.3874,-1.3808,-1.3768,-1.3781,-1.3781,-1.3748,-1.3775,-1.3768,-1.3808,-1.3963,-1.399,-1.4378,-1.4553,-1.4657,-1.5056,-1.528,-1.5528,-1.5737,-1.5993,-1.6107,-1.6158,-1.6041,-1.5799,-1.5752,-1.5785,-1.5787,-1.5707,-1.5821,-1.5968,-1.61,-1.6219,-1.6347,-1.6433,-1.6324,-1.6238,-1.6199,-1.6214,-1.6297,-1.6379,-1.6498,-1.6543,-2.3885,-2.4018,-2.4164,-2.44,-2.4701,-2.4832,-2.3962,-2.2664,-2.2577,-2.1723,-2.0243,-2.0314,-2.038,-2.042,-2.0437,-2.0453,-2.0484,-2.0511,-2.0519,-2.0527,-2.0515,-2.0521,-2.0525,-2.0537,-2.0537,-2.0514,-2.0507,-2.0511,-2.0497,-2.0469,-2.041,-2.0308,-2.0223,-2.0124,-2.0041,-1.9978,-1.9877,-1.9813,-1.9668,-1.9578,-1.949,-1.9404,-1.9292,-1.9226,-1.9101,-1.8949,-1.8779,-1.8594,-1.8426,-1.8239,-1.7974,-1.7752,-1.7536,-1.728,-1.7052,-1.6825,-1.6599,-1.6402,-1.6123,-1.5631,-1.5136,-1.4788,-1.462,-1.4602,-1.4707,-1.4486,-1.4342,-1.4278,-1.4278,-1.4246,-1.422,-1.4212,-1.4192,-1.4326,-1.4327,-1.4222,-1.4183,-1.4164,-1.4164,-1.4157,-1.4124,-1.4124,-1.4164,-1.4197,-1.4173,-1.4212,-1.4326,-1.4527,-1.4938,-1.5203,-1.538,-1.5544,-1.5726,-1.5816,-1.5839,-1.5794,-1.5723,-1.5772,-1.5839,-1.5921,-1.6013,-1.613,-1.6281,-1.6429,-1.6546,-1.6683,-1.6743,-1.6746,-1.6678,-1.6554,-1.6588,-1.6641,-1.672,-1.6849,-1.6858,-2.3629,-2.3719,-2.3843,-2.4134,-2.4479,-2.4606,-2.3778,-2.2503,-2.2435,-2.1632,-2.0205,-2.0231,-2.0282,-2.0334,-2.0346,-2.0375,-2.0415,-2.0438,-2.0449,-2.0458,-2.0474,-2.0485,-2.0513,-2.0542,-2.054,-2.0516,-2.0508,-2.0504,-2.0503,-2.0509,-2.0464,-2.0409,-2.0357,-2.0255,-2.0139,-2.0041,-1.9958,-1.9921,-1.984,-1.9732,-1.9675,-1.9555,-1.9438,-1.9357,-1.9236,-1.9093,-1.8931,-1.8743,-1.8591,-1.8423,-1.821,-1.7979,-1.7763,-1.7564,-1.732,-1.7118,-1.6918,-1.6722,-1.644,-1.5917,-1.5455,-1.5197,-1.5098,-1.5124,-1.5098,-1.4963,-1.4852,-1.4821,-1.4828,-1.4759,-1.4745,-1.4672,-1.4634,-1.4739,-1.47,-1.4603,-1.4585,-1.4599,-1.4567,-1.4529,-1.4529,-1.4529,-1.4599,-1.4606,-1.4552,-1.4525,-1.4559,-1.469,-1.4842,-1.506,-1.5107,-1.524,-1.5368,-1.5413,-1.5425,-1.5691,-1.592,-1.6041,-1.6121,-1.6257,-1.6378,-1.649,-1.6623,-1.6781,-1.6901,-1.701,-1.7085,-1.7126,-1.7027,-1.6901,-1.6934,-1.7018,-1.7093,-1.7183,-1.7231,-2.3389,-2.3526,-2.3638,-2.3885,-2.4182,-2.4339,-2.3496,-2.2177,-2.2041,-2.1332,-2.0155,-2.0098,-2.0151,-2.019,-2.0204,-2.0248,-2.0299,-2.0314,-2.0334,-2.0376,-2.0395,-2.0422,-2.047,-2.0497,-2.0514,-2.0508,-2.0509,-2.0506,-2.0508,-2.0504,-2.0494,-2.0485,-2.0453,-2.0385,-2.0283,-2.0164,-2.0069,-2.0011,-1.9938,-1.9881,-1.9842,-1.9732,-1.9619,-1.9481,-1.9356,-1.9246,-1.9102,-1.8914,-1.877,-1.8593,-1.8368,-1.8184,-1.8018,-1.7808,-1.761,-1.74,-1.7215,-1.7068,-1.6934,-1.6243,-1.5909,-1.5746,-1.5646,-1.5617,-1.564,-1.5551,-1.5411,-1.5381,-1.5389,-1.5352,-1.5315,-1.5203,-1.515,-1.5134,-1.5097,-1.5066,-1.505,-1.502,-1.4982,-1.4928,-1.4951,-1.4975,-1.5013,-1.5058,-1.498,-1.494,-1.4863,-1.4911,-1.502,-1.5104,-1.5202,-1.5381,-1.55,-1.5609,-1.579,-1.5968,-1.6139,-1.6266,-1.6421,-1.6573,-1.673,-1.6866,-1.6985,-1.715,-1.7256,-1.7361,-1.7447,-1.7541,-1.7462,-1.7383,-1.7352,-1.74,-1.7477,-1.753,-1.7562,-2.3061,-2.3118,-2.3304,-2.3472,-2.3644,-2.3471,-2.2792,-2.1794,-2.0947,-2.027,-1.9983,-1.9947,-1.9991,-2.005,-2.0097,-2.0122,-2.0163,-2.0229,-2.0253,-2.0266,-2.0295,-2.0334,-2.0371,-2.0424,-2.0469,-2.0497,-2.0506,-2.0506,-2.0509,-2.0506,-2.0508,-2.0513,-2.0499,-2.0427,-2.033,-2.0238,-2.0212,-2.0134,-2.006,-1.9999,-1.9965,-1.9884,-1.9779,-1.9649,-1.9509,-1.9389,-1.9289,-1.9101,-1.8939,-1.8798,-1.8576,-1.8428,-1.8301,-1.8121,-1.7901,-1.7755,-1.7587,-1.7464,-1.7304,-1.6885,-1.6651,-1.639,-1.6179,-1.6123,-1.62,-1.6047,-1.5968,-1.5911,-1.5883,-1.5847,-1.5761,-1.5644,-1.5615,-1.5732,-1.5711,-1.5631,-1.561,-1.5529,-1.5463,-1.5359,-1.5329,-1.5426,-1.5455,-1.5573,-1.5521,-1.547,-1.5433,-1.5359,-1.5411,-1.5485,-1.558,-1.5754,-1.5904,-1.6017,-1.6156,-1.632,-1.6474,-1.6625,-1.6773,-1.6909,-1.706,-1.7216,-1.7352,-1.7517,-1.7604,-1.7704,-1.7808,-1.791,-1.7954,-1.7901,-1.7858,-1.7777,-1.78,-1.7866,-1.7927,-2.2686,-2.2782,-2.297,-2.3119,-2.3156,-2.286,-2.2191,-2.1189,-2.0045,-1.9573,-1.9688,-1.9738,-1.9818,-1.9904,-1.9967,-2.0021,-2.0031,-2.0069,-2.015,-2.0167,-2.0206,-2.0241,-2.0283,-2.0305,-2.0359,-2.0429,-2.0462,-2.0464,-2.0464,-2.0496,-2.051,-2.0508,-2.0502,-2.0455,-2.038,-2.0349,-2.0291,-2.0231,-2.0186,-2.0126,-2.0079,-1.9998,-1.9911,-1.9811,-1.9691,-1.9573,-1.9456,-1.9305,-1.9146,-1.9024,-1.8887,-1.8724,-1.8601,-1.8437,-1.8261,-1.8142,-1.7962,-1.7816,-1.7627,-1.7549,-1.7264,-1.7042,-1.6738,-1.6596,-1.6609,-1.6501,-1.6421,-1.6375,-1.6313,-1.6313,-1.6243,-1.6126,-1.6071,-1.6196,-1.6194,-1.6118,-1.6032,-1.5945,-1.5953,-1.5854,-1.5826,-1.5868,-1.5917,-1.6029,-1.6085,-1.6065,-1.6001,-1.5932,-1.5854,-1.5896,-1.5966,-1.6148,-1.6285,-1.6394,-1.6546,-1.6704,-1.6833,-1.6977,-1.7126,-1.7272,-1.7408,-1.7557,-1.7718,-1.7861,-1.794,-1.8048,-1.8192,-1.8296,-1.8287,-1.829,-1.8273,-1.8208,-1.8159,-1.8168,-1.823,-2.2318,-2.2506,-2.2632,-2.273,-2.276,-2.23,-2.1491,-2.0391,-1.9632,-1.938,-1.9481,-1.9495,-1.9595,-1.9732,-1.9785,-1.983,-1.9894,-1.9897,-1.998,-2.006,-2.0079,-2.0133,-2.0166,-2.0206,-2.0268,-2.0305,-2.0348,-2.0371,-2.04,-2.0454,-2.0482,-2.051,-2.0508,-2.0475,-2.0455,-2.0425,-2.0366,-2.033,-2.0294,-2.0242,-2.0186,-2.0107,-2.004,-1.9959,-1.987,-1.9744,-1.963,-1.9509,-1.94,-1.9299,-1.9175,-1.906,-1.8913,-1.8771,-1.8641,-1.8487,-1.8244,-1.8133,-1.8031,-1.7962,-1.7883,-1.7673,-1.7392,-1.7158,-1.6994,-1.6943,-1.6901,-1.6817,-1.6749,-1.6765,-1.6757,-1.6588,-1.6452,-1.6531,-1.6591,-1.6521,-1.6463,-1.6429,-1.6436,-1.6409,-1.6409,-1.6429,-1.6413,-1.6501,-1.6599,-1.6586,-1.6551,-1.6528,-1.6448,-1.6367,-1.644,-1.6528,-1.6659,-1.6789,-1.6917,-1.7085,-1.7183,-1.7328,-1.7477,-1.7647,-1.7786,-1.7905,-1.8048,-1.8175,-1.8258,-1.8368,-1.8505,-1.8591,-1.862,-1.8612,-1.8604,-1.8536,-1.8465,-1.8445,-1.8465,-2.1998,-2.215,-2.2226,-2.2075,-2.1636,-2.0651,-1.9829,-1.93,-1.9098,-1.9143,-1.9205,-1.9311,-1.9394,-1.9447,-1.9536,-1.9599,-1.9682,-1.9751,-1.983,-1.9889,-1.9927,-1.996,-2.0021,-2.0079,-2.0169,-2.0209,-2.0243,-2.0276,-2.0338,-2.0391,-2.0451,-2.0485,-2.049,-2.0502,-2.0498,-2.0481,-2.0447,-2.0419,-2.038,-2.0337,-2.0275,-2.0198,-2.0159,-2.0107,-2.0021,-1.9899,-1.9809,-1.9729,-1.9627,-1.9513,-1.9433,-1.9314,-1.9122,-1.9058,-1.8992,-1.8789,-1.8624,-1.85,-1.8439,-1.8353,-1.8293,-1.8246,-1.8052,-1.7835,-1.7593,-1.7422,-1.7383,-1.7271,-1.7199,-1.7199,-1.7158,-1.7019,-1.6937,-1.696,-1.7016,-1.7007,-1.6941,-1.6858,-1.6866,-1.6841,-1.6833,-1.6884,-1.6884,-1.696,-1.7035,-1.7057,-1.7074,-1.705,-1.7001,-1.6892,-1.6884,-1.6942,-1.7042,-1.7175,-1.7297,-1.7464,-1.7557,-1.7681,-1.7844,-1.7988,-1.8112,-1.8217,-1.8359,-1.8459,-1.8575,-1.8668,-1.8788,-1.8843,-1.887,-1.8905,-1.8896,-1.8825,-1.8761,-1.8733,-1.8696,-2.1639,-2.1715,-2.1537,-2.1021,-2.0221,-1.9474,-1.8897,-1.8573,-1.8723,-1.8861,-1.8975,-1.9049,-1.9148,-1.9221,-1.9326,-1.939,-1.9434,-1.9555,-1.9641,-1.9682,-1.9732,-1.9802,-1.9872,-1.9938,-1.9991,-2.006,-2.0124,-2.0174,-2.0243,-2.0334,-2.0386,-2.0437,-2.046,-2.0476,-2.049,-2.0503,-2.0508,-2.048,-2.0451,-2.04,-2.0349,-2.0292,-2.0275,-2.0233,-2.0131,-2.0069,-2.0002,-1.9927,-1.983,-1.9759,-1.9669,-1.9554,-1.9381,-1.9329,-1.9252,-1.9081,-1.899,-1.8886,-1.8825,-1.878,-1.8716,-1.8651,-1.8603,-1.8432,-1.8173,-1.7945,-1.7824,-1.7698,-1.7664,-1.7627,-1.7524,-1.7452,-1.7414,-1.7415,-1.745,-1.7508,-1.7418,-1.7321,-1.728,-1.7248,-1.7272,-1.732,-1.7368,-1.7424,-1.748,-1.7508,-1.7555,-1.7582,-1.7472,-1.7353,-1.7337,-1.7384,-1.7458,-1.7562,-1.77,-1.783,-1.794,-1.8027,-1.8154,-1.8299,-1.8417,-1.8515,-1.8622,-1.8752,-1.8878,-1.8966,-1.9027,-1.9087,-1.912,-1.9128,-1.9135,-1.9093,-1.9009,-1.8975,-1.894,-2.1183,-2.1305,-2.067,-1.977,-1.8751,-1.8697,-1.8409,-1.8026,-1.8275,-1.8544,-1.8723,-1.8789,-1.8887,-1.9009,-1.9101,-1.9189,-1.9243,-1.9338,-1.9422,-1.9481,-1.9509,-1.9581,-1.971,-1.9782,-1.9818,-1.9907,-1.998,-2.006,-2.0135,-2.0209,-2.0288,-2.0369,-2.0375,-2.0405,-2.047,-2.0474,-2.0478,-2.0505,-2.0483,-2.0448,-2.0424,-2.04,-2.0385,-2.033,-2.0269,-2.0209,-2.0172,-2.0095,-1.9984,-1.9905,-1.9774,-1.9599,-1.927,-1.9104,-1.9041,-1.9104,-1.8906,-1.8941,-1.8977,-1.9036,-1.9073,-1.9025,-1.8974,-1.886,-1.8644,-1.8347,-1.8173,-1.8099,-1.8074,-1.8027,-1.7936,-1.782,-1.7768,-1.7813,-1.789,-1.7876,-1.7811,-1.7732,-1.7724,-1.7693,-1.7715,-1.7738,-1.776,-1.7805,-1.7852,-1.7918,-1.7974,-1.8028,-1.7967,-1.7827,-1.7777,-1.78,-1.7876,-1.796,-1.8074,-1.8175,-1.8299,-1.8408,-1.8506,-1.8612,-1.8733,-1.8815,-1.8905,-1.9018,-1.9143,-1.9191,-1.9264,-1.9289,-1.9329,-1.9326,-1.9332,-1.9332,-1.9286,-1.9226,-1.9135,-2.0786,-2.0911,-1.9828,-1.8955,-1.8265,-1.7823,-1.7623,-1.7566,-1.7718,-1.8048,-1.8371,-1.8535,-1.8631,-1.8734,-1.8861,-1.8931,-1.8999,-1.9101,-1.92,-1.9277,-1.9311,-1.9385,-1.9499,-1.9573,-1.9625,-1.9741,-1.9833,-1.9922,-2.0009,-2.0098,-2.0159,-2.0221,-2.0253,-2.0299,-2.0399,-2.0405,-2.043,-2.0474,-2.049,-2.0478,-2.0458,-2.047,-2.0467,-2.0438,-2.04,-2.0353,-2.0308,-2.0219,-1.9746,-1.9326,-1.9178,-1.8726,-1.806,-1.7927,-1.7832,-1.7894,-1.8357,-1.8518,-1.8692,-1.8939,-1.9132,-1.9234,-1.9201,-1.9184,-1.9048,-1.8726,-1.8548,-1.8519,-1.8478,-1.8408,-1.833,-1.8217,-1.813,-1.8225,-1.8291,-1.8236,-1.818,-1.8163,-1.8133,-1.8154,-1.8154,-1.8166,-1.8158,-1.8184,-1.823,-1.8276,-1.8338,-1.84,-1.8399,-1.8316,-1.8206,-1.8211,-1.827,-1.835,-1.8443,-1.8519,-1.8614,-1.8725,-1.8825,-1.894,-1.9028,-1.9128,-1.9207,-1.927,-1.9372,-1.9407,-1.946,-1.9493,-1.9508,-1.9513,-1.9513,-1.9513,-1.9522,-1.9474,-1.9372,-2.0247,-2.0034,-1.8849,-1.7992,-1.7478,-1.7138,-1.7085,-1.7224,-1.7369,-1.7587,-1.7923,-1.8184,-1.8357,-1.843,-1.8573,-1.8668,-1.8734,-1.8869,-1.8949,-1.9035,-1.9101,-1.9182,-1.9268,-1.9341,-1.9429,-1.9532,-1.9627,-1.972,-1.9879,-1.9936,-1.9991,-2.006,-2.0095,-2.0153,-2.026,-2.0289,-2.0344,-2.0396,-2.0433,-2.0454,-2.0453,-2.0478,-2.0503,-2.0497,-2.0477,-2.0447,-2.0268,-2.0114,-1.9519,-1.893,-1.8644,-1.8254,-1.7782,-1.7649,-1.7519,-1.7577,-1.7803,-1.8008,-1.8134,-1.8429,-1.888,-1.8945,-1.9056,-1.89,-1.9429,-1.9172,-1.8987,-1.8946,-1.8798,-1.8724,-1.8661,-1.8543,-1.8523,-1.8575,-1.8663,-1.8679,-1.8589,-1.8517,-1.8508,-1.8508,-1.85,-1.851,-1.8519,-1.8561,-1.8589,-1.8612,-1.8673,-1.8704,-1.8725,-1.8761,-1.8663,-1.8625,-1.8676,-1.872,-1.8788,-1.886,-1.8947,-1.9042,-1.9126,-1.9189,-1.9274,-1.9407,-1.9513,-1.9523,-1.9564,-1.9592,-1.9637,-1.9669,-1.9669,-1.9673,-1.9683,-1.9679,-1.9688,-1.9701,-1.962,-1.9467,-1.8861,-1.788,-1.7085,-1.6625,-1.6701,-1.6815,-1.6942,-1.7093,-1.7183,-1.7393,-1.7763,-1.7954,-1.8146,-1.8307,-1.8388,-1.8467,-1.8575,-1.8668,-1.877,-1.8843,-1.8957,-1.9034,-1.9108,-1.9205,-1.932,-1.9419,-1.9559,-1.9703,-1.9751,-1.9795,-1.9875,-1.9941,-1.9993,-2.0068,-2.0138,-2.0209,-2.0259,-2.0305,-2.0365,-2.0401,-2.0443,-2.0486,-2.0497,-2.051,-2.0503,-2.0248,-1.9791,-1.9273,-1.8475,-1.7859,-1.7295,-1.7101,-1.6939,-1.6993,-1.7003,-1.7183,-1.7318,-1.743,-1.7641,-1.8032,-1.8295,-1.8481,-1.8872,-1.9416,-1.9587,-1.9407,-1.9322,-1.9171,-1.9042,-1.898,-1.8902,-1.8894,-1.8896,-1.9003,-1.9057,-1.8941,-1.8852,-1.8852,-1.8852,-1.8843,-1.8851,-1.8869,-1.8905,-1.8932,-1.894,-1.8937,-1.8977,-1.9015,-1.9054,-1.9057,-1.901,-1.9048,-1.9092,-1.9119,-1.9146,-1.9194,-1.928,-1.935,-1.9419,-1.9509,-1.9604,-1.9688,-1.9713,-1.9738,-1.977,-1.9801,-1.982,-1.9832,-1.9822,-1.9822,-1.9832,-1.9832,-1.9832,-1.9832,-1.8194,-1.7334,-1.7143,-1.6749,-1.626,-1.6398,-1.6498,-1.6551,-1.6704,-1.6858,-1.696,-1.7109,-1.7392,-1.7839,-1.8018,-1.8117,-1.8187,-1.8261,-1.8399,-1.8535,-1.8556,-1.8687,-1.8807,-1.8861,-1.8975,-1.9101,-1.9227,-1.9359,-1.9442,-1.9523,-1.9604,-1.9653,-1.9791,-1.9868,-1.9928,-2.0001,-2.006,-2.0104,-2.0145,-2.019,-2.0305,-2.0366,-2.0437,-2.0472,-2.0513,-2.0506,-2.0273,-1.9625,-1.8888,-1.7921,-1.6807,-1.6175,-1.6019,-1.6068,-1.6066,-1.6251,-1.6445,-1.6615,-1.6749,-1.7045,-1.7437,-1.7943,-1.8253,-1.8792,-1.9297,-1.976,-1.966,-1.9712,-1.9561,-1.9405,-1.9295,-1.9182,-1.9145,-1.9189,-1.9264,-1.9253,-1.9173,-1.9139,-1.9122,-1.9124,-1.9134,-1.9134,-1.9134,-1.9163,-1.9197,-1.9184,-1.9112,-1.9165,-1.93,-1.9363,-1.9411,-1.9406,-1.9387,-1.9331,-1.9305,-1.9378,-1.9434,-1.9504,-1.9581,-1.9663,-1.9728,-1.9786,-1.9839,-1.9883,-1.9902,-1.9941,-1.996,-1.9962,-1.9962,-1.9952,-1.9951,-1.996,-1.9951,-1.9962,-1.9973]},{"header":{"parameterUnit":"m.s-1","parameterCategory":1,"la1":31.0,"la2":29.5877,"lo1":-88.7671,"lo2":-86.6584,"dy":0.0162,"dx":0.0185,"nx":115,"ny":88,"refTime":"2024-08-21T18:00:00:Z","depth":0,"parameterNumber":3,"parameterNumberName":"V-component_of_WINDS"},"data":[0.0,0.0,0.0,0.0,0.0,0.0,0.0,0.0,0.0,0.0,0.0,0.0,0.0,0.0,0.0,0.0,0.0,0.0,0.0,0.0,0.0,0.0,0.0,0.0,0.0,0.0,0.0,0.0,0.0,0.0,0.0,0.0,0.0,0.0,0.0,0.0,0.0,0.0,0.0,0.0,0.0,0.0,0.0,0.0,0.0,0.0,0.0,0.0,0.0,0.0,0.0,0.0,0.0,0.0,0.0,0.0,0.0,0.0,0.0,0.0,0.0,0.0,0.0,0.0,0.0,0.0,0.0,0.0,0.0,0.0,0.0,0.0,0.0,0.0,0.0,0.0,0.0,0.0,0.0,0.0,0.0,0.0,0.0,0.0,0.0,0.0,0.0,0.0,0.0,0.0,0.0,0.0,0.0,0.0,0.0,0.0,0.0,0.0,0.0,0.0,0.0,0.0,0.0,0.0,0.0,0.0,0.0,0.0,0.0,0.0,0.0,0.0,0.0,0.0,0.0,0.0,0.0,0.0,0.0,0.0,0.0,0.0,0.0,0.0,0.0,0.0,0.0,0.0,0.0,0.0,0.0,0.0,0.0,0.0,0.0,0.0,0.0,0.0,0.0,0.0,0.0,0.0,0.0,0.0,0.0,0.0,0.0,0.0,0.0,0.0,0.0,0.0,0.0,0.0,0.0,0.0,0.0,0.0,0.0,0.0,0.0,0.0,0.0,0.0,0.0,0.0,0.0,0.0,0.0,0.0,0.0,0.0,0.0,0.0,0.0,0.0,0.0,0.0,0.0,0.0,0.0,0.0,0.0,0.0,0.0,0.0,0.0,0.0,0.0,0.0,0.0,0.0,0.0,0.0,0.0,0.0,0.0,0.0,0.0,0.0,0.0,0.0,0.0,0.0,0.0,0.0,0.0,0.0,0.0,0.0,0.0,0.0,0.0,0.0,0.0,0.0,0.0,0.0,0.0,0.0,0.0,0.0,0.0,0.0,0.0,0.0,0.0,0.0,0.0,0.0,0.0,0.0,0.0,0.0,0.0,0.0,0.0,0.0,0.0,0.0,0.0,0.0,0.0,0.0,0.0,0.0,0.0,0.0,0.0,0.0,0.0,0.0,0.0,0.0,0.0,0.0,0.0,0.0,0.0,0.0,0.0,0.0,0.0,0.0,0.0,0.0,0.0,0.0,0.0,0.0,0.0,0.0,0.0,0.0,0.0,0.0,0.0,0.0,0.0,0.0,0.0,0.0,0.0,0.0,0.0,0.0,0.0,0.0,0.0,0.0,0.0,0.0,0.0,0.0,0.0,0.0,0.0,0.0,0.0,0.0,0.0,0.0,0.0,0.0,0.0,0.0,0.0,0.0,0.0,0.0,0.0,0.0,0.0,0.0,0.0,0.0,0.0,0.0,0.0,0.0,0.0,0.0,0.0,0.0,0.0,0.0,0.0,0.0,0.0,0.0,0.0,0.0,0.0,0.0,0.0,0.0,0.0,0.0,0.0,0.0,0.0,0.0,0.0,0.0,0.0,0.0,0.0,0.0,0.0,0.0,0.0,0.0,0.0,0.0,0.0,0.0,0.0,0.0,0.0,0.0,0.0,0.0,0.0,0.0,0.0,0.0,0.0,0.0,0.0,0.0,0.0,0.0,0.0,0.0,0.0,0.0,0.0,0.0,0.0,0.0,0.0,0.0,0.0,0.0,0.0,0.0,0.0,0.0,0.0,0.0,0.0,0.0,0.0,0.0,0.0,0.0,0.0,0.0,0.0,0.0,0.0,0.0,0.0,0.0,0.0,0.0,0.0,0.0,0.0,0.0,0.0,0.0,0.0,0.0,0.0,0.0,0.0,0.0,0.0,0.0,0.0,0.0,0.0,0.0,0.0,0.0,0.0,0.0,0.0,0.0,0.0,0.0,0.0,0.0,0.0,0.0,0.0,0.0,0.0,0.0,0.0,0.0,0.0,0.0,0.0,0.0,0.0,0.0,0.0,0.0,0.0,0.0,0.0,0.0,0.0,0.0,0.0,0.0,0.0,0.0,0.0,0.0,0.0,0.0,0.0,0.0,0.0,0.0,0.0,0.0,0.0,0.0,0.0,0.0,0.0,0.0,0.0,0.0,0.0,0.0,0.0,0.0,0.0,0.0,0.0,0.0,0.0,0.0,0.0,0.0,0.0,0.0,0.0,0.0,0.0,0.0,0.0,0.0,0.0,0.0,0.0,0.0,0.0,0.0,0.0,0.0,0.0,0.0,0.0,0.0,0.0,0.0,0.0,0.0,0.0,0.0,0.0,0.0,0.0,0.0,0.0,0.0,0.0,0.0,0.0,0.0,0.0,0.0,0.0,0.0,0.0,0.0,0.0,0.0,0.0,0.0,0.0,0.0,0.0,0.0,0.0,0.0,0.0,0.0,0.0,0.0,0.0,0.0,0.0,0.0,0.0,0.0,0.0,0.0,0.0,0.0,0.0,0.0,0.0,0.0,0.0,0.0,0.0,0.0,0.0,0.0,0.0,0.0,0.0,0.0,0.0,0.0,0.0,0.0,0.0,0.0,0.0,0.0,0.0,0.0,0.0,0.0,0.0,0.0,0.0,0.0,0.0,0.0,0.0,0.0,0.0,0.0,0.0,0.0,0.0,0.0,0.0,0.0,0.0,0.0,0.0,0.0,0.0,0.0,0.0,0.0,0.0,0.0,0.0,0.0,0.0,0.0,0.0,0.0,0.0,0.0,0.0,0.0,0.0,0.0,0.0,0.0,0.0,0.0,0.0,0.0,0.0,0.0,0.0,0.0,0.0,0.0,0.0,0.0,0.0,0.0,0.0,0.0,0.0,0.0,0.0,0.0,0.0,0.0,0.0,0.0,0.0,0.0,0.0,0.0,0.0,0.0,0.0,0.0,0.0,0.0,0.0,0.0,0.0,0.0,0.0,0.0,0.0,0.0,0.0,0.0,0.0,0.0,0.0,0.0,0.0,0.0,0.0,0.0,0.0,0.0,0.0,0.0,0.0,0.0,0.0,0.0,0.0,0.0,0.0,0.0,0.0,0.0,0.0,0.0,0.0,0.0,0.0,0.0,0.0,0.0,0.0,0.0,0.0,0.0,0.0,0.0,0.0,0.0,0.0,0.0,0.0,0.0,0.0,0.0,0.0,0.0,0.0,0.0,0.0,0.0,0.0,0.0,0.0,0.0,0.0,0.0,0.0,0.0,0.0,0.0,0.0,0.0,0.0,0.0,0.0,0.0,0.0,0.0,0.0,0.0,0.0,0.0,0.0,0.0,0.0,0.0,0.0,0.0,0.0,0.0,0.0,0.0,0.0,0.0,0.0,0.0,0.0,0.0,0.0,0.0,0.0,0.0,0.0,0.0,0.0,0.0,0.0,0.0,0.0,0.0,0.0,0.0,0.0,0.0,0.0,0.0,0.0,0.0,0.0,0.0,0.0,0.0,0.0,0.0,0.0,0.0,0.0,0.0,0.0,0.0,0.0,0.0,0.0,0.0,0.0,0.0,0.0,0.0,0.0,0.0,0.0,0.0,0.0,0.0,0.0,0.0,0.0,0.0,0.0,0.0,0.0,0.0,0.0,0.0,0.0,0.0,0.0,0.0,0.0,0.0,0.0,0.0,0.0,0.0,0.0,0.0,0.0,0.0,0.0,0.0,0.0,0.0,0.0,0.0,0.0,0.0,0.0,0.0,0.0,0.0,0.0,0.0,0.0,0.0,0.0,0.0,0.0,0.0,0.0,0.0,0.0,0.0,0.0,0.0,0.0,0.0,0.0,0.0,0.0,0.0,0.0,0.0,0.0,0.0,0.0,0.0,0.0,0.0,0.0,0.0,0.0,0.0,0.0,0.0,0.0,0.0,0.0,0.0,0.0,0.0,0.0,0.0,0.0,0.0,0.0,0.0,0.0,0.0,0.0,0.0,0.0,0.0,0.0,0.0,0.0,0.0,0.0,0.0,0.0,0.0,0.0,0.0,0.0,0.0,0.0,0.0,0.0,0.0,0.0,0.0,0.0,0.0,0.0,0.0,0.0,0.0,0.0,0.0,0.0,0.0,0.0,0.0,0.0,0.0,0.0,0.0,0.0,0.0,0.0,0.0,0.0,0.0,0.0,0.0,0.0,0.0,0.0,0.0,0.0,0.0,0.0,0.0,0.0,0.0,0.0,0.0,0.0,0.0,0.0,0.0,0.0,0.0,0.0,0.0,0.0,0.0,0.0,0.0,0.0,0.0,0.0,0.0,0.0,0.0,0.0,0.0,0.0,0.0,0.0,0.0,-0.9475,0.0,0.0,0.0,0.0,0.0,0.0,0.0,0.0,0.0,0.0,0.0,0.0,0.0,0.0,0.0,0.0,0.0,0.0,0.0,0.0,0.0,0.0,0.0,0.0,0.0,0.0,0.0,0.0,0.0,0.0,0.0,0.0,0.0,0.0,0.0,0.0,0.0,0.0,0.0,0.0,0.0,0.0,0.0,0.0,0.0,0.0,0.0,0.0,0.0,0.0,0.0,0.0,0.0,0.0,0.0,0.0,0.0,0.0,0.0,0.0,0.0,0.0,0.0,0.0,0.0,0.0,0.0,0.0,0.0,0.0,0.0,0.0,0.0,0.0,0.0,0.0,0.0,0.0,0.0,0.0,0.0,0.0,0.0,0.0,0.0,0.0,0.0,0.0,0.0,0.0,0.0,0.0,0.0,0.0,0.0,0.0,0.0,0.0,0.0,0.0,0.0,0.0,0.0,0.0,0.0,0.0,0.0,0.0,0.0,0.0,-0.9187,-0.9421,-0.9357,-0.9455,-0.9759,0.0,0.0,0.0,0.0,0.0,0.0,0.0,0.0,0.0,0.0,0.0,0.0,0.0,0.0,0.0,0.0,0.0,0.0,0.0,0.0,0.0,0.0,0.0,0.0,0.0,0.0,0.0,0.0,0.0,0.0,0.0,0.0,0.0,0.0,0.0,0.0,0.0,0.0,0.0,0.0,0.0,0.0,0.0,0.0,0.0,0.0,0.0,0.0,0.0,0.0,0.0,0.0,0.0,0.0,0.0,0.0,0.0,0.0,0.0,0.0,0.0,0.0,0.0,0.0,0.0,0.0,0.0,0.0,0.0,0.0,0.0,0.0,0.0,0.0,0.0,0.0,0.0,0.0,0.0,0.0,0.0,0.0,0.0,0.0,0.0,0.0,0.0,0.0,0.0,0.0,0.0,0.0,0.0,0.0,0.0,0.0,0.0,0.0,0.0,0.0,0.0,0.0,0.0,0.0,0.0,0.0,0.0,0.0,0.0,0.0,0.0,0.0,-1.0568,-1.0584,-1.0792,0.0,0.0,0.0,0.0,0.0,0.0,0.0,0.0,0.0,0.0,0.0,0.0,0.0,0.0,0.0,0.0,0.0,0.0,0.0,0.0,0.0,0.0,0.0,0.0,0.0,0.0,0.0,0.0,0.0,0.0,0.0,0.0,0.0,0.0,0.0,0.0,0.0,0.0,0.0,0.0,0.0,0.0,0.0,0.0,0.0,0.0,0.0,0.0,0.0,0.0,0.0,0.0,0.0,0.0,0.0,0.0,0.0,0.0,0.0,0.0,0.0,0.0,0.0,0.0,0.0,0.0,0.0,0.0,0.0,0.0,0.0,0.0,0.0,0.0,0.0,0.0,0.0,0.0,0.0,0.0,0.0,0.0,0.0,0.0,0.0,0.0,0.0,0.0,0.0,0.0,0.0,0.0,0.0,0.0,0.0,0.0,0.0,0.0,0.0,0.0,0.0,0.0,0.0,0.0,0.0,0.0,0.0,0.0,0.0,0.0,-1.093,-1.3342,-1.3449,0.0,-1.3548,0.0,0.0,0.0,0.0,0.0,0.0,0.0,0.0,0.0,0.0,0.0,0.0,0.0,0.0,0.0,0.0,0.0,0.0,0.0,0.0,0.0,0.0,0.0,0.0,0.0,0.0,0.0,0.0,0.0,0.0,0.0,0.0,0.0,0.0,0.0,0.0,0.0,0.0,0.0,0.0,0.0,0.0,0.0,0.0,0.0,0.0,0.0,0.0,0.0,0.0,0.0,0.0,0.0,0.0,0.0,0.0,0.0,0.0,0.0,0.0,0.0,0.0,0.0,0.0,0.0,0.0,0.0,0.0,0.0,0.0,0.0,0.0,0.0,0.0,0.0,0.0,0.0,0.0,0.0,0.0,0.0,0.0,0.0,0.0,0.0,0.0,0.0,0.0,0.0,0.0,0.0,0.0,0.0,0.0,0.0,0.0,0.0,0.0,0.0,0.0,0.0,0.0,0.0,0.0,0.0,0.0,0.0,0.0,0.0,0.0,0.0,-1.389,-1.3939,-1.397,0.0,0.0,0.0,0.0,0.0,0.0,0.0,0.0,0.0,0.0,0.0,0.0,0.0,0.0,0.0,0.0,0.0,0.0,0.0,0.0,0.0,0.0,0.0,0.0,0.0,0.0,0.0,0.0,0.0,0.0,0.0,0.0,0.0,0.0,0.0,0.0,0.0,0.0,0.0,0.0,0.0,0.0,0.0,0.0,0.0,0.0,0.0,0.0,0.0,0.0,0.0,0.0,0.0,0.0,0.0,0.0,0.0,0.0,0.0,0.0,0.0,0.0,0.0,0.0,0.0,0.0,0.0,0.0,0.0,0.0,0.0,0.0,0.0,0.0,0.0,0.0,0.0,0.0,0.0,0.0,0.0,0.0,0.0,0.0,0.0,0.0,0.0,0.0,0.0,0.0,0.0,0.0,0.0,0.0,0.0,0.0,0.0,0.0,0.0,0.0,0.0,0.0,0.0,0.0,0.0,0.0,0.0,0.0,0.0,0.0,-1.347,0.0,-1.5024,-1.481,-1.443,-1.3931,0.0,0.0,0.0,0.0,0.0,0.0,0.0,0.0,0.0,0.0,0.0,0.0,0.0,0.0,0.0,0.0,0.0,0.0,0.0,0.0,0.0,0.0,0.0,0.0,0.0,0.0,0.0,0.0,0.0,0.0,0.0,0.0,0.0,0.0,0.0,0.0,0.0,0.0,0.0,0.0,0.0,0.0,0.0,0.0,0.0,0.0,0.0,0.0,0.0,0.0,0.0,0.0,0.0,0.0,0.0,0.0,0.0,0.0,0.0,0.0,0.0,0.0,0.0,0.0,0.0,0.0,0.0,0.0,0.0,0.0,0.0,0.0,0.0,0.0,0.0,0.0,0.0,0.0,0.0,0.0,0.0,0.0,0.0,0.0,0.0,0.0,0.0,0.0,0.0,0.0,0.0,0.0,0.0,0.0,0.0,0.0,0.0,0.0,0.0,0.0,0.0,0.0,0.0,0.0,0.0,0.0,0.0,0.0,0.0,-1.5272,-1.5281,-1.7594,-1.6778,-1.5475,0.0,0.0,0.0,0.0,0.0,0.0,0.0,0.0,0.0,0.0,0.0,0.0,0.0,0.0,0.0,0.0,0.0,0.0,0.0,0.0,0.0,0.0,0.0,0.0,0.0,0.0,0.0,0.0,0.0,0.0,0.0,0.0,0.0,0.0,0.0,0.0,0.0,0.0,0.0,0.0,0.0,0.0,0.0,0.0,0.0,0.0,0.0,0.0,0.0,0.0,0.0,0.0,0.0,0.0,0.0,0.0,0.0,0.0,0.0,0.0,0.0,0.0,0.0,0.0,0.0,0.0,0.0,0.0,0.0,0.0,0.0,0.0,0.0,0.0,0.0,0.0,0.0,0.0,0.0,0.0,0.0,0.0,0.0,0.0,0.0,0.0,0.0,0.0,0.0,0.0,0.0,0.0,0.0,0.0,0.0,0.0,0.0,0.0,0.0,0.0,0.0,0.0,0.0,0.0,0.0,0.0,0.0,0.0,0.0,-1.2978,-1.3689,-1.5745,-1.9079,-1.6371,-1.4812,0.0,0.0,0.0,0.0,0.0,0.0,0.0,0.0,0.0,0.0,0.0,0.0,0.0,0.0,0.0,0.0,0.0,0.0,0.0,0.0,0.0,0.0,0.0,0.0,0.0,0.0,0.0,0.0,0.0,0.0,0.0,0.0,0.0,0.0,0.0,0.0,0.0,0.0,0.0,0.0,0.0,0.0,0.0,0.0,0.0,0.0,0.0,0.0,0.0,0.0,0.0,0.0,0.0,0.0,0.0,0.0,0.0,0.0,0.0,0.0,0.0,0.0,0.0,0.0,0.0,0.0,0.0,0.0,0.0,0.0,0.0,0.0,0.0,0.0,0.0,0.0,0.0,0.0,0.0,0.0,0.0,0.0,0.0,0.0,0.0,0.0,0.0,0.0,0.0,0.0,0.0,0.0,0.0,0.0,0.0,0.0,0.0,0.0,0.0,0.0,0.0,0.0,0.0,0.0,0.0,0.0,0.0,0.0,0.0,-1.2271,0.0,-1.6574,0.0,-1.5592,-1.3691,0.0,0.0,0.0,0.0,0.0,0.0,0.0,0.0,0.0,0.0,0.0,0.0,0.0,0.0,0.0,0.0,0.0,0.0,0.0,0.0,0.0,0.0,0.0,0.0,0.0,0.0,0.0,0.0,0.0,0.0,0.0,0.0,0.0,0.0,0.0,0.0,0.0,0.0,0.0,0.0,0.0,0.0,0.0,0.0,0.0,0.0,0.0,0.0,0.0,0.0,0.0,0.0,0.0,0.0,0.0,0.0,0.0,0.0,0.0,0.0,0.0,0.0,0.0,0.0,0.0,0.0,0.0,0.0,0.0,0.0,0.0,0.0,0.0,0.0,0.0,0.0,0.0,0.0,0.0,0.0,0.0,0.0,0.0,0.0,0.0,0.0,0.0,0.0,0.0,0.0,0.0,0.0,0.0,0.0,0.0,0.0,0.0,0.0,0.0,0.0,0.0,0.0,0.0,0.0,0.0,0.0,0.0,0.0,-1.2227,-1.6087,-1.7544,-1.759,-1.6281,-1.4648,-1.2268,0.0,0.0,0.0,0.0,0.0,0.0,0.0,0.0,0.0,0.0,0.0,0.0,0.0,0.0,0.0,0.0,0.0,0.0,0.0,0.0,0.0,0.0,0.0,0.0,0.0,0.0,0.0,0.0,0.0,0.0,0.0,0.0,0.0,0.0,0.0,0.0,0.0,0.0,0.0,0.0,0.0,0.0,0.0,0.0,0.0,0.0,0.0,0.0,0.0,0.0,0.0,0.0,0.0,0.0,0.0,0.0,0.0,0.0,0.0,0.0,0.0,0.0,0.0,0.0,0.0,0.0,0.0,0.0,0.0,0.0,0.0,0.0,0.0,0.0,0.0,0.0,0.0,0.0,0.0,0.0,0.0,0.0,0.0,0.0,0.0,0.0,0.0,0.0,0.0,0.0,0.0,0.0,0.0,0.0,0.0,0.0,0.0,0.0,0.0,0.0,0.0,0.0,0.0,0.0,0.0,0.0,0.0,0.0,0.0,-1.3716,-1.5172,-1.639,-1.7154,-1.4219,-1.2526,0.0,0.0,0.0,0.0,0.0,0.0,0.0,0.0,0.0,0.0,0.0,0.0,0.0,0.0,0.0,0.0,0.0,0.0,0.0,0.0,0.0,0.0,0.0,0.0,0.0,0.0,0.0,0.0,0.0,0.0,0.0,0.0,0.0,0.0,0.0,0.0,0.0,0.0,0.0,0.0,0.0,0.0,0.0,0.0,0.0,0.0,0.0,0.0,0.0,0.0,0.0,0.0,0.0,0.0,0.0,0.0,0.0,0.0,0.0,0.0,0.0,0.0,0.0,0.0,0.0,0.0,0.0,0.0,0.0,0.0,0.0,0.0,0.0,0.0,0.0,0.0,0.0,0.0,0.0,0.0,0.0,0.0,0.0,0.0,0.0,0.0,0.0,0.0,0.0,0.0,0.0,0.0,0.0,0.0,0.0,0.0,0.0,0.0,0.0,0.0,0.0,0.0,0.0,0.0,0.0,0.0,0.0,0.0,0.0,-1.376,-1.5439,-1.6649,-1.7294,-1.4184,-1.2556,-1.2621,0.0,0.0,0.0,0.0,0.0,0.0,0.0,0.0,0.0,0.0,0.0,0.0,0.0,0.0,0.0,0.0,0.0,0.0,0.0,0.0,0.0,0.0,0.0,0.0,0.0,0.0,0.0,0.0,0.0,0.0,0.0,0.0,0.0,0.0,0.0,0.0,0.0,0.0,0.0,0.0,0.0,0.0,0.0,0.0,0.0,0.0,0.0,0.0,0.0,0.0,0.0,0.0,0.0,0.0,0.0,0.0,0.0,0.0,0.0,0.0,0.0,0.0,0.0,0.0,0.0,0.0,0.0,0.0,0.0,0.0,0.0,0.0,0.0,0.0,0.0,0.0,0.0,0.0,0.0,0.0,0.0,0.0,0.0,0.0,0.0,0.0,0.0,0.0,0.0,0.0,0.0,0.0,0.0,0.0,0.0,0.0,0.0,0.0,0.0,0.0,0.0,0.0,0.0,0.0,0.0,0.0,0.0,0.0,-1.5638,-1.7809,-1.8231,-1.6747,-1.4578,-1.2565,0.0,0.0,0.0,0.0,0.0,0.0,0.0,0.0,0.0,0.0,0.0,0.0,0.0,0.0,0.0,0.0,0.0,0.0,0.0,0.0,0.0,0.0,0.0,0.0,0.0,0.0,0.0,0.0,0.0,0.0,0.0,0.0,0.0,0.0,0.0,0.0,0.0,0.0,0.0,0.0,0.0,0.0,0.0,0.0,0.0,0.0,0.0,0.0,0.0,0.0,0.0,0.0,0.0,0.0,0.0,0.0,0.0,0.0,0.0,0.0,0.0,0.0,0.0,0.0,0.0,0.0,0.0,0.0,0.0,0.0,0.0,0.0,0.0,0.0,0.0,0.0,0.0,0.0,0.0,0.0,0.0,0.0,0.0,0.0,0.0,0.0,0.0,0.0,0.0,0.0,0.0,0.0,0.0,0.0,0.0,0.0,0.0,0.0,0.0,0.0,0.0,0.0,0.0,0.0,0.0,0.0,0.0,0.0,0.0,-1.6119,-1.7816,-1.8741,-1.8732,-1.6181,-1.4248,0.0,0.0,0.0,0.0,0.0,0.0,0.0,0.0,0.0,0.0,0.0,0.0,0.0,0.0,0.0,0.0,0.0,0.0,0.0,0.0,0.0,0.0,0.0,0.0,0.0,0.0,0.0,0.0,0.0,0.0,0.0,0.0,0.0,0.0,0.0,0.0,0.0,0.0,0.0,0.0,0.0,0.0,0.0,0.0,0.0,0.0,0.0,0.0,0.0,0.0,0.0,0.0,0.0,0.0,0.0,0.0,0.0,0.0,0.0,0.0,0.0,0.0,0.0,0.0,0.0,0.0,0.0,0.0,0.0,0.0,0.0,0.0,0.0,0.0,0.0,0.0,0.0,0.0,0.0,0.0,0.0,0.0,0.0,0.0,0.0,0.0,0.0,0.0,0.0,0.0,0.0,0.0,0.0,0.0,0.0,0.0,0.0,0.0,0.0,0.0,0.0,0.0,0.0,0.0,0.0,0.0,0.0,0.0,-1.5422,-1.6677,-1.7837,-1.8629,-1.9007,-1.7071,-1.528,0.0,0.0,0.0,0.0,0.0,0.0,0.0,0.0,0.0,0.0,0.0,0.0,0.0,0.0,0.0,0.0,0.0,0.0,0.0,0.0,0.0,0.0,0.0,0.0,0.0,0.0,0.0,0.0,0.0,0.0,0.0,0.0,0.0,0.0,0.0,0.0,0.0,0.0,0.0,0.0,0.0,0.0,0.0,0.0,0.0,0.0,0.0,0.0,0.0,0.0,0.0,0.0,0.0,0.0,0.0,0.0,0.0,0.0,0.0,0.0,0.0,0.0,0.0,0.0,0.0,0.0,0.0,0.0,0.0,0.0,0.0,0.0,0.0,0.0,0.0,0.0,0.0,0.0,0.0,0.0,0.0,0.0,0.0,0.0,0.0,0.0,0.0,0.0,0.0,0.0,0.0,0.0,0.0,0.0,0.0,0.0,0.0,0.0,0.0,0.0,0.0,0.0,0.0,0.0,0.0,0.0,0.0,0.0,-1.6009,-1.7136,-1.7898,-1.8263,-1.8155,-1.742,-1.5837,0.0,0.0,0.0,0.0,0.0,0.0,0.0,0.0,0.0,0.0,0.0,0.0,0.0,0.0,0.0,0.0,0.0,0.0,0.0,0.0,0.0,0.0,0.0,0.0,0.0,0.0,0.0,0.0,0.0,0.0,0.0,0.0,0.0,0.0,0.0,0.0,0.0,0.0,0.0,0.0,0.0,0.0,0.0,0.0,0.0,0.0,0.0,0.0,0.0,0.0,0.0,0.0,0.0,0.0,0.0,0.0,0.0,0.0,0.0,0.0,0.0,0.0,0.0,0.0,0.0,0.0,0.0,0.0,0.0,0.0,0.0,0.0,0.0,0.0,0.0,0.0,0.0,0.0,0.0,0.0,0.0,0.0,0.0,0.0,0.0,0.0,0.0,0.0,0.0,0.0,0.0,0.0,0.0,0.0,0.0,0.0,0.0,0.0,0.0,0.0,0.0,0.0,0.0,0.0,0.0,0.0,0.0,0.0,-1.6218,-1.6955,-1.7742,-1.8095,-1.7957,-1.7446,-1.5987,0.0,0.0,0.0,0.0,0.0,0.0,0.0,0.0,0.0,0.0,0.0,0.0,0.0,0.0,0.0,0.0,0.0,0.0,0.0,0.0,0.0,0.0,0.0,0.0,0.0,0.0,0.0,0.0,0.0,0.0,0.0,0.0,0.0,0.0,0.0,0.0,0.0,0.0,0.0,0.0,0.0,0.0,0.0,0.0,0.0,0.0,0.0,0.0,-1.0189,0.0,0.0,0.0,0.0,0.0,0.0,0.0,0.0,0.0,0.0,0.0,0.0,0.0,0.0,0.0,0.0,0.0,0.0,0.0,0.0,0.0,0.0,0.0,0.0,0.0,0.0,0.0,0.0,0.0,0.0,0.0,0.0,0.0,0.0,0.0,0.0,0.0,0.0,0.0,0.0,0.0,0.0,0.0,0.0,0.0,0.0,0.0,0.0,0.0,0.0,0.0,0.0,0.0,0.0,0.0,0.0,0.0,0.0,0.0,-1.6788,-1.7352,-1.777,-1.7922,-1.7822,-1.7224,-1.5782,0.0,0.0,0.0,0.0,0.0,0.0,0.0,0.0,0.0,0.0,0.0,0.0,0.0,0.0,0.0,0.0,0.0,0.0,0.0,0.0,0.0,0.0,0.0,0.0,0.0,0.0,0.0,0.0,0.0,0.0,0.0,0.0,0.0,0.0,0.0,0.0,0.0,0.0,0.0,0.0,0.0,0.0,0.0,0.0,0.0,0.0,0.0,0.0,0.0,0.0,0.0,0.0,0.0,0.0,0.0,0.0,0.0,0.0,0.0,0.0,0.0,0.0,0.0,0.0,0.0,0.0,0.0,0.0,0.0,0.0,0.0,0.0,0.0,0.0,0.0,0.0,0.0,0.0,0.0,0.0,0.0,0.0,0.0,0.0,0.0,0.0,0.0,0.0,0.0,0.0,0.0,0.0,0.0,0.0,0.0,0.0,0.0,0.0,0.0,0.0,0.0,0.0,0.0,0.0,0.0,0.0,0.0,-1.586,-1.715,-1.7688,-1.7766,-1.7729,-1.7597,-1.6881,-1.5444,-1.3261,0.0,0.0,0.0,0.0,0.0,0.0,0.0,0.0,0.0,0.0,0.0,0.0,0.0,0.0,0.0,0.0,0.0,0.0,0.0,0.0,0.0,0.0,0.0,0.0,0.0,0.0,0.0,0.0,0.0,0.0,0.0,0.0,0.0,0.0,0.0,0.0,0.0,0.0,-1.0229,-1.1018,0.0,0.0,0.0,0.0,0.0,0.0,0.0,0.0,-1.3152,0.0,0.0,0.0,0.0,0.0,0.0,0.0,0.0,0.0,0.0,0.0,0.0,0.0,0.0,0.0,0.0,0.0,0.0,0.0,0.0,0.0,0.0,0.0,0.0,0.0,0.0,0.0,0.0,0.0,0.0,0.0,0.0,0.0,0.0,0.0,0.0,0.0,0.0,0.0,0.0,0.0,0.0,0.0,0.0,0.0,0.0,0.0,0.0,0.0,0.0,0.0,0.0,0.0,0.0,0.0,0.0,-1.4674,-1.5447,-1.6189,-1.6877,-1.7429,-1.7395,-1.6753,-1.6569,-1.5099,-1.2272,0.0,0.0,0.0,0.0,0.0,0.0,0.0,0.0,0.0,0.0,0.0,0.0,0.0,0.0,0.0,0.0,0.0,0.0,0.0,0.0,0.0,0.0,0.0,0.0,0.0,0.0,0.0,0.0,0.0,0.0,0.0,0.0,0.0,0.0,0.0,0.0,0.0,0.0,0.0,-1.314,-1.4169,0.0,0.0,0.0,0.0,0.0,0.0,0.0,0.0,-1.3272,0.0,0.0,0.0,0.0,0.0,0.0,0.0,0.0,0.0,0.0,0.0,0.0,0.0,0.0,0.0,0.0,0.0,0.0,0.0,0.0,0.0,0.0,0.0,0.0,0.0,0.0,0.0,0.0,0.0,0.0,0.0,0.0,0.0,0.0,0.0,0.0,0.0,0.0,0.0,0.0,0.0,0.0,0.0,0.0,0.0,0.0,0.0,0.0,0.0,0.0,0.0,0.0,0.0,0.0,0.0,-1.3566,-1.5255,-1.6298,-1.6652,-1.7266,-1.7263,-1.6503,-1.5628,-1.4092,0.0,0.0,0.0,0.0,0.0,0.0,0.0,0.0,0.0,0.0,0.0,0.0,0.0,0.0,0.0,0.0,0.0,0.0,0.0,0.0,0.0,0.0,0.0,0.0,0.0,0.0,0.0,0.0,0.0,0.0,0.0,0.0,0.0,0.0,0.0,0.0,0.0,0.0,0.0,0.0,-1.3402,-1.51,-1.6337,0.0,0.0,0.0,0.0,0.0,0.0,-1.4787,-1.428,0.0,0.0,0.0,0.0,0.0,0.0,0.0,0.0,0.0,0.0,0.0,0.0,0.0,0.0,0.0,0.0,0.0,0.0,0.0,0.0,0.0,0.0,0.0,0.0,0.0,0.0,0.0,0.0,0.0,0.0,0.0,0.0,0.0,0.0,0.0,0.0,0.0,0.0,0.0,0.0,0.0,0.0,0.0,0.0,0.0,0.0,0.0,0.0,0.0,0.0,0.0,0.0,0.0,0.0,0.0,-1.2145,-1.4618,-1.6076,-1.6378,-1.6981,-1.6972,-1.627,-1.5051,-1.3535,0.0,0.0,0.0,0.0,0.0,0.0,0.0,0.0,0.0,0.0,0.0,0.0,0.0,0.0,0.0,0.0,0.0,0.0,0.0,0.0,0.0,0.0,0.0,0.0,0.0,0.0,0.0,0.0,0.0,0.0,0.0,0.0,0.0,0.0,0.0,0.0,0.0,0.0,0.0,0.0,0.0,-1.6155,-1.7767,-1.6649,0.0,0.0,0.0,0.0,-1.7673,-1.6505,0.0,0.0,0.0,0.0,0.0,0.0,0.0,0.0,0.0,0.0,0.0,0.0,0.0,0.0,0.0,0.0,0.0,0.0,0.0,0.0,0.0,0.0,0.0,0.0,0.0,0.0,0.0,0.0,0.0,0.0,0.0,0.0,0.0,0.0,0.0,0.0,0.0,0.0,0.0,0.0,0.0,0.0,0.0,0.0,0.0,0.0,0.0,0.0,0.0,0.0,0.0,0.0,0.0,0.0,0.0,0.0,-1.1265,-1.2848,-1.4278,-1.5511,-1.6242,-1.624,-1.5487,-1.5924,-1.4504,0.0,0.0,0.0,0.0,0.0,0.0,0.0,0.0,0.0,0.0,0.0,0.0,0.0,0.0,0.0,0.0,0.0,0.0,0.0,0.0,0.0,0.0,0.0,0.0,0.0,0.0,0.0,0.0,0.0,0.0,0.0,0.0,0.0,0.0,0.0,0.0,0.0,0.0,0.0,0.0,0.0,-1.8655,-1.8154,-1.8134,-1.8524,0.0,0.0,-1.7678,-1.8469,-1.7283,0.0,0.0,0.0,0.0,0.0,0.0,0.0,0.0,0.0,0.0,0.0,0.0,0.0,0.0,0.0,0.0,0.0,0.0,0.0,0.0,0.0,0.0,0.0,0.0,0.0,0.0,0.0,0.0,0.0,0.0,0.0,0.0,0.0,0.0,0.0,0.0,0.0,0.0,0.0,0.0,0.0,0.0,0.0,0.0,0.0,0.0,0.0,0.0,0.0,0.0,0.0,0.0,0.0,0.0,0.0,-1.0769,-1.1147,-1.2941,-1.4358,-1.5365,-1.5671,-1.5637,-1.5305,-1.4766,-1.335,0.0,0.0,0.0,0.0,0.0,0.0,0.0,0.0,0.0,0.0,0.0,0.0,0.0,0.0,0.0,0.0,0.0,0.0,0.0,0.0,0.0,0.0,0.0,0.0,0.0,0.0,0.0,0.0,0.0,0.0,0.0,0.0,0.0,0.0,0.0,0.0,0.0,0.0,0.0,0.0,0.0,0.0,-1.9092,-1.9194,0.0,0.0,0.0,-1.9741,-2.0072,0.0,0.0,0.0,0.0,0.0,0.0,0.0,0.0,0.0,0.0,0.0,0.0,0.0,0.0,0.0,0.0,0.0,0.0,0.0,0.0,0.0,0.0,0.0,0.0,0.0,0.0,0.0,0.0,0.0,0.0,0.0,0.0,0.0,0.0,0.0,0.0,0.0,0.0,0.0,0.0,0.0,0.0,0.0,0.0,0.0,0.0,0.0,0.0,0.0,0.0,0.0,0.0,0.0,0.0,0.0,0.0,0.0,-1.1138,-1.3017,-1.4389,-1.5089,-1.5067,-1.5022,-1.4984,-1.3897,0.0,0.0,0.0,0.0,0.0,0.0,0.0,0.0,0.0,0.0,0.0,0.0,0.0,0.0,0.0,0.0,0.0,0.0,0.0,0.0,0.0,0.0,0.0,0.0,0.0,0.0,0.0,-0.5855,0.0,0.0,0.0,0.0,0.0,0.0,0.0,0.0,0.0,0.0,0.0,0.0,0.0,0.0,-1.8913,-2.0511,-2.0496,-2.0607,0.0,0.0,-2.1413,-2.1443,-2.0633,-1.9478,0.0,0.0,0.0,0.0,0.0,0.0,0.0,0.0,0.0,0.0,0.0,0.0,0.0,0.0,0.0,0.0,0.0,0.0,0.0,0.0,0.0,0.0,0.0,0.0,0.0,0.0,0.0,0.0,0.0,0.0,0.0,0.0,0.0,0.0,0.0,0.0,0.0,0.0,0.0,0.0,0.0,0.0,0.0,0.0,0.0,0.0,0.0,0.0,0.0,0.0,0.0,0.0,0.0,0.0,0.0,-1.1155,-1.2538,-1.3644,-1.4347,-1.43,-1.428,-1.428,-1.4281,-1.3337,0.0,0.0,0.0,0.0,0.0,0.0,0.0,0.0,0.0,0.0,0.0,0.0,0.0,0.0,0.0,0.0,0.0,0.0,0.0,0.0,0.0,0.0,0.0,0.0,0.0,0.0,0.0,0.0,0.0,0.0,0.0,0.0,0.0,0.0,0.0,0.0,0.0,0.0,0.0,0.0,0.0,-2.1495,-2.2562,-2.2317,-2.2297,0.0,0.0,-2.219,-2.214,-2.0946,-1.9458,-1.7882,0.0,0.0,0.0,0.0,0.0,0.0,0.0,0.0,0.0,0.0,0.0,0.0,0.0,0.0,0.0,0.0,0.0,0.0,0.0,0.0,0.0,0.0,0.0,0.0,0.0,0.0,0.0,0.0,0.0,0.0,0.0,0.0,0.0,0.0,0.0,0.0,0.0,0.0,0.0,0.0,0.0,0.0,0.0,0.0,0.0,0.0,0.0,0.0,0.0,0.0,0.0,0.0,0.0,-1.1113,-1.1127,-1.2488,-1.3536,-1.4182,-1.3777,-1.3741,-1.4243,-1.3915,-1.2907,0.0,0.0,0.0,0.0,0.0,0.0,0.0,0.0,0.0,0.0,0.0,0.0,0.0,0.0,0.0,0.0,0.0,0.0,0.0,0.0,0.0,0.0,0.0,0.0,0.0,0.0,0.0,0.0,-0.8498,-0.9089,-0.959,0.0,0.0,0.0,0.0,0.0,0.0,0.0,0.0,0.0,0.0,-2.1457,-2.1755,-2.2344,0.0,0.0,-2.3436,-2.345,-2.306,-2.1903,-2.06,-1.9297,-1.8116,0.0,0.0,0.0,0.0,0.0,0.0,0.0,0.0,0.0,0.0,0.0,0.0,0.0,0.0,0.0,0.0,0.0,0.0,0.0,0.0,0.0,0.0,0.0,0.0,0.0,0.0,0.0,0.0,0.0,0.0,0.0,0.0,0.0,0.0,0.0,0.0,0.0,0.0,0.0,0.0,0.0,0.0,0.0,0.0,0.0,0.0,0.0,0.0,0.0,0.0,0.0,0.0,-1.1107,-1.1113,-1.248,-1.3426,-1.3897,-1.3368,-1.3361,-1.3929,-1.353,-1.2644,0.0,0.0,0.0,0.0,0.0,0.0,0.0,0.0,0.0,0.0,0.0,0.0,0.0,0.0,0.0,0.0,0.0,0.0,0.0,0.0,0.0,0.0,0.0,0.0,0.0,0.0,0.0,0.0,-0.9093,-0.9445,-1.0005,0.0,0.0,0.0,0.0,0.0,0.0,0.0,0.0,0.0,0.0,-2.1903,-2.2082,-2.2896,-2.3497,-2.3514,-2.3996,-2.4075,-2.3184,-2.2608,-2.1658,-1.9839,0.0,0.0,0.0,0.0,0.0,0.0,0.0,0.0,0.0,0.0,0.0,0.0,0.0,0.0,0.0,0.0,0.0,0.0,0.0,0.0,0.0,0.0,0.0,0.0,0.0,0.0,0.0,0.0,0.0,0.0,-0.6063,0.0,0.0,0.0,0.0,0.0,0.0,0.0,0.0,0.0,0.0,0.0,0.0,0.0,0.0,0.0,0.0,0.0,0.0,0.0,0.0,0.0,0.0,-1.1099,-1.1104,-1.2488,-1.32,-1.3223,-1.3136,-1.3137,-1.3243,-1.3295,-1.2707,-1.1425,0.0,0.0,0.0,0.0,0.0,0.0,0.0,0.0,0.0,0.0,0.0,0.0,0.0,0.0,0.0,0.0,0.0,0.0,0.0,0.0,0.0,0.0,0.0,0.0,0.0,0.0,-0.8912,-0.9557,-0.9958,0.0,0.0,0.0,0.0,0.0,0.0,0.0,0.0,0.0,0.0,-2.1639,-2.336,-2.4156,-2.433,-2.4312,-2.4284,-2.4275,-2.3785,-2.2339,-2.2891,-2.2412,0.0,0.0,0.0,0.0,0.0,0.0,0.0,0.0,0.0,0.0,0.0,0.0,0.0,0.0,0.0,0.0,0.0,0.0,0.0,0.0,0.0,0.0,0.0,0.0,0.0,0.0,0.0,-0.6348,-0.5948,0.0,0.0,0.0,0.0,0.0,0.0,0.0,0.0,0.0,0.0,0.0,-0.985,-1.0886,0.0,0.0,0.0,0.0,0.0,0.0,0.0,0.0,0.0,0.0,0.0,0.0,-1.1073,-1.11,-1.2456,-1.3181,-1.3128,-1.311,-1.3121,-1.3218,-1.3261,-1.2707,-1.1425,0.0,0.0,0.0,0.0,0.0,0.0,0.0,0.0,0.0,0.0,0.0,0.0,0.0,0.0,0.0,0.0,0.0,0.0,0.0,0.0,0.0,0.0,0.0,0.0,0.0,-0.9733,0.0,0.0,0.0,0.0,0.0,0.0,0.0,0.0,0.0,0.0,0.0,-1.786,-1.9753,-2.2243,-2.3873,-2.3821,-2.4058,-2.4275,0.0,0.0,0.0,0.0,0.0,0.0,0.0,0.0,0.0,0.0,0.0,0.0,0.0,0.0,-2.0533,-1.7315,-1.5633,-1.484,-1.5136,0.0,0.0,0.0,0.0,0.0,0.0,0.0,0.0,0.0,0.0,0.0,0.0,0.0,0.0,-0.708,0.0,-0.6768,0.0,0.0,0.0,0.0,0.0,0.0,0.0,0.0,-1.0188,-1.0578,-1.0652,-1.1686,-1.1972,0.0,-1.2215,-1.1471,0.0,0.0,0.0,0.0,0.0,0.0,0.0,0.0,-1.1202,-1.1429,-1.2548,-1.3154,-1.3084,-1.3075,-1.3095,-1.3192,-1.3042,-1.2443,-1.1382,-1.0201,-0.9403,0.0,0.0,0.0,0.0,0.0,0.0,0.0,0.0,0.0,0.0,0.0,0.0,0.0,0.0,0.0,0.0,0.0,0.0,0.0,0.0,0.0,0.0,0.0,-1.0077,0.0,0.0,0.0,0.0,0.0,0.0,0.0,0.0,0.0,-1.5093,-1.7217,-1.9265,-2.0646,-2.2632,-2.3921,-2.3825,0.0,0.0,0.0,0.0,0.0,0.0,0.0,-2.248,-2.2745,-2.2405,-2.2066,-2.1981,-2.2683,-2.3071,-2.2512,0.0,0.0,-1.9747,-1.814,-1.7352,-1.7533,-1.7185,-1.6943,-1.7142,-1.7425,-1.7617,0.0,0.0,0.0,0.0,0.0,0.0,0.0,0.0,-0.6774,-0.7386,0.0,-0.7754,0.0,0.0,0.0,0.0,0.0,-0.8773,0.0,0.0,-1.0399,-1.1056,-1.2294,-1.2967,-1.3303,-1.3397,-1.4644,-1.406,-1.1822,-1.0979,0.0,0.0,0.0,0.0,0.0,0.0,-1.1446,-1.208,-1.2747,-1.3084,-1.3084,-1.3031,-1.3066,-1.3181,-1.2638,-1.2033,-1.1314,-1.0619,-0.9634,-0.8326,-0.8209,0.0,0.0,0.0,0.0,0.0,0.0,0.0,0.0,0.0,0.0,0.0,0.0,0.0,0.0,0.0,0.0,0.0,0.0,0.0,0.0,-0.9072,0.0,0.0,0.0,0.0,0.0,0.0,0.0,0.0,0.0,0.0,-1.5612,-1.795,-2.0424,-2.1985,0.0,0.0,0.0,0.0,-2.4257,-2.42,-2.4199,-2.3924,-2.3189,-2.382,-2.3823,-2.2192,0.0,0.0,-2.2763,-2.3399,-2.3731,-2.2668,-2.3277,-2.3917,-2.3866,-2.2242,-2.1294,-2.1836,-2.0696,-2.0044,-2.0486,-2.0293,-2.0286,-0.6984,0.0,0.0,0.0,0.0,-0.7566,-0.7923,-0.8298,-0.8525,-0.8708,-0.8861,-0.8567,0.0,0.0,0.0,0.0,0.0,0.0,-0.9913,-1.0701,-1.1251,-1.1939,-1.2654,-1.3361,-1.37,-1.3827,-1.4278,-1.414,-1.3549,-1.2614,-1.1231,-0.9518,0.0,0.0,0.0,0.0,-1.1808,-1.1992,-1.2609,-1.2961,-1.2942,-1.2987,-1.3067,-1.3183,-1.3126,-1.2496,-1.1264,-1.111,-1.0412,-0.9055,-0.852,0.0,0.0,0.0,0.0,0.0,0.0,0.0,0.0,0.0,0.0,0.0,0.0,0.0,0.0,0.0,0.0,0.0,0.0,0.0,-0.9214,-0.9649,-1.0317,0.0,0.0,0.0,0.0,0.0,0.0,0.0,0.0,0.0,-1.9155,-2.0068,-2.1187,0.0,0.0,-2.4292,-2.4446,-2.4338,-2.4237,-2.4199,-2.4199,0.0,0.0,-2.3612,-2.3446,-2.3502,-2.3897,-2.4061,-2.3715,-2.3879,-2.3914,-2.3508,-2.3701,-2.3896,-2.3783,-2.2887,-2.2135,-2.2108,-2.1277,-2.0565,-2.0661,-2.0564,-2.0409,-0.7788,-0.7543,-0.7577,-0.7715,-0.7927,-0.8215,-0.8527,-0.8863,-0.914,-0.9404,-0.9643,-0.9348,-0.9135,-0.8989,-0.8466,0.0,0.0,0.0,-1.0436,-1.1255,-1.175,-1.2293,-1.2978,-1.3386,-1.3801,-1.4202,-1.4276,-1.4334,-1.4262,-1.3991,-1.281,-1.0857,0.0,0.0,-1.1118,-1.191,-1.2565,-1.3067,-1.3469,-1.3539,-1.3309,-1.3098,-1.3059,-1.3208,-1.332,-1.2676,-1.1267,-1.1325,-1.0729,-0.9326,-0.8922,-0.9015,0.0,0.0,0.0,0.0,0.0,0.0,0.0,0.0,0.0,0.0,0.0,-0.5637,-0.553,0.0,0.0,0.0,-0.776,-0.9044,-1.0671,-1.0909,0.0,0.0,0.0,0.0,0.0,0.0,0.0,-1.764,-1.9497,-2.0873,-2.1511,-2.2014,-2.2576,-2.3213,-2.3967,-2.4432,-2.4386,0.0,-2.4209,-2.4199,-2.4199,-2.4199,-2.419,-2.3795,-2.3648,-2.4116,-2.417,-2.4132,-2.4159,-2.4092,-2.4007,-2.3926,-2.3887,-2.3876,-2.3822,-2.3307,-2.2885,-2.2745,-2.2192,-2.1724,-2.1566,-2.1373,-2.1182,-0.8559,-0.8708,-0.8385,-0.8322,-0.8467,-0.8527,-0.8597,-0.8681,-0.9028,-0.9651,-1.0413,-1.0024,-0.9809,-0.9756,-0.9051,0.0,-0.9778,-1.0371,-1.1079,-1.1903,-1.1954,-1.2415,-1.3218,-1.3269,-1.3693,-1.4476,-1.4592,-1.4506,-1.4285,-1.4935,-1.4539,-1.3053,-1.2139,-1.2101,-1.2894,-1.2929,-1.3565,-1.4834,-1.4762,-1.4492,-1.3889,-1.3347,-1.3124,-1.3188,-1.326,-1.2612,-1.1284,-1.1333,-1.071,-0.9312,-0.932,-0.943,-0.9446,0.0,0.0,0.0,0.0,0.0,0.0,0.0,0.0,0.0,0.0,0.0,0.0,0.0,0.0,0.0,-0.9144,0.0,-1.2043,-1.2563,0.0,0.0,0.0,-1.4537,-1.565,-1.7724,-1.9182,-1.9448,0.0,0.0,-2.2841,-2.3584,-2.4201,-2.4208,-2.419,-2.421,-2.4194,-2.421,-2.4201,-2.4209,-2.4199,-2.4199,-2.4199,-2.4144,-2.4144,-2.419,-2.4199,-2.4198,-2.4206,-2.4159,-2.4045,-2.3937,-2.3908,-2.3885,-2.3807,-2.3685,-2.3625,-2.3445,-2.3251,-2.3067,-2.2755,-2.2495,-2.2235,-0.8544,-0.8919,-0.8841,-0.8847,-0.8868,-0.9049,-0.9117,-0.916,-0.9592,-0.9949,-1.0164,-1.0,-0.9938,-0.9862,-0.9856,-1.0025,-1.0395,-1.0701,-1.1258,-1.2044,-1.2254,-1.2737,-1.3434,-1.3625,-1.3873,-1.4123,-1.4305,-1.448,-1.4569,-1.447,-1.4332,-1.4161,-1.3605,-1.3274,-1.3233,-1.38,-1.422,-1.4514,-1.4507,-1.4258,-1.3758,-1.3702,-1.3506,-1.3126,-1.3192,-1.2563,-1.12,-1.1266,-1.0675,-0.9303,-0.9282,-0.9367,-0.9474,-0.8627,0.0,0.0,0.0,0.0,0.0,0.0,0.0,0.0,0.0,-0.665,-0.7069,0.0,-0.8953,0.0,-1.2406,-1.3151,-1.2808,-1.3374,0.0,0.0,-1.5312,-1.5942,-1.8724,-1.8949,-1.9642,-2.1643,-2.2665,-2.3334,-2.3691,-2.4015,-2.42,-2.4201,-2.4201,-2.4191,-2.4201,-2.4201,-2.42,-2.4199,-2.4199,-2.4199,-2.4199,-2.4199,-2.4199,-2.4199,-2.4199,-2.4199,-2.4189,-2.4198,-2.4142,-2.3996,-2.3967,-2.3915,-2.3771,-2.3669,-2.3526,-2.3271,-2.3155,-2.3045,-2.279,-2.2525,-2.2268,-0.8351,-0.8663,-0.8659,-0.8724,-0.8814,-0.9115,-0.9157,-0.9088,-0.9487,-0.9765,-0.9855,-0.9829,-0.9864,-0.9896,-0.9915,-1.0234,-1.0676,-1.0868,-1.141,-1.2211,-1.2415,-1.275,-1.3242,-1.3472,-1.3655,-1.3835,-1.4033,-1.4261,-1.4567,-1.4443,-1.4565,-1.4841,-1.4698,-1.4487,-1.4303,-1.4632,-1.4925,-1.5185,-1.4981,-1.4601,-1.4086,-1.3923,-1.3591,-1.3091,-1.3157,-1.2563,-1.12,-1.1225,-1.0604,-0.9196,-0.9235,-0.934,-0.9394,-0.8703,-0.812,0.0,0.0,0.0,0.0,0.0,0.0,0.0,0.0,0.0,0.0,0.0,-1.0132,-1.2278,-1.3096,-1.3764,-1.4382,-1.4972,-1.5865,-1.7279,-1.7258,-1.7905,-1.9835,-2.0268,-2.1018,-2.2472,-2.3091,-2.3561,-2.4039,-2.418,-2.4199,-2.4199,-2.4199,-2.4199,-2.4199,-2.4199,-2.4199,-2.4199,-2.4199,-2.4199,-2.4199,-2.4199,-2.4199,-2.4199,-2.4199,-2.4199,-2.4199,-2.417,-2.4132,-2.4025,-2.3967,-2.3905,-2.375,-2.3638,-2.3481,-2.3236,-2.3042,-2.2876,-2.2667,-2.2362,-2.211,-0.8095,-0.8205,-0.8208,-0.8385,-0.8576,-0.8964,-0.8962,-0.8704,-0.9116,-0.9364,-0.9465,-0.9573,-0.9727,-0.9905,-0.9775,-1.0093,-1.0802,-1.0967,-1.1506,-1.2324,-1.2401,-1.2615,-1.2867,-1.3053,-1.3301,-1.3554,-1.3768,-1.4033,-1.4319,-1.4606,-1.4894,-1.5147,-1.5351,-1.5448,-1.5492,-1.5317,-1.5522,-1.6143,-1.5713,-1.5152,-1.4452,-1.4098,-1.3613,-1.3018,-1.3056,-1.2487,-1.1262,-1.1202,-1.0548,-0.9249,-0.9411,-0.9503,-0.9416,-0.8833,-0.8433,0.0,-0.8207,0.0,0.0,0.0,0.0,0.0,0.0,0.0,0.0,-1.1162,-1.1799,-1.286,-1.3104,-1.4051,-1.6141,-1.6824,-1.7555,-1.8619,-1.9386,-1.9903,-2.0147,-2.1536,-2.2569,-2.2727,-2.3497,-2.4025,-2.4083,-2.4142,-2.4199,-2.4199,-2.4199,-2.4199,-2.4199,-2.4199,-2.4199,-2.4199,-2.4199,-2.4199,-2.4199,-2.4199,-2.4199,-2.4199,-2.4199,-2.4199,-2.4199,-2.4142,-2.4065,-2.4007,-2.3955,-2.3843,-2.373,-2.3629,-2.3462,-2.3226,-2.2944,-2.2712,-2.2497,-2.2178,-2.1882,-0.7989,-0.8362,-0.8365,-0.8385,-0.8376,-0.8696,-0.8716,-0.8559,-0.8993,-0.9285,-0.9359,-0.9441,-0.9702,-0.9969,-1.0182,-1.0494,-1.0866,-1.1089,-1.1434,-1.192,-1.2077,-1.233,-1.2579,-1.2826,-1.3088,-1.3295,-1.3527,-1.3762,-1.4,-1.4332,-1.462,-1.4863,-1.502,-1.5195,-1.5404,0.0,0.0,0.0,-1.5953,-1.5388,-1.4254,-1.4395,-1.3988,-1.288,-1.2548,0.0,-1.1186,-1.1169,-1.0794,-0.9968,-1.0559,0.0,0.0,0.0,0.0,0.0,0.0,0.0,0.0,0.0,0.0,0.0,-1.104,-1.084,-1.1468,-1.385,-1.4902,-1.3883,-1.5962,-1.7312,-1.7064,-1.8215,-1.9102,-1.9409,-2.0117,-2.0888,-2.1651,-2.2168,-2.2674,-2.3424,-2.3783,-2.3996,-2.4007,-2.4122,-2.4199,-2.4199,-2.4199,-2.4199,-2.4199,-2.4199,-2.4199,-2.4199,-2.4199,-2.4199,-2.4199,-2.4199,-2.4199,-2.4199,-2.4199,-2.4199,-2.4199,-2.4151,-2.4074,-2.3996,-2.3896,-2.378,-2.3697,-2.3512,-2.3298,-2.3064,-2.279,-2.2489,-2.2301,-2.1969,-2.167,-0.7619,0.0,-0.7946,-0.8022,0.0,-0.841,-0.8328,-0.8035,-0.8601,-0.8887,-0.9003,-0.9075,-0.9319,-0.9695,-0.9913,-1.022,-1.0616,-1.084,-1.1175,-1.1542,-1.1768,-1.2024,-1.2335,-1.2579,-1.2791,-1.3012,-1.326,-1.3527,-1.3768,-1.4033,-1.43,-1.462,-1.4756,-1.4942,-1.5156,-1.5306,-1.5544,-1.5827,-1.5983,-1.543,-1.4213,-1.4491,-1.4077,-1.2913,0.0,0.0,0.0,0.0,0.0,0.0,0.0,0.0,0.0,0.0,0.0,-1.0282,-1.0521,-1.0629,-1.0616,-1.1259,-1.1912,-1.2396,-1.2721,-1.2827,-1.2654,-1.4555,-1.5712,-1.5573,-1.6905,-1.7866,-1.829,-1.9113,-1.978,-2.0084,-2.0872,-2.164,-2.214,-2.2691,-2.3163,-2.3592,-2.3891,-2.3978,-2.3978,-2.4113,-2.4199,-2.4199,-2.4199,-2.4199,-2.4199,-2.4199,-2.4199,-2.4199,-2.4199,-2.4199,-2.4199,-2.4199,-2.4199,-2.4199,-2.4199,-2.419,-2.4151,-2.4094,-2.4016,-2.3926,-2.3813,-2.3721,-2.3548,-2.3345,-2.3128,-2.2894,-2.2543,-2.2234,-2.1998,-2.1789,-2.155,-0.7085,-0.7357,-0.7354,-0.7512,-0.7768,-0.8103,-0.7951,-0.7564,0.0,0.0,0.0,-0.8594,-0.8841,-0.9199,-0.9434,-0.9751,-1.0196,-1.0495,-1.0791,-1.1207,-1.1425,-1.1695,-1.1999,-1.2324,-1.2538,-1.2768,-1.2984,-1.326,-1.352,-1.3741,-1.4007,-1.4287,-1.4525,-1.47,-1.4894,-1.5224,-1.5492,-1.5733,-1.5906,-1.5377,-1.4197,-1.4437,-1.4028,-1.2854,-1.288,-1.2656,-1.2106,-1.2145,-1.1899,-1.1317,-1.1511,-1.1586,-1.1466,-1.1449,-1.1457,-1.1492,-1.1984,-1.2036,-1.1538,-1.2651,-1.3193,-1.2726,-1.388,-1.4406,-1.3909,-1.4761,-1.5836,-1.7053,-1.7181,-1.7864,-1.922,-1.9829,-2.0305,-2.0795,-2.1624,-2.2227,-2.241,-2.3084,-2.3571,-2.3709,-2.3873,-2.3978,-2.3996,-2.4113,-2.4199,-2.4199,-2.4199,-2.4199,-2.4199,-2.4199,-2.4199,-2.4199,-2.4199,-2.4199,-2.4199,-2.4199,-2.4199,-2.4199,-2.419,-2.417,-2.4113,-2.4045,-2.3955,-2.3846,-2.3747,-2.3603,-2.3398,-2.3208,-2.2952,-2.2651,-2.2309,-2.1982,-2.1708,-2.1534,-2.1388,-0.6534,-0.6812,-0.6812,-0.6977,-0.7246,-0.7518,-0.759,-0.75,-0.7554,-0.7783,-0.8103,-0.8205,-0.8447,-0.8797,-0.9132,-0.9403,-0.9697,-1.003,-1.0418,-1.0797,-1.1105,-1.1394,-1.1695,-1.1993,-1.2288,-1.2544,-1.2768,-1.2978,-1.3267,-1.352,-1.3755,-1.398,-1.4235,-1.455,-1.4902,-1.5185,-1.5388,-1.5544,-1.577,-1.5287,-1.3981,-1.4318,-1.3889,-1.2644,-1.2317,-1.2124,-1.204,-1.2081,-1.2062,-1.1979,-1.2589,-1.2672,-1.2105,-1.2096,-1.2063,-1.208,-1.2174,-1.2404,-1.2866,-1.3168,-1.3573,-1.4136,-1.444,-1.4587,-1.461,-1.5829,-1.6721,-1.6993,-1.8113,-1.9004,-1.9301,-2.0483,-2.1359,-2.1647,-2.2298,-2.2858,-2.307,-2.3337,-2.3576,-2.3678,-2.3864,-2.3978,-2.4007,-2.4122,-2.4199,-2.4199,-2.4199,-2.4199,-2.4199,-2.4199,-2.4199,-2.4199,-2.4199,-2.4199,-2.4199,-2.4199,-2.4199,-2.4199,-2.4142,-2.4132,-2.4094,-2.3996,-2.3896,-2.3825,-2.3682,-2.3513,-2.3292,-2.306,-2.2747,-2.2334,-2.2046,-2.1832,-2.1518,-2.123,-2.0966,-0.5937,-0.6209,-0.6211,-0.6431,-0.6743,-0.6816,-0.6928,-0.705,-0.6944,-0.7164,-0.7659,-0.7836,-0.8126,-0.8447,-0.8769,-0.9079,-0.9394,-0.9765,-1.0123,-1.05,-1.0797,-1.1094,-1.1468,-1.1721,-1.1987,-1.2288,-1.2544,-1.2768,-1.299,-1.326,-1.3499,-1.3728,-1.4124,-1.4479,-1.4825,-1.5041,-1.5239,-1.5448,-1.5704,-1.5417,-1.4571,-1.4456,-1.3973,-1.311,-1.2673,-1.2441,-1.2485,-1.258,-1.2648,-1.2648,-1.2999,-1.305,-1.2757,-1.2732,-1.274,-1.274,-1.2748,-1.2866,-1.3184,-1.3595,-1.4007,-1.4375,-1.5201,-1.5688,-1.5728,-1.6453,-1.7069,-1.7467,-1.8555,-1.9392,-1.9822,-2.0866,-2.1777,-2.2336,-2.2718,-2.3001,-2.3253,-2.3412,-2.3562,-2.3691,-2.3864,-2.3987,-2.3978,-2.4122,-2.4199,-2.4199,-2.4199,-2.4199,-2.4199,-2.4199,-2.4199,-2.4199,-2.4199,-2.4199,-2.4199,-2.4199,-2.4199,-2.4199,-2.4151,-2.4103,-2.4045,-2.3946,-2.3804,-2.3703,-2.3553,-2.3351,-2.3075,-2.285,-2.2536,-2.2183,-2.1878,-2.1648,-2.1309,-2.0917,-2.0628,-0.5334,-0.5609,-0.5609,-0.5887,-0.623,-0.6185,-0.628,-0.6512,-0.6369,-0.6617,-0.7164,-0.7465,-0.7757,-0.8085,-0.8447,-0.8765,-0.9088,-0.9496,-0.9887,-1.0244,-1.05,-1.0824,-1.1207,-1.142,-1.1695,-1.1987,-1.2288,-1.2544,-1.2768,-1.2978,-1.3288,-1.3615,-1.402,-1.4383,-1.4732,-1.4859,-1.5081,-1.5366,-1.5617,-1.5504,-1.5091,-1.4561,-1.4062,-1.3555,-1.3027,-1.2773,-1.2848,-1.3002,-1.3048,-1.3074,-1.3104,-1.314,-1.3123,-1.3132,-1.3132,-1.3123,-1.314,-1.3132,-1.3199,-1.3859,-1.4351,-1.4563,-1.5791,-1.6647,-1.6829,-1.6995,-1.7309,-1.7944,-1.8793,-1.9666,-2.0331,-2.1232,-2.2065,-2.2781,-2.2902,-2.302,-2.3265,-2.3407,-2.3553,-2.37,-2.3843,-2.3958,-2.4016,-2.4094,-2.417,-2.4199,-2.4199,-2.4199,-2.4199,-2.4199,-2.4199,-2.417,-2.419,-2.4199,-2.4199,-2.417,-2.417,-2.418,-2.4103,-2.4025,-2.3955,-2.3855,-2.3728,-2.3611,-2.3439,-2.3208,-2.2952,-2.2668,-2.2362,-2.2019,-2.173,-2.1427,-2.1023,-2.0703,-2.0449,-0.4849,-0.5009,-0.5122,-0.5452,-0.5842,-0.5728,-0.5849,-0.6117,-0.5955,-0.6102,-0.6541,-0.7047,-0.7423,-0.7753,-0.8089,-0.8447,-0.8765,-0.9159,-0.9607,-1.0015,-1.0312,-1.0606,-1.0954,-1.1212,-1.1431,-1.1653,-1.1993,-1.2282,-1.2508,-1.2733,-1.3104,-1.3575,-1.3908,-1.4188,-1.4501,-1.4718,-1.4987,-1.5298,-1.5366,-1.5291,-1.5008,-1.4485,-1.3953,-1.3433,-1.2898,-1.2663,-1.2727,-1.2848,-1.292,-1.292,-1.2924,-1.2926,-1.2926,-1.2926,-1.2926,-1.2926,-1.2934,-1.2952,-1.3081,-1.3743,-1.4538,-1.5266,-1.6046,-1.6825,-1.7485,-1.76,-1.7656,-1.8028,-1.9197,-2.0096,-2.0378,-2.161,-2.253,-2.2807,-2.2885,-2.3011,-2.3241,-2.3407,-2.3562,-2.3669,-2.3831,-2.3937,-2.3996,-2.4074,-2.4151,-2.4199,-2.4199,-2.419,-2.4199,-2.4199,-2.417,-2.4142,-2.418,-2.4208,-2.4199,-2.4142,-2.4113,-2.4103,-2.3996,-2.3917,-2.3855,-2.381,-2.373,-2.3522,-2.3369,-2.3177,-2.291,-2.265,-2.2271,-2.1869,-2.1556,-2.1159,-2.072,-2.0527,-2.0475,-0.4242,-0.4405,-0.4627,-0.5014,-0.546,-0.5426,-0.556,-0.5802,-0.5692,-0.5793,-0.6102,-0.6535,-0.7002,-0.7541,-0.7882,-0.8209,-0.8529,-0.8903,-0.9261,-0.9607,-0.9961,-1.0317,-1.0616,-1.0916,-1.1207,-1.1431,-1.1684,-1.1951,-1.2282,-1.2627,-1.3035,-1.3446,-1.3682,-1.398,-1.4305,-1.4529,-1.478,-1.5063,-1.5231,-1.5308,-1.5272,-1.4928,-1.4443,-1.3899,-1.3341,-1.2909,-1.2637,-1.2654,-1.2738,-1.2776,-1.2813,-1.285,-1.2832,-1.2832,-1.285,-1.2842,-1.2877,-1.3075,-1.3519,-1.4263,-1.5072,-1.5871,-1.6611,-1.7219,-1.7532,-1.765,-1.7718,-1.7918,-1.917,-2.028,-2.0858,-2.1891,-2.2614,-2.2764,-2.2868,-2.2977,-2.3208,-2.3378,-2.3508,-2.3678,-2.378,-2.3887,-2.3996,-2.4094,-2.417,-2.4199,-2.4199,-2.419,-2.4151,-2.4141,-2.4112,-2.4054,-2.4092,-2.413,-2.4083,-2.4056,-2.4045,-2.4025,-2.3967,-2.3867,-2.3804,-2.3761,-2.3674,-2.3415,-2.3267,-2.3046,-2.2694,-2.239,-2.2056,-2.17,-2.1254,-2.0843,-2.0652,-2.0509,-2.0475,-0.3685,-0.3801,-0.4185,-0.4629,-0.5042,-0.5019,-0.5164,-0.5406,-0.538,-0.5496,-0.5747,-0.6105,-0.6578,-0.716,-0.7579,-0.7957,-0.8328,-0.8655,-0.9024,-0.9288,-0.9744,-1.0049,-1.0346,-1.0616,-1.0911,-1.1169,-1.1425,-1.1726,-1.2108,-1.2508,-1.2902,-1.3248,-1.3452,-1.3728,-1.4098,-1.4298,-1.4554,-1.4839,-1.5079,-1.5275,-1.5397,-1.5283,-1.4943,-1.4401,-1.3698,-1.3118,-1.2709,-1.259,-1.2549,-1.2615,-1.2697,-1.2724,-1.2716,-1.2716,-1.2743,-1.2735,-1.2797,-1.3108,-1.38,-1.4585,-1.5384,-1.6174,-1.6934,-1.7433,-1.7472,-1.7572,-1.775,-1.8099,-1.9234,-2.0289,-2.0917,-2.1906,-2.2526,-2.2685,-2.2799,-2.2961,-2.316,-2.3298,-2.3462,-2.3643,-2.3756,-2.3843,-2.3946,-2.4074,-2.4169,-2.416,-2.4189,-2.4169,-2.4112,-2.4072,-2.4043,-2.3996,-2.403,-2.4049,-2.4005,-2.3996,-2.3976,-2.3935,-2.3885,-2.3822,-2.3741,-2.367,-2.3579,-2.3298,-2.3114,-2.2894,-2.2596,-2.2251,-2.1832,-2.1481,-2.1087,-2.0718,-2.0685,-2.0551,-2.0585,-0.313,-0.3242,-0.3798,-0.4244,-0.4548,-0.4562,-0.4666,-0.4935,-0.4988,-0.5205,-0.5539,-0.5884,-0.6187,-0.6608,-0.716,-0.7621,-0.8024,-0.8472,-0.8882,-0.9217,-0.9554,-0.9862,-1.0123,-1.0307,-1.0611,-1.0911,-1.1169,-1.1579,-1.2066,-1.2354,-1.265,-1.2937,-1.3248,-1.356,-1.3868,-1.4105,-1.4383,-1.4669,-1.4839,-1.5056,-1.5268,-1.5389,-1.5266,-1.4777,-1.3756,-1.316,-1.3079,-1.2593,-1.2343,-1.2419,-1.2479,-1.2526,-1.2507,-1.2507,-1.2546,-1.2601,-1.2621,-1.2951,-1.3716,-1.4481,-1.5251,-1.6028,-1.6896,-1.7403,-1.7401,-1.7472,-1.7816,-1.8622,-1.942,-2.0094,-2.0424,-2.1668,-2.2508,-2.2667,-2.2799,-2.2961,-2.3086,-2.3289,-2.343,-2.3576,-2.373,-2.3831,-2.3905,-2.4016,-2.4092,-2.41,-2.4147,-2.4176,-2.41,-2.4023,-2.3976,-2.3924,-2.3948,-2.3985,-2.3994,-2.3944,-2.3903,-2.3861,-2.3798,-2.3752,-2.362,-2.3471,-2.3345,-2.3168,-2.2952,-2.2721,-2.2497,-2.2155,-2.1678,-2.1333,-2.099,-2.0718,-2.0711,-2.0677,-2.0711,-0.2741,-0.3131,-0.358,-0.3913,-0.4166,-0.4248,-0.4414,-0.4589,-0.4737,-0.4873,-0.512,-0.5496,-0.5841,-0.6187,-0.6729,-0.7231,-0.7686,-0.8062,-0.8472,-0.889,-0.9293,-0.9576,-0.9867,-1.0162,-1.039,-1.0611,-1.0916,-1.1287,-1.1768,-1.2018,-1.2318,-1.2609,-1.2902,-1.3226,-1.3567,-1.3841,-1.4098,-1.4351,-1.456,-1.4742,-1.4963,-1.5081,-1.5139,-1.5045,-1.4087,-1.3385,-1.3008,-1.2419,-1.2159,-1.2285,-1.229,-1.2305,-1.2305,-1.231,-1.2323,-1.2343,-1.2419,-1.2996,-1.4104,-1.4591,-1.5356,-1.6548,-1.7003,-1.7257,-1.7387,-1.7434,-1.7612,-1.8148,-1.9277,-1.9976,-2.034,-2.1521,-2.2532,-2.2587,-2.2773,-2.2928,-2.3036,-2.3217,-2.3392,-2.3522,-2.3691,-2.3834,-2.3896,-2.3978,-2.4034,-2.4089,-2.41,-2.4071,-2.401,-2.3896,-2.381,-2.3822,-2.3825,-2.3792,-2.3739,-2.3795,-2.3774,-2.3734,-2.3691,-2.3611,-2.3508,-2.336,-2.3217,-2.2986,-2.2782,-2.2415,-2.2122,-2.1653,-2.1264,-2.0989,-2.0661,-2.0445,-2.0744,-2.0452,-2.0548,-0.2352,-0.2854,-0.3193,-0.3469,-0.3727,-0.3882,-0.4053,-0.4202,-0.4427,-0.4579,-0.4787,-0.5145,-0.5534,-0.5884,-0.6349,-0.6807,-0.7269,-0.7727,-0.8185,-0.857,-0.8967,-0.9293,-0.959,-0.9941,-1.0201,-1.039,-1.072,-1.1099,-1.1462,-1.1684,-1.1987,-1.236,-1.2573,-1.2867,-1.322,-1.3486,-1.3728,-1.398,-1.4227,-1.442,-1.4631,-1.4766,-1.4883,-1.4898,-1.4239,-1.3576,-1.3081,-1.2501,-1.2124,-1.205,-1.2062,-1.2083,-1.2112,-1.2089,-1.213,-1.2179,-1.2479,-1.3192,-1.4325,-1.4805,-1.5551,-1.6787,-1.7057,-1.7158,-1.733,-1.737,-1.7465,-1.7865,-1.8732,-1.9656,-2.0221,-2.127,-2.2207,-2.2463,-2.2729,-2.2894,-2.2961,-2.3135,-2.3321,-2.3476,-2.3691,-2.381,-2.3873,-2.3917,-2.3965,-2.3971,-2.3955,-2.3917,-2.3843,-2.3753,-2.3665,-2.3712,-2.3683,-2.3625,-2.3553,-2.3526,-2.3558,-2.3526,-2.3504,-2.3444,-2.336,-2.3208,-2.3036,-2.2825,-2.2484,-2.2101,-2.1632,-2.1144,-2.081,-2.0519,-2.0067,-1.9696,-1.9878,-1.9988,-2.0028,-0.1963,-0.2239,-0.2578,-0.2855,-0.3117,-0.3411,-0.3597,-0.3823,-0.4022,-0.4245,-0.4506,-0.4845,-0.5183,-0.5537,-0.597,-0.6395,-0.681,-0.7447,-0.7961,-0.825,-0.8704,-0.9024,-0.9328,-0.9585,-0.9941,-1.0283,-1.0697,-1.0954,-1.1169,-1.1431,-1.1721,-1.2077,-1.2258,-1.2544,-1.2902,-1.3091,-1.3331,-1.3615,-1.3861,-1.4078,-1.4287,-1.4427,-1.4547,-1.4613,-1.4109,-1.37,-1.3424,-1.2856,-1.2249,-1.18,-1.1769,-1.1826,-1.1877,-1.1898,-1.1941,-1.2154,-1.2753,-1.3497,-1.4264,-1.5041,-1.5777,-1.6566,-1.6906,-1.7108,-1.7224,-1.7322,-1.7442,-1.7683,-1.8348,-1.9093,-1.9942,-2.0876,-2.1703,-2.2358,-2.2694,-2.2816,-2.291,-2.3011,-2.3208,-2.3453,-2.3656,-2.3792,-2.3816,-2.3831,-2.3864,-2.3774,-2.3759,-2.3762,-2.3662,-2.3566,-2.3526,-2.3576,-2.3534,-2.3442,-2.336,-2.3277,-2.3286,-2.3286,-2.3271,-2.3232,-2.3144,-2.302,-2.2833,-2.2571,-2.2002,-2.158,-2.0717,-2.0221,-1.9895,-1.9571,-1.9172,-1.901,-1.9168,-1.9317,-1.9242,-0.1515,-0.1626,-0.2128,-0.2408,-0.2515,-0.2987,-0.329,-0.3333,-0.3714,-0.3957,-0.414,-0.4508,-0.4842,-0.5188,-0.5626,-0.6059,-0.6389,-0.695,-0.7499,-0.7961,-0.8406,-0.8777,-0.9024,-0.9297,-0.9655,-1.0059,-1.0351,-1.0582,-1.0802,-1.1062,-1.1356,-1.1664,-1.1889,-1.2186,-1.2556,-1.2685,-1.2896,-1.322,-1.344,-1.3629,-1.3881,-1.4026,-1.4189,-1.4305,-1.416,-1.3693,-1.2872,-1.2439,-1.2024,-1.1541,-1.1519,-1.1578,-1.1667,-1.1696,-1.1754,-1.1937,-1.2591,-1.3359,-1.4169,-1.4981,-1.5777,-1.6457,-1.6829,-1.7015,-1.7182,-1.7281,-1.7418,-1.7624,-1.8265,-1.906,-1.9926,-2.0779,-2.1578,-2.2402,-2.2632,-2.2764,-2.2833,-2.2977,-2.3208,-2.3439,-2.3553,-2.362,-2.37,-2.3756,-2.3747,-2.3676,-2.3635,-2.3568,-2.3513,-2.3374,-2.3319,-2.3389,-2.3313,-2.3234,-2.3135,-2.3044,-2.2994,-2.3019,-2.3003,-2.3011,-2.2919,-2.2756,-2.257,-2.208,-2.1533,-2.0775,-1.9927,-1.9373,-1.9055,-1.8903,-1.8706,-1.8677,-1.8708,-1.8619,-1.8443,-0.0953,-0.101,-0.1624,-0.1906,-0.2017,-0.2516,-0.2854,-0.3021,-0.3369,-0.3588,-0.3785,-0.4085,-0.4451,-0.484,-0.5236,-0.5672,-0.6013,-0.6529,-0.6989,-0.7538,-0.8073,-0.8447,-0.8781,-0.9132,-0.9492,-0.9862,-1.0093,-1.0283,-1.0428,-1.0687,-1.0986,-1.1212,-1.1436,-1.1743,-1.2077,-1.221,-1.2431,-1.272,-1.2953,-1.3148,-1.3365,-1.3547,-1.3728,-1.3855,-1.3934,-1.347,-1.2608,-1.2238,-1.1778,-1.1339,-1.1277,-1.1369,-1.1474,-1.1541,-1.1601,-1.1889,-1.2666,-1.3523,-1.4125,-1.507,-1.5847,-1.6438,-1.6725,-1.693,-1.7099,-1.7215,-1.7362,-1.7587,-1.7982,-1.8632,-1.9478,-2.0314,-2.1155,-2.1949,-2.2424,-2.2668,-2.279,-2.2961,-2.3135,-2.3304,-2.3424,-2.3508,-2.3567,-2.3629,-2.3629,-2.3603,-2.353,-2.345,-2.3387,-2.3233,-2.3197,-2.3142,-2.3086,-2.2995,-2.291,-2.2808,-2.2738,-2.2729,-2.2721,-2.2729,-2.2712,-2.2472,-2.2234,-2.1354,-2.0689,-1.9804,-1.8937,-1.8635,-1.8329,-1.8263,-1.8048,-1.7759,-1.7558,-1.7649,-1.7587,-0.0336,-0.0449,-0.1009,-0.1347,-0.1572,-0.1961,-0.2313,-0.2664,-0.2865,-0.3157,-0.343,-0.3643,-0.3966,-0.4451,-0.4794,-0.5234,-0.5672,-0.6136,-0.6562,-0.6989,-0.7492,-0.8028,-0.8484,-0.8963,-0.9332,-0.9629,-0.9823,-0.9976,-1.0079,-1.0385,-1.0577,-1.072,-1.0986,-1.1287,-1.151,-1.1721,-1.1945,-1.2204,-1.2425,-1.2679,-1.2855,-1.3057,-1.3223,-1.3344,-1.3399,-1.3192,-1.2646,-1.2065,-1.1507,-1.101,-1.1062,-1.1201,-1.13,-1.1399,-1.1489,-1.1667,-1.2967,-1.3635,-1.418,-1.5278,-1.6184,-1.6367,-1.6615,-1.6763,-1.6981,-1.7199,-1.7346,-1.7433,-1.7617,-1.8012,-1.8799,-1.9504,-2.0348,-2.125,-2.2114,-2.2624,-2.2799,-2.2952,-2.3052,-2.3135,-2.3265,-2.3369,-2.3392,-2.3465,-2.3474,-2.343,-2.3374,-2.3282,-2.3197,-2.3061,-2.2962,-2.2894,-2.2859,-2.2781,-2.2685,-2.2552,-2.247,-2.239,-2.2381,-2.2362,-2.2271,-2.1981,-2.1262,-2.0402,-1.9719,-1.8816,-1.8135,-1.7769,-1.7428,-1.7192,-1.687,-1.6526,-1.6581,-1.6851,-1.6992,0.0168,0.0112,-0.0393,-0.0729,-0.0953,-0.1346,-0.1785,-0.2193,-0.2378,-0.2749,-0.3079,-0.3362,-0.3614,-0.3921,-0.4408,-0.4842,-0.5234,-0.5669,-0.6136,-0.652,-0.6855,-0.7534,-0.8197,-0.8683,-0.8971,-0.9221,-0.9417,-0.9562,-0.9677,-1.0005,-1.0205,-1.0273,-1.0572,-1.0845,-1.1072,-1.1244,-1.1468,-1.1689,-1.1957,-1.2132,-1.2324,-1.2538,-1.2714,-1.2814,-1.2924,-1.2768,-1.2289,-1.1581,-1.1001,-1.0666,-1.0808,-1.0944,-1.1062,-1.1162,-1.1315,-1.1736,-1.2783,-1.3686,-1.4111,-1.5259,-1.611,-1.6328,-1.6554,-1.6771,-1.6964,-1.7191,-1.7314,-1.7401,-1.7527,-1.7928,-1.8622,-1.9048,-1.984,-2.113,-2.1985,-2.2563,-2.2712,-2.2816,-2.291,-2.3003,-2.3086,-2.3111,-2.3168,-2.321,-2.3219,-2.3184,-2.3089,-2.3021,-2.2952,-2.286,-2.271,-2.2684,-2.2621,-2.2549,-2.2466,-2.2302,-2.2163,-2.2101,-2.2007,-2.1882,-2.167,-2.1292,-2.018,-1.8972,-1.8599,-1.7852,-1.7247,-1.6788,-1.6456,-1.6351,-1.6336,-1.632,-1.6382,-1.6558,-1.662,0.0785,0.0729,0.0168,-0.0168,-0.0449,-0.0785,-0.1234,-0.1659,-0.1875,-0.2266,-0.2671,-0.2967,-0.326,-0.352,-0.3966,-0.4362,-0.4748,-0.519,-0.5663,-0.6139,-0.6513,-0.7192,-0.7867,-0.8271,-0.8561,-0.8809,-0.8963,-0.9128,-0.9248,-0.9536,-0.973,-0.9804,-1.0113,-1.0351,-1.0515,-1.0731,-1.0954,-1.1132,-1.1394,-1.1584,-1.1847,-1.1993,-1.2168,-1.2276,-1.2378,-1.2252,-1.1898,-1.1511,-1.1055,-1.058,-1.0541,-1.0705,-1.0825,-1.0968,-1.1275,-1.1734,-1.2838,-1.3653,-1.4292,-1.5352,-1.605,-1.6297,-1.6509,-1.6727,-1.694,-1.7125,-1.7306,-1.7354,-1.748,-1.7791,-1.8181,-1.858,-1.9394,-2.05,-2.146,-2.2112,-2.2554,-2.2694,-2.2729,-2.2799,-2.285,-2.2893,-2.2953,-2.2971,-2.2971,-2.291,-2.2729,-2.273,-2.2694,-2.2594,-2.2492,-2.2439,-2.2392,-2.2316,-2.2205,-2.2028,-2.1882,-2.1797,-2.1584,-2.1462,-2.0899,-2.0482,-1.9401,-1.8276,-1.7614,-1.7058,-1.66,-1.6266,-1.6219,-1.6199,-1.6183,-1.6183,-1.6254,-1.6289,-1.6301,0.1403,0.1347,0.0729,0.0336,0.0056,-0.0224,-0.0673,-0.1163,-0.1354,-0.1714,-0.2179,-0.2506,-0.2821,-0.3168,-0.3522,-0.3875,-0.4272,-0.4705,-0.5234,-0.5709,-0.6267,-0.6859,-0.7416,-0.7773,-0.8111,-0.8357,-0.8553,-0.8683,-0.8814,-0.9083,-0.9244,-0.9324,-0.9567,-0.9774,-0.9966,-1.0123,-1.0346,-1.0611,-1.0802,-1.1072,-1.133,-1.1436,-1.1579,-1.1757,-1.1909,-1.176,-1.1611,-1.1551,-1.1296,-1.0249,-1.0404,-1.0573,-1.0632,-1.0859,-1.1392,-1.212,-1.2996,-1.3855,-1.4587,-1.5371,-1.6021,-1.6245,-1.6417,-1.6615,-1.6831,-1.7066,-1.7224,-1.7306,-1.7426,-1.7554,-1.7718,-1.8241,-1.8968,-1.979,-2.0496,-2.1371,-2.2116,-2.2463,-2.2579,-2.2579,-2.2632,-2.2667,-2.2693,-2.2736,-2.2797,-2.2641,-2.2501,-2.2421,-2.2381,-2.2285,-2.2217,-2.2143,-2.2119,-2.2112,-2.1915,-2.1746,-2.1612,-2.1489,-2.1206,-2.0871,-2.0077,-1.9457,-1.8617,-1.7781,-1.7122,-1.666,-1.6274,-1.6075,-1.6004,-1.6004,-1.5975,-1.6011,-1.6047,-1.6075,-1.6095,0.2017,0.196,0.1345,0.0953,0.0673,0.0336,-0.0056,-0.0613,-0.0781,-0.1159,-0.1684,-0.204,-0.2421,-0.2817,-0.317,-0.348,-0.3875,-0.4268,-0.4753,-0.5374,-0.5717,-0.6142,-0.6611,-0.715,-0.7621,-0.787,-0.807,-0.8197,-0.8369,-0.8561,-0.8716,-0.8837,-0.9047,-0.9248,-0.9443,-0.9632,-0.9873,-1.0123,-1.0312,-1.0544,-1.0774,-1.0959,-1.1062,-1.1239,-1.1431,-1.1408,-1.1216,-1.1376,-1.1246,-1.0895,-1.0753,-1.074,-1.0605,-1.1059,-1.1683,-1.2373,-1.3321,-1.4089,-1.4546,-1.5367,-1.5985,-1.6146,-1.6355,-1.6581,-1.673,-1.6983,-1.7166,-1.7281,-1.737,-1.7457,-1.7586,-1.8233,-1.8651,-1.9027,-1.9637,-2.0423,-2.1203,-2.1975,-2.2303,-2.2424,-2.246,-2.2432,-2.2396,-2.2447,-2.2456,-2.2358,-2.2251,-2.2141,-2.2044,-2.1991,-2.1894,-2.1827,-2.1754,-2.1735,-2.162,-2.1402,-2.1262,-2.1047,-2.0733,-2.0302,-1.9492,-1.8654,-1.788,-1.725,-1.6634,-1.6224,-1.5921,-1.5791,-1.5718,-1.5762,-1.577,-1.5791,-1.5791,-1.582,-1.582,0.2629,0.2572,0.1961,0.1569,0.1289,0.0953,0.0505,0.0,-0.026,-0.0655,-0.1141,-0.1576,-0.1971,-0.2375,-0.2729,-0.3081,-0.3434,-0.3961,-0.4447,-0.4891,-0.5193,-0.5488,-0.5755,-0.631,-0.6826,-0.7248,-0.7443,-0.761,-0.7829,-0.8032,-0.8193,-0.8349,-0.8574,-0.8769,-0.8958,-0.9155,-0.9355,-0.9607,-0.976,-0.9996,-1.0278,-1.0433,-1.0616,-1.0802,-1.1062,-1.1142,-1.1135,-1.1346,-1.128,-1.1112,-1.1159,-1.108,-1.088,-1.1387,-1.2102,-1.2817,-1.3523,-1.435,-1.4877,-1.5387,-1.5856,-1.6062,-1.6309,-1.6474,-1.6667,-1.6906,-1.7091,-1.7215,-1.7297,-1.741,-1.7466,-1.7722,-1.8029,-1.8162,-1.8717,-1.932,-1.9915,-2.0924,-2.1891,-2.2085,-2.2175,-2.2147,-2.2143,-2.214,-2.2103,-2.2032,-2.177,-2.1666,-2.1789,-2.1694,-2.1595,-2.1495,-2.1411,-2.1317,-2.1246,-2.1087,-2.0884,-2.0578,-2.0161,-1.9665,-1.8989,-1.8122,-1.7258,-1.6645,-1.6088,-1.5889,-1.5631,-1.5522,-1.547,-1.5485,-1.5514,-1.5507,-1.5529,-1.5536,-1.5507,0.3241,0.3186,0.2573,0.2183,0.1904,0.157,0.1117,0.055,0.0312,-0.01,-0.0592,-0.1063,-0.1523,-0.1883,-0.224,-0.2594,-0.3036,-0.3607,-0.4049,-0.4316,-0.4622,-0.4838,-0.5104,-0.545,-0.5924,-0.6608,-0.6852,-0.7021,-0.7283,-0.7499,-0.7704,-0.7904,-0.7995,-0.8238,-0.8517,-0.8635,-0.8793,-0.9159,-0.9239,-0.9439,-0.9813,-0.9897,-1.0083,-1.0472,-1.0654,-1.0867,-1.1031,-1.127,-1.1347,-1.1175,-1.1531,-1.1562,-1.1608,-1.189,-1.2666,-1.3361,-1.3905,-1.4432,-1.5022,-1.5441,-1.5733,-1.6021,-1.6214,-1.6382,-1.6578,-1.6777,-1.6964,-1.7099,-1.7207,-1.7297,-1.7306,-1.7388,-1.7379,-1.7429,-1.7829,-1.8158,-1.8637,-1.9762,-2.0633,-2.1581,-2.1791,-2.1886,-2.1819,-2.1768,-2.173,-2.1667,-2.1404,-2.1286,-2.1383,-2.1396,-2.1277,-2.1183,-2.1127,-2.0966,-2.0893,-2.0687,-2.0525,-2.0229,-1.9766,-1.8738,-1.8165,-1.7378,-1.6527,-1.6085,-1.5647,-1.5455,-1.5329,-1.5254,-1.5208,-1.5253,-1.5222,-1.5208,-1.5208,-1.5222,-1.5185,0.3856,0.3801,0.3187,0.2799,0.2521,0.2185,0.171,0.1177,0.0874,0.0445,-0.0144,-0.0595,-0.103,-0.1433,-0.1792,-0.2239,-0.2681,-0.3167,-0.3478,-0.37,-0.3963,-0.4184,-0.4447,-0.4663,-0.5009,-0.5437,-0.595,-0.6383,-0.6693,-0.6904,-0.7164,-0.7412,-0.7538,-0.7739,-0.8021,-0.814,-0.8349,-0.8712,-0.8797,-0.8999,-0.9328,-0.9487,-0.9651,-1.0083,-1.0239,-1.0423,-1.0687,-1.0948,-1.1201,-1.1432,-1.1832,-1.2136,-1.228,-1.2462,-1.3093,-1.3828,-1.4215,-1.4598,-1.5045,-1.5359,-1.561,-1.5856,-1.6083,-1.6269,-1.6417,-1.657,-1.6785,-1.6981,-1.7116,-1.7232,-1.7297,-1.7191,-1.7215,-1.7239,-1.7254,-1.7494,-1.8036,-1.8594,-1.9329,-2.0373,-2.1022,-2.1513,-2.133,-2.1252,-2.1256,-2.125,-2.114,-2.1037,-2.1103,-2.103,-2.0925,-2.086,-2.081,-2.0677,-2.0509,-2.0304,-2.0096,-1.9913,-1.922,-1.7514,-1.6892,-1.6377,-1.5808,-1.5449,-1.5239,-1.5142,-1.5027,-1.4949,-1.4925,-1.4894,-1.4902,-1.4909,-1.4878,-1.4878,-1.4832,0.4517,0.4403,0.3852,0.3409,0.3131,0.2797,0.2305,0.1751,0.1436,0.0987,0.0427,-0.0091,-0.0537,-0.0895,-0.1254,-0.1746,-0.2192,-0.2502,-0.2814,-0.3081,-0.3301,-0.3568,-0.3831,-0.4003,-0.4222,-0.4528,-0.5005,-0.5615,-0.6056,-0.6319,-0.6614,-0.6862,-0.6985,-0.7276,-0.761,-0.7697,-0.7942,-0.8222,-0.8345,-0.8553,-0.8963,-0.9119,-0.9412,-0.9611,-0.9853,-1.0083,-1.0346,-1.0682,-1.1024,-1.1356,-1.1726,-1.2113,-1.2431,-1.2752,-1.3212,-1.3979,-1.4349,-1.4634,-1.4935,-1.5224,-1.547,-1.5704,-1.5906,-1.6103,-1.6297,-1.646,-1.6612,-1.6787,-1.6881,-1.6975,-1.7059,-1.6992,-1.694,-1.6921,-1.6855,-1.6971,-1.7279,-1.7652,-1.8338,-1.9139,-1.9592,-2.0089,-2.0632,-2.0635,-2.0742,-2.0799,-2.0782,-2.0789,-2.0771,-2.0703,-2.0561,-2.0494,-2.0433,-2.0304,-2.0085,-1.9791,-1.973,-1.9594,-1.8567,-1.6859,-1.5806,-1.5375,-1.5149,-1.4913,-1.4797,-1.4735,-1.4742,-1.4662,-1.4599,-1.4543,-1.455,-1.4556,-1.4525,-1.4525,-1.4447,0.5232,0.5009,0.4463,0.4075,0.3796,0.3463,0.2891,0.2313,0.1991,0.1521,0.0892,0.0365,-0.0045,-0.0358,-0.0806,-0.1254,-0.1659,-0.1878,-0.2192,-0.2416,-0.2679,-0.2901,-0.3124,-0.339,-0.3565,-0.3739,-0.4094,-0.4626,-0.5412,-0.5717,-0.601,-0.631,-0.6477,-0.6774,-0.7112,-0.7241,-0.7489,-0.778,-0.7901,-0.8107,-0.8513,-0.8886,-0.9092,-0.9199,-0.9496,-0.9769,-0.9996,-1.0341,-1.0725,-1.1072,-1.1447,-1.1822,-1.2191,-1.2621,-1.3132,-1.3756,-1.4175,-1.4515,-1.4811,-1.5048,-1.5291,-1.5492,-1.5704,-1.5906,-1.6118,-1.6312,-1.6468,-1.6573,-1.6628,-1.6664,-1.6743,-1.6672,-1.6623,-1.6598,-1.6564,-1.6564,-1.6713,-1.696,-1.7196,-1.7789,-1.8178,-1.8739,-1.9391,-1.9679,-1.9751,-2.0082,-2.0119,-2.0358,-2.032,-2.0323,-2.0235,-2.0123,-2.0018,-1.9884,-1.9607,-1.9212,-1.9256,-1.94,-1.7928,-1.6099,-1.5192,-1.4501,-1.4422,-1.4445,-1.4363,-1.4298,-1.4337,-1.4337,-1.4287,-1.4235,-1.4203,-1.417,-1.4131,-1.4092,-1.4052,0.5937,0.5666,0.5179,0.4796,0.452,0.4076,0.3552,0.2948,0.2574,0.1982,0.1315,0.0855,0.0493,0.0179,-0.0313,-0.0761,-0.1119,-0.1388,-0.1567,-0.1791,-0.201,-0.2187,-0.2367,-0.2765,-0.2943,-0.3075,-0.3431,-0.4136,-0.4753,-0.506,-0.541,-0.5755,-0.6016,-0.6273,-0.6605,-0.6735,-0.7031,-0.7416,-0.7503,-0.7701,-0.8062,-0.8435,-0.8639,-0.8841,-0.9088,-0.9381,-0.9602,-0.9991,-1.0341,-1.0692,-1.1067,-1.149,-1.1912,-1.2335,-1.2785,-1.3285,-1.3749,-1.4214,-1.4508,-1.4811,-1.5048,-1.5277,-1.5448,-1.5646,-1.589,-1.6111,-1.6242,-1.6336,-1.6336,-1.6372,-1.6446,-1.6383,-1.6375,-1.6335,-1.6296,-1.625,-1.6296,-1.6385,-1.6622,-1.6609,-1.705,-1.7657,-1.8272,-1.8523,-1.8757,-1.912,-1.9456,-1.9651,-1.9703,-1.9558,-1.9476,-1.9301,-1.9108,-1.8982,-1.878,-1.8419,-1.8324,-1.8714,-1.7268,-1.5413,-1.4727,-1.4098,-1.4052,-1.4026,-1.3947,-1.3848,-1.3868,-1.3914,-1.3908,-1.3881,-1.3848,-1.3768,-1.3695,-1.3655,-1.3581,0.7017,0.6268,0.5834,0.5456,0.5179,0.4739,0.4131,0.3553,0.3114,0.2507,0.1809,0.1387,0.0986,0.0583,0.0134,-0.0179,-0.0492,-0.0717,-0.0941,-0.1075,-0.1341,-0.152,-0.1744,-0.1967,-0.2145,-0.2454,-0.2721,-0.312,-0.3781,-0.4401,-0.4888,-0.5195,-0.5501,-0.5758,-0.6053,-0.6227,-0.6565,-0.6946,-0.7241,-0.7503,-0.7746,-0.8024,-0.8271,-0.841,-0.8728,-0.9052,-0.9324,-0.9632,-1.003,-1.0428,-1.0812,-1.1223,-1.1638,-1.2071,-1.2467,-1.2896,-1.3291,-1.3795,-1.4273,-1.4529,-1.4787,-1.5041,-1.5202,-1.5352,-1.5594,-1.5818,-1.5991,-1.6075,-1.6141,-1.6183,-1.6165,-1.6113,-1.6087,-1.6063,-1.6002,-1.5972,-1.5962,-1.5962,-1.6051,-1.5978,-1.6,-1.6618,-1.7135,-1.7395,-1.7746,-1.8272,-1.8434,-1.8505,-1.8481,-1.8317,-1.8253,-1.8195,-1.8034,-1.7895,-1.7675,-1.7391,-1.6944,-1.7007,-1.6467,-1.4924,-1.4266,-1.3855,-1.3729,-1.3608,-1.352,-1.3452,-1.3474,-1.3514,-1.3573,-1.3512,-1.345,-1.3376,-1.3329,-1.3145,-1.311,0.799,0.7079,0.6539,0.6161,0.5839,0.5393,0.4765,0.4131,0.3714,0.308,0.2362,0.1879,0.1387,0.0941,0.0717,0.0448,0.0134,-0.0045,-0.0269,-0.0448,-0.0627,-0.0806,-0.103,-0.121,-0.1477,-0.1832,-0.2011,-0.2367,-0.2857,-0.3478,-0.4054,-0.4583,-0.4891,-0.5239,-0.5494,-0.5755,-0.6059,-0.6523,-0.6943,-0.7154,-0.7276,-0.7655,-0.7867,-0.8077,-0.8361,-0.8724,-0.9043,-0.9355,-0.9755,-1.0205,-1.0626,-1.0997,-1.1415,-1.178,-1.2144,-1.2538,-1.2918,-1.3338,-1.3775,-1.4137,-1.449,-1.4749,-1.4942,-1.5134,-1.5263,-1.55,-1.5602,-1.5631,-1.5742,-1.5799,-1.5805,-1.5749,-1.5743,-1.5721,-1.5684,-1.5683,-1.5654,-1.5654,-1.5646,-1.5646,-1.5617,-1.5617,-1.6047,-1.6278,-1.6712,-1.7311,-1.7481,-1.7446,-1.7375,-1.7239,-1.7304,-1.734,-1.7189,-1.705,-1.6874,-1.6537,-1.6007,-1.5483,-1.4977,-1.4409,-1.3692,-1.3408,-1.3338,-1.3214,-1.3088,-1.2996,-1.2955,-1.3094,-1.3226,-1.3123,-1.306,-1.3002,-1.2932,-1.2745,-1.2627,0.8844,0.8206,0.7506,0.6969,0.6539,0.6107,0.5508,0.4814,0.4411,0.3744,0.287,0.2366,0.1833,0.1477,0.1298,0.1074,0.0671,0.0627,0.0448,0.0179,0.0,-0.0134,-0.0359,-0.0582,-0.0806,-0.1029,-0.1298,-0.1657,-0.2061,-0.2504,-0.3214,-0.3878,-0.4274,-0.4583,-0.4932,-0.528,-0.5631,-0.6053,-0.652,-0.6725,-0.6898,-0.715,-0.745,-0.7652,-0.7991,-0.8365,-0.8724,-0.9079,-0.9483,-0.9941,-1.0361,-1.0741,-1.1121,-1.1447,-1.1805,-1.2174,-1.2502,-1.2861,-1.3248,-1.3735,-1.4149,-1.4476,-1.4711,-1.4871,-1.494,-1.4982,-1.5066,-1.5097,-1.5224,-1.5277,-1.5299,-1.5313,-1.526,-1.5303,-1.5274,-1.5268,-1.5291,-1.5306,-1.5306,-1.5336,-1.5298,-1.5291,-1.5268,-1.5576,-1.5813,-1.6395,-1.6449,-1.6422,-1.6575,-1.6529,-1.6579,-1.6583,-1.6418,-1.6319,-1.6228,-1.5764,-1.5059,-1.4625,-1.4212,-1.3663,-1.3064,-1.2926,-1.2931,-1.275,-1.2615,-1.2544,-1.2496,-1.2526,-1.2573,-1.2656,-1.2668,-1.2562,-1.2455,-1.2264,-1.2186,0.9469,0.9099,0.8676,0.7987,0.7141,0.6712,0.6141,0.5493,0.5005,0.4272,0.3342,0.281,0.2457,0.2191,0.1923,0.1744,0.1477,0.121,0.1075,0.0896,0.0716,0.0493,0.0313,0.009,-0.0134,-0.0358,-0.0671,-0.103,-0.1433,-0.1791,-0.219,-0.2854,-0.352,-0.4049,-0.4443,-0.4842,-0.528,-0.5588,-0.6013,-0.6267,-0.6474,-0.6729,-0.707,-0.7332,-0.7572,-0.7995,-0.8361,-0.872,-0.9136,-0.9545,-1.0015,-1.0404,-1.0746,-1.1062,-1.1394,-1.1726,-1.206,-1.236,-1.2768,-1.3291,-1.3809,-1.4095,-1.4367,-1.4538,-1.4516,-1.4613,-1.4658,-1.4721,-1.4721,-1.4752,-1.479,-1.4717,-1.4696,-1.477,-1.4836,-1.4856,-1.488,-1.4925,-1.4925,-1.4918,-1.4949,-1.4949,-1.4925,-1.4961,-1.5198,-1.5442,-1.543,-1.5442,-1.5604,-1.5674,-1.5651,-1.5544,-1.5387,-1.514,-1.5031,-1.4536,-1.4033,-1.3771,-1.3468,-1.3066,-1.2624,-1.2602,-1.255,-1.2324,-1.2132,-1.201,-1.1943,-1.1889,-1.1951,-1.2138,-1.2108,-1.2035,-1.1926,-1.1743,-1.1695,1.0091,0.9825,0.9573,0.8844,0.7836,0.7464,0.6818,0.6082,0.5646,0.4845,0.3836,0.3476,0.3167,0.2948,0.2724,0.2412,0.2236,0.2013,0.1789,0.1565,0.1342,0.1163,0.0985,0.0762,0.0538,0.0269,-0.0045,-0.0403,-0.0761,-0.1075,-0.1476,-0.201,-0.2635,-0.3208,-0.3869,-0.4443,-0.4884,-0.5152,-0.5455,-0.5798,-0.5922,-0.6307,-0.6598,-0.695,-0.7192,-0.7617,-0.8036,-0.8443,-0.8818,-0.9185,-0.9581,-0.9966,-1.0307,-1.0606,-1.0981,-1.1276,-1.1573,-1.1872,-1.2276,-1.2947,-1.3435,-1.3683,-1.3835,-1.398,-1.408,-1.4138,-1.4156,-1.4188,-1.4195,-1.4253,-1.4239,-1.423,-1.4256,-1.4358,-1.4383,-1.4413,-1.4458,-1.4472,-1.4504,-1.4529,-1.4529,-1.4529,-1.4472,-1.4479,-1.4616,-1.478,-1.4815,-1.4754,-1.4713,-1.4671,-1.4525,-1.4399,-1.4206,-1.3939,-1.3647,-1.3521,-1.3418,-1.3165,-1.2881,-1.2645,-1.2342,-1.2258,-1.2077,-1.1805,-1.1616,-1.1473,-1.1362,-1.1282,-1.1431,-1.1616,-1.1584,-1.1479,-1.1314,-1.1159,-1.1084,1.0659,1.0352,1.0095,0.9469,0.8623,0.8262,0.7578,0.6622,0.6216,0.5467,0.4468,0.4272,0.3963,0.3651,0.3517,0.3252,0.2988,0.281,0.2587,0.2232,0.2054,0.1876,0.1656,0.1433,0.1165,0.0895,0.0582,0.0268,-0.0045,-0.0403,-0.076,-0.1163,-0.1744,-0.2413,-0.3031,-0.3737,-0.4266,-0.462,-0.4925,-0.5188,-0.541,-0.5798,-0.6139,-0.6471,-0.6807,-0.7196,-0.7621,-0.8077,-0.8406,-0.8769,-0.9208,-0.9567,-0.9936,-1.023,-1.0529,-1.0873,-1.1126,-1.1351,-1.1584,-1.252,-1.2941,-1.3154,-1.3304,-1.3397,-1.3476,-1.3518,-1.3575,-1.3608,-1.3615,-1.3642,-1.3669,-1.3749,-1.3822,-1.3868,-1.3894,-1.3927,-1.3973,-1.4006,-1.4032,-1.4104,-1.4065,-1.4026,-1.4,-1.398,-1.4092,-1.4177,-1.4229,-1.415,-1.4006,-1.3901,-1.3808,-1.3608,-1.3474,-1.3331,-1.3132,-1.2931,-1.278,-1.2538,-1.2318,-1.2096,-1.1878,-1.17,-1.151,-1.1244,-1.1099,-1.0954,-1.0797,-1.0644,-1.0753,-1.0862,-1.0948,-1.0873,-1.071,-1.0585,-1.0552,1.1372,1.1213,1.0867,1.045,0.9854,0.8834,0.8015,0.7345,0.6504,0.5765,0.5261,0.4927,0.4661,0.4399,0.418,0.3957,0.3691,0.3431,0.3162,0.3074,0.2807,0.2587,0.2366,0.2057,0.1791,0.1568,0.1299,0.094,0.0582,0.0268,-0.0045,-0.0448,-0.1074,-0.1922,-0.2767,-0.3432,-0.3746,-0.4051,-0.4401,-0.4755,-0.4978,-0.5328,-0.5672,-0.6007,-0.6386,-0.6771,-0.7164,-0.7572,-0.7942,-0.8271,-0.8712,-0.9088,-0.9426,-0.9686,-1.0025,-1.0302,-1.0567,-1.0807,-1.1024,-1.1605,-1.1987,-1.2407,-1.2697,-1.2768,-1.2828,-1.2879,-1.2931,-1.3,-1.3035,-1.3063,-1.3167,-1.3185,-1.3219,-1.3201,-1.3242,-1.335,-1.3391,-1.344,-1.3501,-1.3648,-1.3682,-1.3528,-1.3494,-1.3359,-1.3433,-1.3507,-1.3535,-1.3648,-1.3575,-1.3461,-1.3365,-1.316,-1.2994,-1.2855,-1.2679,-1.2467,-1.2246,-1.2024,-1.1799,-1.1621,-1.1399,-1.118,-1.0948,-1.0682,-1.0577,-1.0428,-1.023,-1.003,-0.9952,-1.0025,-1.0103,-1.0264,-1.0225,-1.0108,-1.004,1.2062,1.1923,1.1578,1.1276,1.0859,0.9527,0.8518,0.7712,0.6755,0.6218,0.5879,0.5567,0.531,0.5101,0.4886,0.4576,0.4395,0.422,0.3917,0.3829,0.3563,0.3296,0.3031,0.2808,0.2545,0.2283,0.197,0.1611,0.1341,0.094,0.0537,0.0045,-0.0492,-0.1162,-0.2007,-0.2544,-0.3168,-0.3476,-0.3832,-0.4186,-0.4451,-0.4801,-0.5149,-0.5448,-0.5833,-0.6218,-0.6605,-0.6979,-0.7349,-0.7686,-0.8066,-0.8484,-0.8773,-0.9092,-0.9355,-0.9646,-0.9957,-1.0235,-1.0539,-1.0649,-1.1105,-1.1495,-1.1884,-1.2113,-1.2178,-1.221,-1.2318,-1.2395,-1.2461,-1.2461,-1.252,-1.2543,-1.2613,-1.2597,-1.2709,-1.2821,-1.2867,-1.2912,-1.2918,-1.3069,-1.3104,-1.3022,-1.2947,-1.2807,-1.2737,-1.2779,-1.2842,-1.2959,-1.3069,-1.2988,-1.2871,-1.2673,-1.2496,-1.2354,-1.2132,-1.1915,-1.1732,-1.1505,-1.1282,-1.1057,-1.0878,-1.0654,-1.0385,-1.0157,-0.9996,-0.9799,-0.9571,-0.9372,-0.9368,-0.9319,-0.931,-0.9478,-0.9655,-0.966,-0.9541,1.2691,1.2475,1.2224,1.1959,1.1472,1.0222,0.8902,0.7674,0.7194,0.6768,0.6377,0.6334,0.6084,0.5798,0.572,0.5453,0.5099,0.5007,0.4751,0.4447,0.4268,0.4005,0.3783,0.3563,0.3255,0.2944,0.2634,0.2366,0.2099,0.161,0.1029,0.0537,0.0089,-0.0402,-0.0983,-0.1607,-0.232,-0.2767,-0.3214,-0.3524,-0.3832,-0.4228,-0.4535,-0.4838,-0.5231,-0.5615,-0.6002,-0.6386,-0.668,-0.7024,-0.7409,-0.7701,-0.8028,-0.8308,-0.8643,-0.8967,-0.9346,-0.9642,-0.9892,-0.9957,-1.0118,-1.0462,-1.0867,-1.1196,-1.1462,-1.1536,-1.1616,-1.1721,-1.1783,-1.1794,-1.1788,-1.1942,-1.2063,-1.2121,-1.222,-1.2281,-1.2294,-1.2324,-1.233,-1.2365,-1.2365,-1.2324,-1.2312,-1.221,-1.206,-1.2161,-1.2191,-1.2174,-1.2282,-1.2389,-1.2276,-1.2174,-1.1993,-1.1811,-1.1627,-1.1362,-1.1212,-1.0986,-1.071,-1.0447,-1.0269,-1.0079,-0.9799,-0.9562,-0.9403,-0.9208,-0.8975,-0.8818,-0.8732,-0.8728,-0.8675,-0.8841,-0.9056,-0.9096,-0.9056,1.3218,1.2982,1.2832,1.2426,1.1747,1.0579,0.9352,0.8192,0.7813,0.7492,0.7276,0.6933,0.6725,0.6601,0.6301,0.6039,0.583,0.5663,0.5453,0.5236,0.4968,0.4792,0.453,0.4268,0.3921,0.3654,0.3342,0.3075,0.2632,0.2188,0.1654,0.1163,0.085,0.0492,0.0,-0.0536,-0.1295,-0.2011,-0.2457,-0.2858,-0.3211,-0.3607,-0.3873,-0.4228,-0.4576,-0.4961,-0.5308,-0.5704,-0.6047,-0.634,-0.6644,-0.6982,-0.7436,-0.7652,-0.7867,-0.8267,-0.8586,-0.8873,-0.9043,-0.9151,-0.927,-0.9448,-0.9751,-1.0142,-1.0519,-1.0781,-1.0862,-1.1003,-1.1116,-1.1169,-1.1196,-1.1318,-1.1424,-1.1494,-1.1586,-1.1634,-1.1643,-1.1695,-1.17,-1.1737,-1.1732,-1.1658,-1.1658,-1.1547,-1.1436,-1.156,-1.1571,-1.1501,-1.1521,-1.1664,-1.1658,-1.159,-1.1495,-1.1314,-1.1072,-1.0807,-1.0654,-1.0467,-1.0147,-0.9869,-0.9681,-0.9483,-0.9204,-0.9003,-0.876,-0.8606,-0.8414,-0.8291,-0.8205,-0.8122,-0.807,-0.8283,-0.8451,-0.8488,-0.857,1.3852,1.3569,1.3263,1.2569,1.1616,1.0795,0.9889,0.9059,0.8533,0.8201,0.7957,0.7648,0.7398,0.7234,0.6891,0.6677,0.655,0.6307,0.6099,0.583,0.5658,0.5445,0.5185,0.4925,0.4661,0.4355,0.4049,0.3739,0.3342,0.2812,0.2323,0.1923,0.1655,0.1297,0.085,0.0447,-0.0089,-0.0849,-0.152,-0.2099,-0.2544,-0.2897,-0.3211,-0.3522,-0.3913,-0.422,-0.4526,-0.4968,-0.5267,-0.5526,-0.5873,-0.6212,-0.6673,-0.694,-0.715,-0.7516,-0.7769,-0.8017,-0.8185,-0.8263,-0.8431,-0.8598,-0.8724,-0.899,-0.946,-0.9845,-1.0084,-1.0321,-1.0457,-1.0539,-1.0634,-1.0695,-1.0776,-1.0829,-1.0904,-1.094,-1.099,-1.1035,-1.1062,-1.1094,-1.1057,-1.0981,-1.0905,-1.0835,-1.0817,-1.094,-1.0863,-1.0669,-1.0812,-1.1002,-1.0992,-1.0916,-1.0909,-1.0815,-1.053,-1.0191,-0.9996,-0.9839,-0.9602,-0.9324,-0.9132,-0.8931,-0.8683,-0.8398,-0.8111,-0.7953,-0.7833,-0.7712,-0.7628,-0.7583,-0.7538,-0.7617,-0.7825,-0.7957,-0.804,1.4558,1.4168,1.3552,1.2534,1.1322,1.1013,1.0575,1.0043,0.9412,0.8895,0.8533,0.8316,0.8066,0.7825,0.7572,0.7318,0.7147,0.6943,0.6735,0.6377,0.6292,0.6127,0.5838,0.5626,0.531,0.5009,0.4751,0.4447,0.4142,0.3654,0.3123,0.2772,0.2412,0.2055,0.1656,0.1342,0.0894,0.0358,-0.0447,-0.1116,-0.1742,-0.2099,-0.2413,-0.2767,-0.312,-0.3427,-0.3693,-0.4043,-0.443,-0.4687,-0.4976,-0.5297,-0.5708,-0.6115,-0.6371,-0.6578,-0.6788,-0.7035,-0.719,-0.7307,-0.7561,-0.7735,-0.7859,-0.8054,-0.8448,-0.9097,-0.946,-0.9623,-0.9711,-0.9839,-0.9942,-1.0031,-1.0104,-1.0181,-1.0225,-1.0269,-1.0283,-1.0341,-1.0336,-1.037,-1.0331,-1.0293,-1.0254,-1.0176,-1.0152,-1.0293,-1.043,-1.0199,-0.9908,-1.0137,-1.0264,-1.0225,-1.0269,-1.0161,-0.9813,-0.9562,-0.9324,-0.9128,-0.8926,-0.8728,-0.8488,-0.8328,-0.8122,-0.7829,-0.7492,-0.7367,-0.7202,-0.7164,-0.7083,-0.7034,-0.6989,-0.6989,-0.7115,-0.7332,-0.7538,1.5102,1.4642,1.3564,1.2605,1.1805,1.13,1.0958,1.0659,1.0385,0.9799,0.9159,0.889,0.8688,0.8439,0.8201,0.7987,0.7773,0.7572,0.737,0.7112,0.6933,0.6722,0.6477,0.6218,0.5953,0.5661,0.5407,0.5106,0.4712,0.4272,0.3873,0.3475,0.3162,0.2853,0.246,0.2145,0.1787,0.1342,0.085,0.0045,-0.067,-0.1252,-0.1701,-0.2013,-0.2279,-0.2589,-0.2854,-0.3248,-0.3526,-0.3757,-0.3945,-0.4237,-0.4545,-0.4972,-0.5198,-0.53,-0.5656,-0.5928,-0.6119,-0.6337,-0.6588,-0.6858,-0.7036,-0.722,-0.7599,-0.8337,-0.8748,-0.8833,-0.8963,-0.9128,-0.9239,-0.9332,-0.9438,-0.9487,-0.9572,-0.9594,-0.9616,-0.9607,-0.9642,-0.9602,-0.9602,-0.9558,-0.9553,-0.9567,-0.9541,-0.9769,-1.0165,-0.999,-0.9123,-0.8983,-0.9377,-0.943,-0.9612,-0.9502,-0.9145,-0.8833,-0.863,-0.8435,-0.8234,-0.804,-0.7882,-0.7583,-0.7325,-0.7157,-0.6907,-0.6777,-0.6653,-0.6617,-0.6575,-0.6529,-0.6529,-0.6529,-0.6532,-0.6705,-0.6907,1.5466,1.4824,1.3632,1.2715,1.2069,1.1614,1.1362,1.1185,1.0959,1.0567,0.9986,0.9567,0.9252,0.9039,0.8809,0.8606,0.839,0.8156,0.7995,0.7787,0.7572,0.7363,0.7108,0.6849,0.6595,0.6346,0.6047,0.5701,0.5234,0.4971,0.4661,0.4264,0.3997,0.369,0.33,0.2987,0.2588,0.2234,0.1967,0.1341,0.0491,-0.0134,-0.0761,-0.1119,-0.1432,-0.1699,-0.1952,-0.2292,-0.257,-0.2829,-0.3078,-0.3383,-0.3658,-0.3953,-0.4125,-0.4301,-0.4563,-0.4783,-0.5029,-0.5241,-0.5548,-0.5837,-0.6008,-0.6141,-0.6501,-0.7168,-0.7671,-0.7799,-0.8271,-0.8484,-0.8504,-0.8598,-0.8687,-0.876,-0.8802,-0.886,-0.8867,-0.8882,-0.8878,-0.8878,-0.8873,-0.8829,-0.8833,-0.8903,-0.8867,-0.8728,-0.9209,-0.9123,-0.8386,-0.7963,-0.8309,-0.8537,-0.8659,-0.868,-0.8414,-0.8103,-0.7848,-0.7693,-0.7534,-0.7318,-0.7063,-0.6777,-0.6529,-0.6438,-0.631,-0.6224,-0.6145,-0.6107,-0.6107,-0.6062,-0.6065,-0.611,-0.6113,-0.607,-0.6233,1.5624,1.4736,1.3658,1.2816,1.219,1.1968,1.1774,1.159,1.1367,1.1212,1.0921,1.0307,0.9952,0.9597,0.9328,0.9168,0.9007,0.876,0.8606,0.8406,0.8193,0.7949,0.7739,0.7527,0.7276,0.6937,0.6592,0.6261,0.593,0.5663,0.5397,0.5094,0.4787,0.4478,0.4174,0.3823,0.3427,0.3118,0.2808,0.25,0.1785,0.1027,0.0313,-0.0179,-0.0537,-0.0761,-0.1017,-0.1297,-0.1559,-0.182,-0.2153,-0.2469,-0.2709,-0.2911,-0.3111,-0.3267,-0.3418,-0.3681,-0.3944,-0.4073,-0.4412,-0.4731,-0.4866,-0.5145,-0.5522,-0.5942,-0.6446,-0.6842,-0.7311,-0.7693,-0.7716,-0.7829,-0.7923,-0.807,-0.8066,-0.8089,-0.8138,-0.8148,-0.8148,-0.8148,-0.8144,-0.8099,-0.8156,-0.822,-0.8134,-0.7991,-0.7795,-0.7619,-0.7442,-0.7314,-0.7363,-0.7536,-0.7599,-0.7569,-0.7579,-0.7349,-0.7081,-0.7017,-0.6852,-0.6592,-0.6292,-0.6087,-0.5879,-0.5793,-0.5707,-0.5669,-0.5631,-0.5636,-0.5593,-0.559,-0.559,-0.5593,-0.5593,-0.5593,-0.5593,1.5266,1.4099,1.3697,1.3204,1.2704,1.2413,1.2264,1.2191,1.1915,1.1695,1.1547,1.1324,1.0867,1.0196,0.9936,0.9734,0.9518,0.9355,0.9123,0.889,0.8801,0.8565,0.8324,0.8152,0.7908,0.7572,0.7189,0.6855,0.6647,0.6343,0.6087,0.5962,0.5628,0.5277,0.4923,0.4618,0.431,0.3999,0.3734,0.3424,0.2808,0.2051,0.1295,0.0804,0.0448,0.0268,0.0,-0.0385,-0.0577,-0.0822,-0.1138,-0.1451,-0.1648,-0.1831,-0.2008,-0.2176,-0.2348,-0.2594,-0.2803,-0.3044,-0.3389,-0.3651,-0.3838,-0.4166,-0.4499,-0.479,-0.5222,-0.5513,-0.6027,-0.6634,-0.6833,-0.7029,-0.7158,-0.7318,-0.7395,-0.7342,-0.736,-0.7395,-0.7436,-0.7485,-0.7489,-0.7489,-0.7489,-0.7548,-0.7514,-0.722,-0.6674,-0.6552,-0.6787,-0.6667,-0.6495,-0.654,-0.6628,-0.6846,-0.6979,-0.6531,-0.6268,-0.6243,-0.6127,-0.5825,-0.5564,-0.5394,-0.527,-0.5142,-0.5147,-0.5111,-0.5116,-0.507,-0.507,-0.5067,-0.5113,-0.5116,-0.5113,-0.507,-0.5026]}]]